     2              OBSERVATION DATA    GPS                 RINEX VERSION / TYPE
ASRINEXO V2.4.4 UX USGS 06-FEB-98 12:10                     PGM / RUN BY / DATE
                                                            COMMENT
Original Marker Name: law1 LAPW1_USGS                       COMMENT
Campaign Name: usgs.landers.pro                             COMMENT
4-Character Station Name: LAW1                              COMMENT
6-Character Antenna Code: DMRCHT                            COMMENT
Vertical Measurement Point: BCR                             COMMENT
Vertical Offset to Rinex Ref. Point: 0.0348                 COMMENT
Radial Measurement Point: ECF                               COMMENT
Radial Offset to Rinex Ref. Point: 0.1897                   COMMENT
Antenna Height from Field Measurement: 1.2730 m             COMMENT
Additional Antenna Identification Info.:                    COMMENT
Turborogue and Ashtech Choke Ring                           COMMENT
Original XYZ: -2354311.9902 -4703874.0892 3596746.3419      COMMENT
New XYZ position is based on association with SCEC monument COMMENT
E1F2J6T9+0011. Position of that monument is believed to be  COMMENT
valid to within 1 m horizontally; vertical accuracy         COMMENT
should be no worse than 3-times this value.                 COMMENT
                                                            COMMENT
Revised Rinex header created by UCSD GPS archive for        COMMENT
GSAC on 12-Nov-1999 (1999:316) 17:59:10 GMT                 COMMENT
For assistance contact dagnew@ucsd.edu or hjohnson@ucsd.edu COMMENT
                                                            COMMENT
LAW1 LAPW1_USGS                                             MARKER NAME
CHS US GEOLOGICAL SURVEY                                    OBSERVER / AGENCY
579 ASHTECH Z-XII3 1E95                                     REC # / TYPE / VERS
244 DORNE-MARGOL. TYPE T                                    ANT # / TYPE
 -2354302.0000 -4703862.0000  3596685.0000                  APPROX POSITION XYZ
        1.2240        0.0000        0.0000                  ANTENNA: DELTA H/E/N
     1     1     0                                          WAVELENGTH FACT L1/2
     5    C1    L1    L2    P1    P2                        # / TYPES OF OBSERV
    30                                                      INTERVAL
  1998     2     3     0     0   30.000000                  TIME OF FIRST OBS
  1998     2     3    23    59    0.000000                  TIME OF LAST OBS
                                                            END OF HEADER
 98  2  3  0  0 30.0000000  0  7  4 24  9  5  7  2 26
  21381332.415   -23038212.90449 -17930779.25849  21381332.5024   21381335.6694
  23359907.996   -11229004.68249  -8475989.99949  23359907.9224   23359912.9794
  22086910.783   -18866285.25549 -14166709.30149  22086910.3904   22086913.9734
  24518022.628    -6304828.57749  -3554580.92249  24518021.3574   24518026.5804
  21476306.080   -20134014.37149 -15673544.20049  21476305.3434   21476309.3854
  22463005.742   -15678333.19149 -12207009.00049  22463005.0654   22463009.4224
  24557392.262    -6275570.07849  -4161348.59349  24557391.9914   24557397.9324
 98  2  3  0  0 59.9990000  0  7  4 24  9  5  7  2 26
  21071044.288   -23093367.92249 -17973757.17849  21071044.4594   21071047.4354
  23040510.665   -11332028.84149  -8556268.48649  23040509.8774   23040514.8144
  21776610.281   -18921504.95649 -14209737.61649  21776609.6074   21776613.4904
  24202878.234    -6385502.69649  -3617443.79249  24202876.7974   24202882.8164
  21187182.240   -20077950.07049 -15629857.73649  21187181.7494   21187185.2734
  22172762.361   -15628152.47249 -12167907.16649  22172761.5674   22172766.1484
  24271277.830    -6203691.13849  -4105339.08649  24271277.9844   24271282.9394
 98  2  3  0  1 29.9990000  0  7  4 24  9  5  7  2 26
  21060655.811   -23147959.69949 -18016296.21649  21060656.0214   21060659.2964
  23020949.386   -11434823.68849  -8636368.28449  23020948.7794   23020953.7084
  21766200.815   -18976206.85949 -14252362.45249  21766200.5434   21766203.9114
  24187535.783    -6466127.74949  -3680268.47149  24187536.2674   24187540.9044
  21197901.137   -20021621.85949 -15585965.63249  21197900.4994   21197904.3844
  22182370.733   -15577660.23049 -12128562.58849  22182370.1554   22182374.6004
  24284991.225    -6131626.91349  -4049185.20549  24284991.0314   24284995.8184
 98  2  3  0  1 59.9990000  0  7  4 24  9  5  7  2 26
  21050357.597   -23202077.15249 -18058465.64449  21050357.5814   21050360.9444
  23001417.043   -11537465.86549  -8716349.12849  23001417.1504   23001422.2774
  21755875.134   -19030468.82849 -14294644.47149  21755874.7014   21755878.3944
  24172186.531    -6546789.00549  -3743121.35949  24172185.1844   24172190.5004
  21208652.582   -19965122.61049 -15541940.23849  21208651.9864   21208655.8704
  22192021.583   -15526944.87849 -12089044.14849  22192021.3134   22192025.8984
  24298727.145    -6059444.80649  -3992939.45349  24298727.9114   24298732.7754
 98  2  3  0  2 29.9990000  0  7  4 24  9  5  7  2 26
  21040159.583   -23255668.13649 -18100224.84349  21040159.7214   21040163.0874
  22981924.149   -11639900.90249  -8796168.57749  22981924.3154   22981928.4164
  21745646.549   -19084220.36349 -14336528.76149  21745646.6824   21745649.8174
  24156841.028    -6627429.38549  -3805957.98149  24156839.0184   24156844.9294
  21219444.980   -19908408.10049 -15497747.11849  21219444.4544   21219447.9564
  22201726.256   -15475946.37049 -12049305.06749  22201725.9554   22201729.6784
  24312497.181    -5987083.26449  -3936553.88149  24312497.3484   24312502.6584
 98  2  3  0  2 59.9990000  0  7  4 24  9  5  7  2 26
  21030056.110   -23308762.06749 -18141596.72549  21030056.1454   21030059.4614
  22962462.904   -11742170.09349  -8875858.80049  22962462.5984   22962468.5264
  21735505.994   -19137509.22949 -14378052.52749  21735505.6634   21735508.9514
  24141491.351    -6708092.23249  -3868812.13749  24141489.5554   24141494.7104
  21230267.705   -19851534.32249 -15453429.88949  21230266.8124   21230270.7384
  22211476.944   -15424705.96449 -12009377.50049  22211476.5854   22211480.8564
  24326294.064    -5914579.83249  -3880057.74049  24326294.1574   24326299.4024
 98  2  3  0  3 29.9990000  0  7  4 24  9  5  7  2 26
  21020045.578   -23361367.58049 -18182588.01949  21020045.5054   21020048.9724
  22943027.792   -11844302.28249  -8955442.28449  22943027.5934   22943032.9694
  21725444.663   -19190381.84349 -14419251.94749  21725444.5084   21725447.7284
  24126127.087    -6788831.45049  -3931725.78049  24126126.3004   24126130.9194
  21241111.030   -19794552.23849 -15409028.26149  21241110.3954   21241114.3064
  22221263.687   -15373276.54549 -11969302.65049  22221263.4294   22221267.8534
  24340108.354    -5841984.85249  -3823490.29549  24340109.2234   24340113.9624
 98  2  3  0  3 59.9990000  0  7  4 24  9  5  7  2 26
  21010138.165   -23413431.29249 -18223157.13349  21010138.3244   21010141.4654
  22923630.228   -11946236.95949  -9034871.85349  22923629.2824   22923635.0664
  21715473.605   -19242779.78849 -14460081.48949  21715473.2614   21715476.6944
  24110757.677    -6869597.99949  -3994660.74249  24110756.8104   24110761.9294
  21251986.650   -19737400.40049 -15364494.35649  21251985.9364   21251989.7264
  22231100.961   -15321581.64649 -11929020.93049  22231100.6094   22231104.4454
  24353946.089    -5769267.31549  -3766827.32949  24353946.9834   24353950.2794
 98  2  3  0  4 29.9990000  0  7  4 24  9  5  7  2 26
  21000339.779   -23464922.02649 -18263279.76949  21000339.8174   21000343.1964
  22904275.840   -12047944.57249  -9114124.50149  22904275.6704   22904280.2024
  21705599.021   -19294670.75149 -14500515.98549  21705598.8774   21705601.8284
  24095389.647    -6950357.69149  -4057590.34249  24095388.8794   24095392.9084
  21262900.873   -19680045.71449 -15319802.38849  21262900.2104   21262903.7994
  22240996.204   -15269581.78049 -11888501.57349  22240995.8294   22240999.9974
  24367808.227    -5696422.23749  -3710064.97149  24367808.2474   24367814.3664
 98  2  3  0  4 59.9990000  0  7  4 24  9  5  7  2 26
  20990640.073   -23515894.19849 -18302998.33149  20990640.0924   20990643.2644
  22884953.459   -12149484.25749  -9193246.29549  22884953.0874   22884958.4804
  21695809.099   -19346117.19049 -14540604.09249  21695808.6744   21695812.1974
  24080013.609    -7031159.00149  -4120552.34549  24080013.0644   24080017.5374
  21273841.872   -19622550.25649 -15275000.72749  21273841.2864   21273844.8024
  22250937.511   -15217339.83449 -11847793.58949  22250936.8274   22250941.0504
  24381680.262    -5623524.38449  -3653261.51449  24381681.5934   24381685.0034
 98  2  3  0  5 29.9990000  0  7  4 24  9  5  7  2 26
  20981051.650   -23566281.48849 -18342261.13749  20981051.7104   20981054.8034
  22865676.209   -12250786.33749  -9272182.95049  22865675.7424   22865681.2924
  21686118.862   -19397039.78449 -14580284.01249  21686118.6624   21686122.1024
  24064644.328    -7111924.45649  -4183486.39649  24064644.3234   24064648.3674
  21284825.521   -19564830.98449 -15230024.66449  21284824.9924   21284828.5774
  22260942.102   -15164765.34949 -11806826.47549  22260941.2314   22260946.0544
  24395576.614    -5550498.78949  -3596358.50949  24395576.9444   24395580.6354
 98  2  3  0  5 59.9990000  0  7  4 24  9  5  7  2 26
  20971557.180   -23616175.12449 -18381139.27849  20971557.2234   20971560.5404
  22846424.705   -12351953.17749  -9351014.20349  22846425.0194   22846430.3284
  21676513.896   -19447514.11549 -14619614.64349  21676513.5824   21676517.1114
  24049266.034    -7192738.42349  -4246458.22649  24049266.1694   24049270.3794
  21295838.147   -19506959.37349 -15184929.89749  21295837.5084   21295841.3314
  22270995.660   -15111933.56149 -11765658.87649  22270995.2814   22270999.2734
  24409482.270    -5477424.25449  -3539417.35949  24409481.5284   24409488.0314
 98  2  3  0  6 29.9990000  0  7  4 24  9  5  7  2 26
  20962174.770   -23665479.75549 -18419558.45549  20962174.8884   20962178.2414
  22827211.075   -12452921.12149  -9429690.47849  22827210.5414   22827216.0534
  21667008.471   -19497465.16149 -14658537.52549  21667008.0924   21667011.5904
  24033894.193    -7273517.14249  -4309402.58649  24033894.3414   24033898.3514
  21306893.817   -19448861.53449 -15139658.84649  21306893.1354   21306896.7134
  22281109.468   -15058785.04449 -11724244.46849  22281109.1394   22281113.5614
  24423416.773    -5404198.79649  -3482358.60649  24423416.8104   24423421.3454
 98  2  3  0  6 59.9990000  0  7  4 24  9  5  7  2 26
  20952893.791   -23714251.53349 -18457562.41849  20952893.9434   20952897.2804
  22808023.877   -12553750.25149  -9508258.59649  22808024.2434   22808028.5094
  21657590.267   -19546957.83149 -14697103.22849  21657589.9024   21657593.6034
  24018518.172    -7354318.85849  -4372364.85149  24018516.7574   24018522.0454
  21317980.317   -19390601.41649 -15094261.34449  21317979.4304   21317983.3034
  22291272.977   -15005375.69749 -11682626.82349  22291272.5834   22291276.8324
  24437369.959    -5330874.33349  -3425222.69249  24437369.8414   24437374.7274
 98  2  3  0  7 29.9990000  0  7  4 24  9  5  7  2 26
  20943713.138   -23762496.14849 -18495155.60249  20943713.3094   20943716.4534
  22788864.323   -12654434.45849  -9586713.78449  22788864.6574   22788869.9674
  21648259.253   -19595992.62749 -14735312.14449  21648259.0724   21648262.5184
  24003138.463    -7435139.12849  -4435341.52749  24003137.0444   24003142.6164
  21329097.272   -19332181.21449 -15048739.10249  21329096.7544   21329100.4164
  22301487.533   -14951697.98149 -11640800.05349  22301486.4824   22301491.2204
  24451343.317    -5257444.08149  -3368004.36249  24451344.0674   24451348.4104
 98  2  3  0  7 59.9990000  0  7  4 24  9  5  7  2 26
  20934630.897   -23810223.70549 -18532345.88349  20934631.0374   20934634.2224
  22769733.518   -12754967.59649  -9665051.26449  22769732.7124   22769738.9794
  21639014.888   -19644572.27449 -14773166.39449  21639014.7024   21639018.2804
  23987755.623    -7515976.09849  -4498331.24949  23987756.4324   23987759.4734
  21340239.717   -19273627.54149 -15003112.85049  21340239.0204   21340242.8694
  22311749.939   -14897768.82349 -11598777.35949  22311749.5474   22311754.2584
  24465333.198    -5183927.07949  -3310718.42649  24465333.4624   24465338.5264
 98  2  3  0  8 29.9990000  0  7  4 24  9  5  7  2 26
  20925650.044   -23857418.16649 -18569120.76949  20925650.1844   20925653.1294
  22750641.221   -12855298.37649  -9743231.06349  22750641.0894   22750645.7974
  21629859.767   -19692682.97049 -14810655.23649  21629859.6104   21629863.0464
  23972377.427    -7596788.58249  -4561301.89949  23972377.2294   23972381.4654
  21351410.526   -19214924.67249 -14957370.35149  21351410.0064   21351413.4444
  22322064.721   -14843564.51549 -11556540.25749  22322063.9674   22322068.2604
  24479342.442    -5110308.09049  -3253353.02249  24479342.9444   24479348.4424
 98  2  3  0  8 59.9990000  0  7  4 24  9  5  7  2 26
  20916762.376   -23904122.97949 -18605514.10349  20916762.5074   20916765.6574
  22731583.665   -12955446.21849  -9821268.31849  22731583.5224   22731588.3594
  21620785.460   -19740368.81749 -14847813.02549  21620785.3724   21620788.5104
  23956996.730    -7677613.53949  -4624282.24849  23956996.1074   23957001.5034
  21362601.050   -19156117.96049 -14911546.93349  21362600.5994   21362604.3964
  22332425.529   -14789117.96949 -11514114.40449  22332424.9444   22332429.5324
  24493359.224    -5036649.69649  -3195956.91049  24493359.7404   24493364.0304
 98  2  3  0  9 29.9990000  0  7  4 24  9  5  7  2 26
  20907966.937   -23950343.34549 -18641529.94949  20907967.0464   20907970.2734
  22712562.361   -13055403.64849  -9899157.21549  22712562.7104   22712567.5674
  21611792.659   -19787626.12949 -14884636.88649  21611792.3774   21611796.0644
  23941610.636    -7758467.77349  -4687285.43649  23941609.9484   23941614.9534
  21373811.669   -19097205.90049 -14865641.43249  21373811.0394   21373814.6784
  22342828.878   -14734448.26449 -11471514.65649  22342828.3424   22342832.4834
  24507382.157    -4962959.23849  -3138535.80049  24507382.8324   24507388.3204
 98  2  3  0  9 59.9990000  0  7  4 24  9  5  7  2 26
  20899266.630   -23996063.80449 -18677156.25549  20899266.9194   20899269.9944
  22693577.553   -13155170.10549  -9976897.29549  22693577.3034   22693582.1634
  21602881.606   -19834453.89649 -14921126.03449  21602881.4964   21602884.7514
  23926217.005    -7839361.41749  -4750319.33349  23926216.0554   23926221.9184
  21385044.131   -19038178.68649 -14819646.20249  21385043.5724   21385047.2224
  22353272.798   -14679564.81249 -11428748.36149  22353271.6424   22353276.6614
  24521408.829    -4889247.82649  -3081098.36649  24521409.1624   24521414.9644
 98  2  3  0 10 29.9990000  0  7  4 24  9  5  7  2 26
  20890668.109   -24041249.27849 -18712365.68849  20890668.2414   20890671.6344
  22674630.180   -13254739.23949 -10054483.62649  22674630.3004   22674635.3234
  21594053.952   -19880843.34849 -14957273.63749  21594053.3584   21594057.1294
  23910818.899    -7920278.51049  -4813371.52749  23910818.3254   23910822.1534
  21396304.959   -18979002.59149 -14773534.95949  21396304.3474   21396307.9904
  22363759.410   -14624457.08649 -11385807.30749  22363759.1624   22363763.3774
  24535443.808    -4815493.76549  -3023627.73449  24535444.0064   24535449.1874
 98  2  3  0 10 59.9990000  0  7  4 24  9  5  7  2 26
  20882171.308   -24085900.25849 -18747158.63449  20882171.4344   20882174.6864
  22655718.146   -13354122.60849 -10131925.19549  22655718.3134   22655722.8114
  21585310.875   -19926788.32649 -14993074.89449  21585310.5404   21585314.1284
  23895413.298    -8001235.45749  -4876454.77549  23895411.6914   23895417.0654
  21407591.864   -18919689.56049 -14727317.01849  21407591.2334   21407595.1994
  22374285.805   -14569140.56449 -11342703.55049  22374285.3854   22374290.2684
  24549486.938    -4741696.92349  -2966123.74349  24549487.4834   24549492.2454
 98  2  3  0 11 29.9990000  0  7  4 24  9  5  7  2 26
  20873777.068   -24130012.17049 -18781531.53049  20873777.2754   20873780.2924
  22636840.729   -13453323.90149 -10209224.88649  22636840.7114   22636845.1374
  21576655.419   -19972273.10449 -15028517.55849  21576655.3524   21576658.6824
  23880000.202    -8082231.01049  -4939568.11649  23879999.0614   23880003.5264
  21418905.631   -18860235.38349 -14680989.09549  21418905.1614   21418908.6784
  22384851.221   -14513619.04249 -11299440.05949  22384850.9104   22384855.2384
  24563539.726    -4667849.30549  -2908580.19549  24563539.5054   24563544.7784
 98  2  3  0 11 59.9990000  0  8  4 24  9  5  7  8  2 26
  20865495.091   -24173534.12749 -18815444.72549  20865495.2384   20865498.3454
  22618002.128   -13552321.15549 -10286365.59149  22618001.5434   22618007.4394
  21568093.165   -20017268.03249 -15063578.52149  21568092.7704   21568096.5014
  23864590.180    -8163210.76849  -5002669.17749  23864590.1184   23864594.0894
  21430252.804   -18800605.65049 -14634524.37749  21430252.1854   21430255.9174
  24257180.494    -3393941.18049  -2627848.70249  24257179.4344   24257184.7464
  22395463.869   -14457849.50049 -11255983.30149  22395463.7734   22395468.0864
  24577609.658    -4593911.56349  -2850966.39649  24577609.8154   24577614.9464
 98  2  3  0 12 29.9990000  0  8  4 24  9  5  7  8  2 26
  20857323.496   -24216476.24449 -18848906.09349  20857323.8554   20857326.7194
  22599203.084   -13651110.94349 -10363344.62749  22599203.2674   22599207.3994
  21559624.584   -20061770.41349 -15098255.67349  21559624.3234   21559627.5344
  23849182.089    -8244181.00649  -5065762.82749  23849181.4454   23849186.5624
  21441630.401   -18740815.92649 -14587934.98849  21441629.6394   21441633.3534
  24237435.955    -3497700.12649  -2708699.72049  24237435.5234   24237441.1884
  22406123.913   -14401830.83949 -11212332.42249  22406123.4934   22406127.4794
  24591696.742    -4519883.90049  -2793282.54649  24591697.7224   24591702.0074
 98  2  3  0 12 59.9990000  0  8  4 24  9  5  7  8  2 26
  20849261.979   -24258839.81349 -18881916.63949  20849262.2264   20849265.0944
  22580448.667   -13749666.29149 -10440140.98349  22580448.0414   22580453.1774
  21551255.033   -20105752.70349 -15132527.55949  21551255.0174   21551258.3574
  23833776.707    -8325136.56049  -5128845.02549  23833775.9504   23833781.1434
  21453037.336   -18680871.95149 -14541225.40249  21453036.9524   21453040.5274
  24217730.037    -3601255.50749  -2789392.12949  24217730.2544   24217734.7924
  22416835.445   -14345541.43449 -11168470.57549  22416834.8384   22416839.6464
  24605800.805    -4445767.26549  -2735529.37349  24605801.2784   24605806.4714
 98  2  3  0 13 29.9990000  0  8  4 24  9  5  7  8  2 26
  20841318.719   -24300581.77649 -18914442.82449  20841318.9254   20841321.8264
  22561744.009   -13847960.07549 -10516733.53149  22561744.0204   22561748.3634
  21542990.627   -20149182.74449 -15166369.12649  21542990.1584   21542993.6964
  23818381.247    -8406040.02849  -5191886.65649  23818380.7384   23818385.2964
  21464481.823   -18620730.87649 -14494362.23549  21464481.2294   21464484.9494
  24198069.344    -3704573.28349  -2869899.44849  24198068.9054   24198074.5794
  22427607.174   -14288935.78849 -11124362.30049  22427606.6514   22427611.3044
  24619924.460    -4371546.93849  -2677695.39749  24619924.5914   24619930.5084
 98  2  3  0 13 59.9990000  0  8  4 24  9  5  7  8  2 26
  20833480.432   -24341772.18149 -18946539.21649  20833480.5224   20833483.7394
  22543079.699   -13946041.69049 -10593160.74549  22543079.6914   22543083.5144
  21534821.485   -20192111.59149 -15199820.14949  21534821.3534   21534824.6774
  23802983.231    -8486957.00949  -5254938.82949  23802982.8284   23802987.1164
  21475951.853   -18560455.47649 -14447394.39849  21475951.2284   21475955.2054
  24178445.457    -3807697.02249  -2950255.51349  24178445.0314   24178450.2284
  22438430.513   -14232059.02149 -11080042.75949  22438430.2084   22438434.4644
  24634055.198    -4297289.90749  -2619832.81349  24634054.7394   24634060.9684
 98  2  3  0 14 29.9990000  0  8  4 24  9  5  7  8  2 26
  20825746.655   -24382413.29049 -18978207.58949  20825746.8354   20825749.8684
  22524463.440   -14043870.84149 -10669391.23949  22524462.6394   22524467.7524
  21526753.195   -20234510.46349 -15232858.20549  21526752.9794   21526756.1874
  23787584.233    -8567879.16449  -5317995.04049  23787583.0294   23787587.5904
  21487447.520   -18500045.51749 -14400321.70949  21487446.9204   21487450.8114
  24158866.802    -3910582.77249  -3030426.16349  24158866.2754   24158871.7044
  22449310.238   -14174885.66349 -11035492.11549  22449309.8864   22449314.1154
  24648194.395    -4222987.92549  -2561935.21049  24648195.4394   24648199.6284
 98  2  3  0 14 59.9990000  0  8  4 24  9  5  7  8  2 26
  20818113.032   -24422527.99149 -19009465.77549  20818113.2504   20818116.2634
  22505889.593   -14141476.76349 -10745447.79649  22505889.8974   22505894.1534
  21518780.028   -20276409.40949 -15265506.71149  21518779.6394   21518782.9734
  23772180.402    -8648826.55649  -5381070.91349  23772180.1724   23772184.0204
  21498963.443   -18439529.06149 -14353166.03249  21498962.8784   21498966.5554
  24139330.272    -4013247.52249  -3110424.58749  24139328.8604   24139334.4634
  22460241.579   -14117441.52549 -10990730.46449  22460241.0394   22460245.9684
  24662335.922    -4148674.35449  -2504028.57749  24662335.6304   24662341.5154
 98  2  3  0 15 29.9990000  0  8  4 24  9  5  7  8  2 26
  20810584.326   -24462091.43149 -19040294.40549  20810584.4424   20810587.6084
  22487358.948   -14238855.98549 -10821327.69249  22487358.9154   22487363.4104
  21510904.333   -20317796.47849 -15297756.35249  21510904.1814   21510907.4184
  23756773.977    -8729787.30449  -5444157.15849  23756772.9684   23756778.3634
  21510504.833   -18378878.78049 -14305906.07149  21510504.1984   21510507.8354
  24119838.770    -4115676.04649  -3190238.94549  24119837.6744   24119843.3714
  22471228.026   -14059707.41449 -10945742.86649  22471226.6934   22471232.0354
  24676483.537    -4074327.38349  -2446095.92949  24676483.0464   24676489.0534
 98  2  3  0 15 59.9990000  0  8  4 24  9  5  7  8  2 26
  20803165.838   -24501075.69949 -19070671.73349  20803166.0484   20803169.1174
  22468881.276   -14335956.72249 -10896990.58649  22468880.9374   22468885.7674
  21503133.172   -20358634.23449 -15329577.95849  21503133.0514   21503136.3134
  23741372.497    -8810723.13949  -5507223.99249  23741371.6404   23741376.8944
  21522077.660   -18318062.92349 -14258517.09449  21522076.9964   21522080.7144
  24100398.264    -4217835.88449  -3269843.94249  24100397.8724   24100402.1094
  22482277.161   -14001643.90749 -10900498.59549  22482276.5644   22482281.0884
  24690648.702    -3999888.37049  -2388091.55749  24690649.1994   24690653.7854
 98  2  3  0 16 29.9990000  0  8  4 24  9  5  7  8  2 26
  20795856.365   -24539487.17049 -19100602.72249  20795856.6584   20795859.6334
  22450452.625   -14432799.49049 -10972452.45149  22450452.5754   22450457.6204
  21495460.094   -20398956.63749 -15360997.98749  21495459.7734   21495463.2624
  23725973.438    -8891645.11349  -5570280.03049  23725972.8014   23725977.4414
  21533680.115   -18257091.85649 -14211007.16549  21533679.6844   21533683.1394
  24081000.713    -4319770.80749  -3349273.69149  24080999.5014   24081004.5704
  22493384.046   -13943277.14649 -10855018.02049  22493383.4554   22493387.7634
  24704828.321    -3925374.82849  -2330029.10249  24704828.7234   24704833.5474
 98  2  3  0 16 59.9990000  0  8  4 24  9  5  7  8  2 26
  20788674.869   -24577226.35649 -19130009.85849  20788674.9804   20788677.9874
  22432087.920   -14529306.71549 -11047652.86649  22432087.9794   22432092.0124
  21487902.278   -20438673.18549 -15391945.93049  21487902.1854   21487905.3144
  23710595.230    -8972457.72349  -5633250.83149  23710595.0674   23710599.0014
  21545332.652   -18195857.45049 -14163292.04549  21545331.8074   21545335.8464
  24061662.430    -4421393.14649  -3428459.83649  24061661.5984   24061666.4974
  22504563.617   -13884527.94649 -10809239.43549  22504563.2254   22504567.2854
  24719038.438    -3850700.12149  -2271841.08749  24719038.8554   24719044.7594
 98  2  3  0 17 29.9990000  0  8  4 24  9  5  7  8  2 26
  20781603.898   -24614384.58049 -19158964.29449  20781604.0454   20781606.9154
  22413774.181   -14625545.80249 -11122644.33449  22413774.1074   22413779.0404
  21480444.615   -20477863.44049 -15422483.77149  21480444.2784   21480447.5134
  23695223.969    -9053233.89649  -5696193.21049  23695223.7184   23695227.9304
  21557021.903   -18134429.97749 -14115426.47849  21557021.3754   21557025.1934
  24042369.472    -4522777.51249  -3507460.52749  24042368.3054   24042372.9784
  22515799.991   -13825480.66249 -10763228.57749  22515799.3864   22515804.6714
  24733264.867    -3775939.64949  -2213586.22349  24733264.0384   24733270.7354
 98  2  3  0 17 59.9990000  0  8  4 24  9  5  7  8  2 26
  20774648.292   -24650936.37949 -19187446.18849  20774648.2904   20774651.5064
  22395521.776   -14721462.64549 -11197384.70249  22395521.2734   22395526.7524
  21473092.853   -20516497.16449 -15452587.95549  21473092.6774   21473095.8274
  23679869.825    -9133920.32849  -5759065.67749  23679870.1174   23679873.5114
  21568753.071   -18072782.23149 -14067389.26949  21568752.3734   21568756.1074
  24023130.060    -4623881.33049  -3586242.61349  24023129.2444   24023133.6384
  22527096.979   -13766114.77249 -10716969.46149  22527096.4364   22527099.9714
  24747513.509    -3701063.22649  -2155241.00849  24747512.4244   24747518.0854
 98  2  3  0 18 29.9990000  0  8  4 24  9  5  7  8  2 26
  20767819.212   -24686823.43949 -19215410.10349  20767819.5284   20767822.3254
  22377338.359   -14817017.07249 -11271842.67049  22377338.8314   22377343.2844
  21465856.144   -20554526.31549 -15482221.04449  21465856.0474   21465858.9044
  23664543.249    -9214461.80349  -5821825.17749  23664543.8274   23664548.2434
  21580533.314   -18010876.65249 -14019151.15149  21580532.3884   21580536.3314
  24003954.662    -4724648.70649  -3664762.52549  24003953.6794   24003958.7154
  22538460.826   -13706397.07849 -10670436.19849  22538459.8894   22538465.4184
  24761787.257    -3626054.24549  -2096792.49849  24761787.0724   24761793.3214
 98  2  3  0 18 59.9990000  0  8  4 24  9  5  7  8  2 26
  20761114.753   -24722055.40349 -19242863.55149  20761114.6694   20761117.9664
  22359219.970   -14912229.77049 -11346034.34249  22359219.7944   22359225.0524
  21458732.654   -20591960.44249 -15511390.47649  21458732.4394   21458735.4274
  23649241.898    -9294870.57049  -5884481.27549  23649241.1614   23649246.8174
  21592357.046   -17948742.53049 -13970734.94749  21592356.5034   21592360.2904
  23984843.350    -4825078.49249  -3743019.37749  23984842.7494   23984847.2434
  22549885.465   -13646360.20749 -10623654.23249  22549884.3804   22549889.4584
  24776079.222    -3550949.02549  -2038269.01249  24776080.2474   24776084.1394
 98  2  3  0 19 29.9990000  0  8  4 24  9  5  7  8  2 26
  20754536.502   -24756624.24049 -19269800.27749  20754536.6534   20754539.7704
  22341164.955   -15007109.33049 -11419966.43049  22341164.7044   22341169.5734
  21451720.712   -20628808.19649 -15540103.00049  21451720.5634   21451723.8434
  23633963.610    -9375158.62349  -5947043.29849  23633962.7484   23633967.2324
  21604220.869   -17886397.82249 -13922154.65449  21604220.4294   21604223.9904
  23965794.528    -4925180.45149  -3821020.76849  23965794.1464   23965798.5334
  22561370.707   -13586005.04849 -10576624.24549  22561369.4294   22561374.1364
  24790387.432    -3475758.86249  -1979679.25249  24790387.7824   24790393.4264
 98  2  3  0 19 59.9990000  0  8  4 24  9  5  7  8  2 26
  20748095.936   -24790469.52149 -19296173.19549  20748096.0924   20748099.0064
  22323178.548   -15101628.31049 -11493617.53849  22323178.3254   22323183.9004
  21444828.748   -20665025.48649 -15568324.25349  21444828.7544   21444831.5934
  23618713.100    -9455300.37749  -6009491.33849  23618712.3364   23618716.1204
  21616129.894   -17823815.35249 -13873389.09349  21616129.2054   21616132.8174
  23946815.455    -5024915.74149  -3898736.45549  23946814.2254   23946818.3524
  22572925.147   -13525285.84149 -10529310.60149  22572924.7194   22572928.8784
  24804716.684    -3400457.72049  -1921003.08949  24804717.9814   24804723.2474
 98  2  3  0 20 29.9990000  0  8  4 24  9  5  7  8  2 26
  20741796.634   -24823572.40949 -19321967.62049  20741796.7934   20741799.7374
  22305259.877   -15195791.34049 -11566991.27449  22305259.3404   22305264.5974
  21438059.303   -20700599.21649 -15596044.03149  21438059.2604   21438062.2884
  23603487.707    -9535310.10449  -6071836.51549  23603486.8064   23603491.4604
  21628084.981   -17760990.67949 -13824434.80849  21628084.1194   21628088.0744
  23927906.080    -5124284.56749  -3976166.58749  23927905.7464   23927909.5334
  22584552.239   -13464184.97149 -10481699.54649  22584551.7204   22584556.2804
  24819068.052    -3325041.21649  -1862237.03749  24819068.1474   24819074.3614
 98  2  3  0 20 59.9990000  0  8  4 24  9  5  7  8  2 26
  20735629.741   -24855979.57949 -19347219.92949  20735629.9724   20735632.8134
  22287402.478   -15289632.53049 -11640114.23449  22287402.0834   22287407.0714
  21431405.766   -20735563.73349 -15623289.09249  21431405.6374   21431408.7954
  23588276.915    -9615242.81449  -6134121.65149  23588276.7464   23588281.1204
  21640079.887   -17697956.46449 -13775317.24449  21640079.0254   21640083.0374
  23909059.083    -5223325.53249  -4053341.22349  23909057.9444   23909063.1214
  22596245.531   -13402736.67949 -10433817.77149  22596245.3354   22596249.2124
  24833438.776    -3249522.71749  -1803391.48249  24833438.3084   24833444.7264
 98  2  3  0 21 29.9990000  0  8  4 24  9  5  7  8  2 26
  20729613.100   -24887597.18749 -19371856.99949  20729613.1074   20729615.9584
  22269628.008   -15383037.85949 -11712897.55949  22269627.6884   22269632.2634
  21424888.848   -20769810.37149 -15649974.77949  21424888.7784   21424891.9164
  23573098.404    -9695006.59549  -6196275.19549  23573097.5344   23573102.2464
  21652134.082   -17634610.77649 -13725956.97149  21652133.2904   21652137.2644
  23890293.255    -5321940.55849  -4130183.99349  23890292.4054   23890297.5304
  22608027.840   -13340820.33449 -10385571.29649  22608027.2984   22608031.6734
  24847853.150    -3173775.14049  -1744367.44649  24847853.2594   24847859.8994
 98  2  3  0 21 59.9990000  0  8  4 24  9  5  7  8  2 26
  20723739.613   -24918462.21749 -19395907.64149  20723739.7834   20723742.8384
  22251934.767   -15476016.30949 -11785348.25249  22251934.2074   22251939.3364
  21418504.223   -20803361.61549 -15676118.59149  21418504.2184   21418507.3414
  23557948.846    -9774617.59349  -6258309.70549  23557947.7324   23557953.1384
  21664241.880   -17570983.82349 -13676377.53449  21664241.4284   21664245.0954
  23871603.607    -5420153.89149  -4206713.73849  23871602.2344   23871606.6664
  22619892.859   -13278469.51449 -10336986.26949  22619892.4244   22619896.7134
  24862307.208    -3097818.75149  -1685180.68449  24862306.7334   24862312.4704
 98  2  3  0 22 29.9990000  0  8  4 24  9  5  7  8  2 26
  20718004.602   -24948599.73849 -19419391.39649  20718004.5444   20718007.4684
  22234320.807   -15568578.24349 -11857474.39749  22234320.6504   22234325.8064
  21412249.890   -20836228.25149 -15701728.94149  21412249.9484   21412252.7934
  23542828.744    -9854074.14549  -6320223.86249  23542828.4194   23542832.6194
  21676401.124   -17507086.54149 -13626587.45649  21676400.6504   21676404.6164
  23852988.951    -5517973.72449  -4282936.89349  23852988.5404   23852992.0504
  22631835.903   -13215708.47849 -10288081.58149  22631835.4664   22631838.8774
  24876799.460    -3021661.57049  -1625837.47849  24876799.9604   24876806.0754
 98  2  3  0 22 59.9990000  0  8  4 24  9  5  7  8  2 26
  20712406.971   -24978015.28449 -19442312.57649  20712407.2694   20712410.2264
  22216786.320   -15660722.31449 -11929274.93049  22216786.2694   22216790.7194
  21406123.290   -20868423.79949 -15726816.37049  21406122.9994   21406125.9924
  23527738.009    -9933376.48949  -6382017.86649  23527737.6464   23527742.0574
  21688610.293   -17442926.97549 -13576593.00149  21688609.7584   21688613.7064
  23834450.298    -5615394.48249  -4358849.06549  23834449.0744   23834453.9914
  22643854.829   -13152548.94449 -10238866.38149  22643853.9964   22643858.9344
  24891326.285    -2945322.56549  -1566352.58249  24891326.3734   24891332.8594
 98  2  3  0 23 29.9990000  0  8  4 24  9  5  7  8  2 26
  20706932.185   -25006785.57149 -19464730.95749  20706932.3994   20706935.3404
  22199319.977   -15752508.35149 -12000796.47449  22199319.4914   22199324.6704
  21400108.185   -20900033.22649 -15751447.07549  21400107.9944   21400111.0754
  23512664.035   -10012590.28049  -6443742.87249  23512664.5314   23512668.0754
  21700854.814   -17378582.04149 -13526454.09849  21700854.5414   21700858.0514
  23815973.612    -5712490.04149  -4434507.86349  23815973.3154   23815976.1544
  22655937.157   -13089055.41949 -10189390.93649  22655936.3524   22655941.0194
  24905867.309    -2868908.92549  -1506809.53249  24905867.4474   24905872.0404
 98  2  3  0 23 59.9990000  0  8  4 24  9  5  7  8  2 26
  20701606.099   -25034774.10949 -19486540.19049  20701606.4364   20701609.2114
  22181950.269   -15843786.46149 -12071922.23849  22181950.0854   22181955.1334
  21394231.246   -20930916.71049 -15775512.11149  21394231.3724   21394234.3134
  23497635.572   -10091565.41249  -6505281.90649  23497635.2164   23497639.1914
  21713164.043   -17313896.86649 -13476050.07649  21713163.7804   21713167.5634
  23797587.718    -5809108.32749  -4509794.78549  23797586.7144   23797591.3664
  22668111.699   -13025077.72149 -10139538.21549  22668111.4634   22668115.8984
  24920444.162    -2792307.24949  -1447119.95749  24920443.7164   24920450.7564
 98  2  3  0 24 29.9990000  0  8  4 24  9  5  7  8  2 26
  20696404.085   -25062110.96149 -19507841.61349  20696404.2274   20696407.3824
  22164652.916   -15934684.72949 -12142752.01149  22164652.7804   22164657.5204
  21388467.839   -20961203.64349 -15799112.30649  21388467.8024   21388470.7374
  23482625.905   -10170441.87749  -6566744.06449  23482625.2674   23482629.7774
  21725513.887   -17248998.34049 -13425479.79849  21725513.4904   21725517.2974
  23779271.233    -5905361.49449  -4584797.19449  23779270.0544   23779275.4304
  22680358.078   -12960722.66249 -10089391.44449  22680357.7454   22680362.4104
  24935028.558    -2715665.79149  -1387399.39449  24935029.3684   24935033.4614
 98  2  3  0 24 59.9990000  0  8  4 24  9  5  7  8  2 26
  20691332.279   -25088763.50649 -19528609.80849  20691332.4594   20691335.3214
  22147436.709   -16025156.35249 -12213249.34049  22147436.4494   22147441.2824
  21382825.953   -20990851.94449 -15822214.85949  21382825.6784   21382828.8734
  23467640.993   -10249187.41549  -6628104.20049  23467640.8004   23467644.7434
  21737910.792   -17183852.28449 -13374716.63349  21737910.2684   21737914.0064
  23761030.974    -6001214.26849  -4659487.60749  23761030.7714   23761035.1124
  22692686.479   -12895936.78149 -10038908.95649  22692685.3314   22692690.6324
  24949624.429    -2638964.73249  -1327632.40049  24949624.1654   24949629.2784
 98  2  3  0 25 30.0000000  0  7  4 24  9  5  7  8  2
  20686398.770   -25114689.16149 -19548811.60049  20686398.8344   20686401.8464
  22130310.309   -16115155.76649 -12283378.70749  22130309.6954   22130314.8154
  21377318.002   -21019796.21449 -15844768.81949  21377317.7414   21377321.0324
  23452692.571   -10327742.35949  -6689315.80049  23452691.7094   23452695.9554
  21750365.359   -17118403.01949 -13323717.20349  21750364.4864   21750368.6954
  23742875.467    -6096622.13349  -4733831.36649  23742874.9804   23742879.8264
  22705107.944   -12830661.81649  -9988045.38649  22705106.8724   22705112.1204
 98  2  3  0 26  0.0000000  0  7  4 24  9  5  7  8  2
  20681600.872   -25139902.32249 -19568458.20549  20681600.8964   20681603.9474
  22113264.976   -16204729.43249 -12353176.32949  22113265.1754   22113269.6504
  21371940.691   -21048054.05649 -15866787.90549  21371940.5434   21371943.5794
  23437776.094   -10406128.47349  -6750395.83849  23437775.3564   23437780.1914
  21762869.588   -17052692.67949 -13272514.34049  21762868.9794   21762873.1154
  23724800.730    -6191604.93849  -4807843.87749  23724800.0434   23724804.7044
  22717612.538   -12764949.64849  -9936841.12749  22717612.4744   22717616.2924
 98  2  3  0 26 30.0000000  0  7  4 24  9  5  7  8  2
  20676929.085   -25164452.59249 -19587588.26449  20676928.9904   20676932.1664
  22096286.135   -16293953.61149 -12422701.62149  22096285.9804   22096291.4524
  21366682.714   -21075684.86549 -15888318.39149  21366682.3644   21366685.4394
  23422880.893   -10484403.30349  -6811389.16549  23422880.4974   23422885.0964
  21775408.334   -16986801.18849 -13221170.31649  21775407.6494   21775411.7084
  23706793.877    -6286230.65649  -4881578.17149  23706793.7284   23706798.4484
  22730184.672   -12698882.83249  -9885360.52549  22730183.4614   22730188.5604
 98  2  3  0 27  0.0000000  0  7  4 24  9  5  7  8  2
  20672400.535   -25188249.91849 -19606131.61349  20672400.4754   20672403.5774
  22079390.290   -16382741.75049 -12491887.14649  22079389.8564   22079394.4944
  21361559.078   -21102609.61349 -15909298.70149  21361558.9704   21361562.1064
  23408025.756   -10562467.11349  -6872218.04249  23408024.8824   23408029.4234
  21787996.736   -16920648.84549 -13169623.03249  21787996.1744   21787999.5674
  23688867.745    -6380432.86349  -4954982.44749  23688866.2294   23688871.5774
  22742834.678   -12632406.59349  -9833560.90049  22742834.5834   22742838.5904
 98  2  3  0 27 30.0000000  0  7  4 24  9  5  7  8  2
  20668016.222   -25211289.55449 -19624084.55449  20668016.3704   20668019.3414
  22062577.592   -16471092.85249 -12560732.11449  22062577.4654   22062582.1714
  21356566.688   -21128844.84249 -15929741.72949  21356566.5874   21356569.6694
  23393210.060   -10640323.73549  -6932885.46849  23393209.9184   23393214.1504
  21800632.233   -16854248.73849 -13117882.67749  21800631.5274   21800635.3524
  23671022.309    -6474211.19049  -5028056.42449  23671022.0124   23671026.6154
  22755558.738   -12565541.20449  -9781458.02949  22755558.4654   22755562.5594
 98  2  3  0 28  0.0000000  0  7  4 24  9  5  7  8  2
  20663771.163   -25233597.43149 -19641467.29149  20663771.3694   20663774.2274
  22045842.900   -16559034.20749 -12629257.80049  22045842.4214   22045847.7524
  21351699.498   -21154421.99949 -15949671.97349  21351699.3664   21351702.5404
  23378426.524   -10718011.26949  -6993421.14149  23378425.5334   23378430.2824
  21813308.487   -16787634.63349 -13065975.57349  21813308.1014   21813311.4674
  23653253.141    -6567588.20549  -5100817.68049  23653252.0544   23653256.9544
  22768351.089   -12498317.15249  -9729075.67549  22768350.2194   22768355.1694
 98  2  3  0 28 30.0000000  0  7  4 24  9  5  7  8  2
  20659669.127   -25255153.84349 -19658264.47349  20659669.2794   20659671.9244
  22029194.939   -16646519.55749 -12697428.15949  22029194.8564   22029199.4174
  21346962.288   -21179316.03149 -15969069.91649  21346962.0764   21346965.2174
  23363676.968   -10795520.46849  -7053817.83849  23363676.4634   23363680.7794
  21826030.598   -16720779.49949 -13013880.65949  21826029.9144   21826033.6524
  23635567.141    -6660527.83649  -5173238.11549  23635566.8184   23635571.8214
  22781218.957   -12430696.21749  -9676384.06449  22781218.3314   22781223.7804
 98  2  3  0 29  0.0000000  0  7  4 24  9  5  7  8  2
  20655700.268   -25276010.05249 -19674516.03849  20655700.2364   20655703.1694
  22012625.324   -16733593.45249 -12765277.89949  22012624.9074   22012629.7624
  21342344.872   -21203580.54449 -15987977.32149  21342344.4024   21342347.7824
  23348949.854   -10872911.76649  -7114122.68049  23348948.8294   23348953.1594
  21838791.163   -16653722.20349 -12961628.21949  21838790.5204   21838794.3774
  23617956.852    -6753069.78049  -5245348.64149  23617956.1094   23617960.5654
  22794155.706   -12362713.43349  -9623410.47949  22794156.4144   22794159.3324
 98  2  3  0 29 30.0000000  0  7  4 24  9  5  7  8  2
  20651871.675   -25296129.28449 -19690193.34049  20651871.6774   20651874.5574
  21996138.377   -16820233.08449 -12832789.25749  21996138.0314   21996142.5354
  21337856.678   -21227165.85949 -16006355.48949  21337856.7494   21337859.8494
  23334247.963   -10950170.10249  -7174323.89249  23334248.1464   23334251.2454
  21851597.117   -16586426.47649 -12909189.98949  21851596.5154   21851600.2144
  23600432.086    -6845163.31449  -5317109.78149  23600432.5214   23600436.8094
  22807170.071   -12294322.53449  -9570118.90549  22807169.8354   22807173.5394
 98  2  3  0 30  0.0000000  0  7  4 24  9  5  7  8  2
  20648171.079   -25315575.95749 -19705346.56649  20648171.3984   20648174.0044
  21979722.470   -16906499.15549 -12900009.52149  21979722.2954   21979726.7754
  21333487.280   -21250127.26649 -16024247.48749  21333487.3944   21333490.2654
  23319558.127   -11027365.63649  -7234476.17449  23319557.3564   23319561.3084
  21864438.289   -16518945.38949 -12856607.32549  21864437.7354   21864441.4914
  23582981.152    -6936868.38149  -5388568.18649  23582980.9424   23582984.8794
  22820250.327   -12225585.52549  -9516557.62049  22820249.3604   22820254.6844
 98  2  3  0 30 30.0000000  0  7  4 24  9  5  7  8  2
  20644614.066   -25334268.21849 -19719911.94649  20644614.3914   20644617.1114
  21963395.788   -16992296.51649 -12966864.55749  21963395.5084   21963399.7244
  21329249.041   -21272399.51849 -16041602.48149  21329249.0784   21329252.0294
  23304895.228   -11104419.35249  -7294517.93949  23304894.6874   23304898.6284
  21877329.538   -16451201.20449 -12803819.64849  21877329.0804   21877332.7694
  23565619.804    -7028103.25049  -5459660.22349  23565618.8524   23565624.9834
  22833411.070   -12156424.97449  -9462666.31049  22833410.3994   22833415.3294
 98  2  3  0 31  0.0000000  0  7  4 24  9  5  7  8  2
  20641192.541   -25352248.22349 -19733922.31749  20641192.6504   20641195.4324
  21947151.294   -17077661.26949 -13033382.49049  21947151.0734   21947155.4734
  21325136.242   -21294012.45349 -16058443.71849  21325136.3154   21325139.2044
  23290256.811   -11181344.54749  -7354459.57249  23290256.3614   23290260.5254
  21890263.734   -16383231.80649 -12750856.48649  21890262.8164   21890266.7124
  23548338.284    -7118917.71149  -5530424.64049  23548337.8854   23548342.2654
  22846646.242   -12086873.61749  -9408470.46849  22846644.8274   22846650.4044
 98  2  3  0 31 30.0000000  0  7  4 24  9  5  7  8  2
  20637905.235   -25369523.02149 -19747383.17649  20637905.2454   20637908.1374
  21930990.620   -17162585.69849 -13099557.31549  21930990.3114   21930994.8894
  21321148.294   -21314969.02549 -16074773.50549  21321147.8174   21321151.1564
  23275642.468   -11258143.45349  -7414302.79749  23275641.5094   23275645.9734
  21903237.522   -16315054.06149 -12697730.96849  21903237.1744   21903240.7844
  23531133.446    -7209329.57749  -5600875.36249  23531133.0964   23531137.2724
  22859954.676   -12016937.22349  -9353974.60849  22859954.2034   22859958.6434
 98  2  3  0 32  0.0000000  0  7  4 24  9  5  7  8  2
  20634755.663   -25386073.95849 -19760279.99349  20634755.7464   20634758.5904
  21914920.592   -17247033.92249 -13165361.07249  21914920.4464   21914925.2164
  21317287.412   -21335257.80249 -16090582.94049  21317287.3294   21317290.2804
  23261058.712   -11334781.30549  -7474020.53449  23261057.9554   23261061.9934
  21916255.210   -16246645.69649 -12644425.75949  21916254.5534   21916258.4354
  23514009.379    -7299317.00349  -5670995.33849  23514008.1114   23514013.2814
  22873341.860   -11946587.26349  -9299156.47749  22873341.7054   22873345.9084
 98  2  3  0 32 30.0000000  0  7  4 24  9  5  7  8  2
  20631741.483   -25401913.17949 -19772622.21649  20631741.6924   20631744.4964
  21898935.492   -17331035.99049 -13230817.16649  21898935.2434   21898939.7434
  21313552.954   -21354882.28249 -16105874.73249  21313552.8144   21313555.9104
  23246506.734   -11411251.84849  -7533607.90249  23246506.1794   23246510.5544
  21929313.206   -16178025.50849 -12590955.48449  21929312.1634   21929316.2244
  23496963.342    -7388894.53949  -5740795.95049  23496963.2314   23496967.1524
  22886805.843   -11875833.63249  -9244023.78449  22886805.4144   22886810.2244
 98  2  3  0 33  0.0000000  0  7  4 24  9  5  7  8  2
  20628870.176   -25417001.93549 -19784379.67149  20628870.3704   20628873.2514
  21883040.745   -17414563.22549 -13295903.26549  21883040.4864   21883044.7814
  21309956.944   -21373779.64449 -16120599.94749  21309956.8044   21309960.0134
  23231994.053   -11487515.89149  -7593034.37449  23231993.2564   23231996.4644
  21942420.313   -16109147.27149 -12537284.14349  21942419.7794   21942423.2444
  23480000.526    -7478034.09449  -5810255.25149  23480000.1044   23480004.7464
  22900350.604   -11804655.42949  -9188560.27149  22900349.7084   22900354.4814
 98  2  3  0 33 30.0000000  0  7  4 24  9  5  7  8  2
  20626132.802   -25431386.94649 -19795588.74949  20626132.8754   20626135.8074
  21867225.928   -17497670.51249 -13360662.12949  21867225.4154   21867230.3074
  21306486.034   -21392019.44449 -16134812.76949  21306485.8374   21306489.1544
  23217509.820   -11563630.59549  -7652344.48649  23217508.9334   23217513.4874
  21955568.380   -16040053.78249 -12483445.06549  21955567.8374   21955571.5214
  23463114.194    -7566772.35949  -5879401.88649  23463114.1744   23463117.3884
  22913963.317   -11733120.09149  -9132818.48649  22913962.8944   22913967.4574
 98  2  3  0 34  0.0000000  0  7  4 24  9  5  7  8  2
  20623549.090   -25444964.40249 -19806168.56949  20623549.2944   20623552.2104
  21851507.072   -17580273.25549 -13425027.84849  21851506.3074   21851511.6524
  21303160.480   -21409495.30649 -16148430.32049  21303160.1794   21303163.4244
  23203074.585   -11639487.75049  -7711453.91349  23203074.4364   23203078.4364
  21968779.142   -15970630.83249 -12429349.27049  21968778.6714   21968782.3734
  23446326.318    -7654993.29149  -5948145.40449  23446325.5274   23446329.7434
  22927662.915   -11661128.42249  -9076721.10149  22927662.3604   22927667.0524
 98  2  3  0 34 30.0000000  0  7  4 24  9  5  7  8  2
  20621109.280   -25457785.78249 -19816159.22849  20621109.2834   20621112.3944
  21835875.915   -17662415.30949 -13489034.57649  21835875.7584   21835880.1234
  21299970.571   -21426258.52849 -16161492.55449  21299970.2674   21299973.5524
  23188679.427   -11715134.90149  -7770399.70049  23188678.2824   23188682.9204
  21982044.383   -15900921.07849 -12375029.97949  21982043.7384   21982047.9064
  23429626.856    -7742749.33749  -6016526.67449  23429626.1274   23429630.9154
  22941438.296   -11588738.68049  -9020313.51549  22941438.0334   22941442.1044
 98  2  3  0 35  0.0000000  0  7  4 24  9  5  7  8  2
  20618813.930   -25469847.66649 -19825558.07649  20618813.9824   20618816.8654
  21820339.132   -17744061.29149 -13552654.75649  21820338.5944   21820343.2784
  21296912.263   -21442330.22049 -16174015.94049  21296912.0554   21296915.0184
  23174323.575   -11790575.11149  -7829184.24649  23174323.6804   23174327.3724
  21995363.911   -15830926.58649 -12320488.81949  21995363.0374   21995367.0914
  23413020.262    -7830017.45649  -6084527.75549  23413020.4134   23413023.4534
  22955293.042   -11515931.26549  -8963580.49549  22955292.4324   22955297.7034
 98  2  3  0 35 30.0000000  0  7  4 24  9  5  7  8  2
  20616661.603   -25481158.14849 -19834371.41949  20616661.6824   20616664.7224
  21804895.534   -17825217.24949 -13615893.11149  21804894.6964   21804900.2274
  21293981.447   -21457731.71849 -16186017.09649  21293981.2844   21293984.3514
  23160007.751   -11865805.50749  -7887805.30849  23160006.8814   23160011.7914
  22008734.533   -15760663.51149 -12265738.37549  22008733.9614   22008737.8374
  23396511.285    -7916772.77749  -6152129.24249  23396510.3634   23396516.4274
  22969230.522   -11442689.55549  -8906509.06049  22969230.2034   22969234.5684
 98  2  3  0 36  0.0000000  0  7  4 24  9  5  7  8  2
  20614651.864   -25491719.01449 -19842600.64149  20614651.9634   20614654.9334
  21789547.016   -17905873.77349 -13678742.28449  21789546.5814   21789551.4954
  21291180.558   -21472450.54949 -16197486.30449  21291180.4724   21291183.6114
  23145730.315   -11940833.63649  -7946268.75949  23145729.7454   23145733.2444
  22022152.543   -15690151.39149 -12210793.86049  22022151.7124   22022155.6504
  23380099.553    -8003017.05049  -6219332.52549  23380099.5744   23380103.1864
  22983250.930   -11369011.78849  -8849097.82849  22983250.3274   22983255.8604
 98  2  3  0 36 30.0000000  0  7  4 24  9  5  7  8  2
  20612777.537   -25501568.47249 -19850275.52249  20612777.7814   20612780.6334
  21774291.311   -17986042.65449 -13741211.47649  21774290.7424   21774295.7334
  21288503.769   -21486517.06949 -16208447.21449  21288503.6864   21288506.6784
  23131485.434   -12015690.78549  -8004598.97249  23131484.2674   23131488.8244
  22035607.694   -15619444.29249 -12155697.41649  22035606.9674   22035610.7324
  23363778.527    -8088784.65149  -6286164.37549  23363778.2434   23363781.5994
  22997348.185   -11294929.73449  -8791371.58049  22997347.4684   22997352.8274
 98  2  3  0 37  0.0000000  0  7  4 24  9  5  7  8  2
  20611037.304   -25510713.52849 -19857401.51449  20611037.3664   20611040.1954
  21759123.783   -18065748.33049 -13803319.73049  21759123.4624   21759128.0854
  21285952.006   -21499926.48849 -16218896.09949  21285951.8224   21285954.9474
  23117270.087   -12090392.81849  -8062808.29849  23117269.6974   23117274.1304
  22049093.195   -15548577.57149 -12100476.58649  22049092.5914   22049096.0584
  23347546.491    -8174084.30849  -6352631.59649  23347546.9404   23347550.9074
  23011520.466   -11220454.37149  -8733338.84449  23011519.7364   23011524.4584
 98  2  3  0 37 30.0000000  0  7  4 24  9  5  7  8  2
  20609442.582   -25519093.36149 -19863931.23449  20609442.6204   20609445.3814
  21744049.620   -18144963.47449 -13865045.75449  21744049.2984   21744054.2424
  21283539.090   -21512606.46149 -16228776.58649  21283538.8834   21283542.1204
  23103093.454   -12164891.64349  -8120859.29349  23103092.4524   23103096.1404
  22062618.170   -15477502.80249 -12045093.65049  22062617.5784   22062621.1274
  23331409.084    -8258886.57349  -6418711.22649  23331408.7224   23331412.4864
  23025771.657   -11145563.60749  -8674982.42549  23025771.1504   23025776.0074
 98  2  3  0 38  0.0000000  0  7  4 24  9  5  7  8  2
  20607990.500   -25526724.09949 -19869877.24349  20607990.6354   20607993.4644
  21729066.382   -18223700.92349 -13926399.54149  21729066.2704   21729070.8004
  21281262.627   -21524569.27149 -16238098.24449  21281262.6484   21281265.7174
  23088949.818   -12239216.88649  -8178775.01449  23088949.1134   23088952.8204
  22076177.092   -15406250.47949 -11989572.35449  22076176.8914   22076180.3284
  23315358.057    -8343234.80649  -6484437.07549  23315357.2644   23315361.4084
  23040097.099   -11070282.81049  -8616322.08849  23040097.0334   23040101.1794
 98  2  3  0 38 30.0000000  0  7  4 24  9  5  7  8  2
  20606680.809   -25533606.58549 -19875240.20349  20606681.1124   20606683.7864
  21714173.094   -18301965.44749 -13987384.82049  21714172.8814   21714176.9154
  21279121.576   -21535820.51449 -16246865.43849  21279121.4414   21279124.6224
  23074841.978   -12313353.91749  -8236544.07249  23074841.9294   23074844.7634
  22089770.705   -15334815.25949 -11933908.54549  22089769.9014   22089774.0174
  23299393.478    -8427129.08749  -6549809.18449  23299393.0464   23299396.4044
  23054496.716   -10994612.60749  -8557358.30949  23054497.0844   23054500.7574
 98  2  3  0 39  0.0000000  0  7  4 24  9  5  7  8  2
  20605518.998   -25539711.97949 -19879997.63949  20605519.2064   20605521.9934
  21699372.166   -18379744.52849 -14047991.83149  21699371.8874   21699376.1934
  21277117.601   -21546351.56249 -16255071.44349  21277117.5684   21277120.5384
  23060772.584   -12387288.66149  -8294155.49449  23060771.9204   23060775.8874
  22103407.348   -15263154.24349 -11878068.79049  22103406.6204   22103410.7894
  23283520.584    -8510541.84249  -6614806.08449  23283520.7744   23283524.4154
  23068971.127   -10918549.27249  -8498088.19849  23068971.1244   23068975.5304
 98  2  3  0 39 30.0000000  0  7  4 24  9  5  7  8  2
  20604501.519   -25545058.52149 -19884163.75149  20604501.5304   20604504.6674
  21684664.303   -18457034.44249 -14108217.66349  21684663.6804   21684668.4524
  21275245.399   -21556190.08749 -16262737.81049  21275245.2144   21275248.3434
  23046739.216   -12461034.47849  -8351619.68349  23046739.2344   23046742.5774
  22117087.260   -15191265.67049 -11822051.71649  22117086.8094   22117090.2384
  23267739.870    -8593469.92849  -6679425.29849  23267738.9504   23267742.7894
  23083518.130   -10842104.34249  -8438520.73449  23083517.1444   23083522.0674
 98  2  3  0 40  0.0000000  0  7  4 24  9  5  7  8  2
  20603626.267   -25549657.91249 -19887747.68349  20603626.4364   20603629.4344
  21670053.989   -18533811.76049 -14168044.08149  21670053.8044   21670058.1914
  21273505.944   -21565330.76149 -16269860.41049  21273505.5494   21273508.5954
  23032744.647   -12534576.43049  -8408925.01349  23032743.5734   23032747.9674
  22130815.250   -15119124.36549 -11765837.71549  22130814.6064   22130818.6114
  23252056.543    -8675885.74749  -6743645.33949  23252055.2174   23252060.1134
  23098143.110   -10765249.82349  -8378634.10949  23098141.9494   23098147.5294
 98  2  3  0 40 30.0000000  0  7  4 24  9  5  7  8  2
  20602891.315   -25553519.94449 -19890757.04349  20602891.5554   20602894.5114
  21655540.018   -18610083.03349 -14227476.17349  21655539.7424   21655544.2684
  21271898.010   -21573780.04849 -16276444.26249  21271897.7324   21271900.7434
  23018789.569   -12607910.46749  -8466068.32549  23018789.2244   23018793.1434
  22144593.336   -15046719.99249 -11709418.71149  22144592.6774   22144596.1634
  23236472.658    -8757779.17149  -6807458.31349  23236472.1254   23236475.9834
  23112844.465   -10687993.35449  -8318434.29349  23112843.7114   23112848.6154
 98  2  3  0 41  0.0000000  0  7  4 24  9  5  7  8  2
  20602295.548   -25556650.57649 -19893196.48149  20602295.7774   20602298.5244
  21641122.171   -18685849.20849 -14286514.68149  21641121.5534   21641125.7374
  21270421.349   -21581539.68049 -16282490.71649  21270421.2244   21270424.1494
  23004869.942   -12681058.04849  -8523066.34049  23004868.8714   23004872.8604
  22158419.092   -14974064.96749 -11652804.40249  22158418.2364   22158422.2984
  23220988.601    -8839148.10449  -6870862.58649  23220988.0844   23220992.9314
  23127622.860   -10610332.43549  -8257919.29449  23127622.0704   23127627.3184
 98  2  3  0 41 30.0000000  0  7  4 24  9  5  7  8  2
  20601839.774   -25559045.76249 -19895062.84449  20601839.9134   20601842.6434
  21626803.265   -18761095.20649 -14345147.85749  21626803.0164   21626807.3104
  21269079.797   -21588589.38349 -16287983.98349  21269079.7134   21269082.7024
  22990988.557   -12754004.79149  -8579907.86149  22990987.4014   22990993.0054
  22172291.069   -14901166.97949 -11596000.76949  22172290.0234   22172294.1754
  23205605.006    -8919989.20749  -6933855.56349  23205603.8754   23205608.1124
  23142484.333   -10532234.86849  -8197064.07349  23142482.9324   23142488.6374
 98  2  3  0 42  0.0000000  0  7  4 24  9  5  7  8  2
  20601517.463   -25560739.41149 -19896382.55649  20601517.6964   20601520.3544
  21612576.122   -18835858.96449 -14403405.26449  21612575.9454   21612579.9254
  21267867.435   -21594960.47749 -16292948.46449  21267867.2924   21267870.3824
  22977139.220   -12826782.66849  -8636617.80849  22977138.1284   22977141.9054
  22186201.907   -14828065.20949 -11539038.34549  22186200.9034   22186204.6134
  23190310.556    -9000361.69449  -6996483.38449  23190309.5134   23190313.6724
  23157421.218   -10453740.73649  -8135899.84049  23157421.7414   23157425.8274
 98  2  3  0 42 30.0000000  0  7  4 24  9  5  7  8  2
  20601333.315   -25561706.94249 -19897136.46249  20601333.5044   20601336.3014
  21598441.837   -18910134.83749 -14461282.50149  21598441.6604   21598445.5994
  21266785.359   -21600646.74749 -16297379.31449  21266785.2514   21266788.3434
  22963321.004   -12899397.48449  -8693200.68849  22963320.3944   22963324.2334
  22200148.344   -14754776.41449 -11481930.18649  22200147.7284   22200151.4854
  23175106.799    -9080257.18049  -7058739.51049  23175106.7374   23175109.7164
  23172432.678   -10374855.30249  -8074430.67249  23172431.8094   23172436.1484
 98  2  3  0 43  0.0000000  0  7  4 24  9  5  7  8  2
  20601285.578   -25561957.72749 -19897331.86149  20601285.6274   20601288.5624
  21584399.398   -18983928.08949 -14518783.67049  21584399.0514   21584403.3804
  21265830.958   -21605662.36149 -16301287.57149  21265830.8624   21265833.6324
  22949529.729   -12971870.91049  -8749673.40049  22949528.5324   22949532.4084
  22214126.321   -14681321.44049 -11424692.54049  22214125.7314   22214129.5314
  23159991.480    -9159688.43849  -7120633.91649  23159990.5424   23159994.5334
  23187515.236   -10295595.33049  -8012669.69249  23187514.2484   23187518.4264
 98  2  3  0 43 30.0000000  0  7  4 24  9  5  7  8  2
  20601376.932   -25561477.65049 -19896957.75649  20601376.9444   20601379.9684
  21570450.010   -19057232.14649 -14575903.65449  21570449.7684   21570453.6524
  21265007.289   -21609990.74149 -16304660.32049  21265007.1224   21265010.1784
  22935771.034   -13044172.80649  -8806012.45849  22935770.2474   22935774.3154
  22228140.914   -14607674.53549 -11367305.33049  22228140.5784   22228144.2674
  23144967.939    -9238637.62649  -7182152.67349  23144967.1334   23144970.2454
  23202670.537   -10215953.93149  -7950611.48049  23202669.5664   23202674.6284
 98  2  3  0 44  0.0000000  0  7  4 24  9  5  7  8  2
  20601610.996   -25560247.46549 -19895999.15949  20601611.2014   20601614.0144
  21556596.496   -19130032.68549 -14632631.29249  21556596.1194   21556600.4294
  21264317.173   -21613617.42149 -16307486.29649  21264317.0904   21264319.8224
  22922049.495   -13116279.72949  -8862199.60349  22922048.7164   22922052.7484
  22242196.319   -14533812.94549 -11309750.84949  22242195.6584   22242199.4894
  23130043.996    -9317063.32349  -7243263.52049  23130043.6444   23130048.6194
  23217901.196   -10135916.13049  -7888244.38849  23217900.9424   23217905.8514
 98  2  3  0 44 30.0000000  0  7  4 24  9  5  7  8  2
  20601992.222   -25558244.04749 -19894438.03049  20601992.4474   20601995.3224
  21542843.832   -19202303.25549 -14688945.96849  21542843.2604   21542847.6684
  21263764.323   -21616522.68149 -16309750.12149  21263763.9434   21263767.2494
  22908369.277   -13188169.71349  -8918217.71649  22908368.7364   22908372.3014
  22256294.910   -14459724.34549 -11252019.45649  22256294.0284   22256297.6124
  23115227.193    -9394925.41749  -7303935.19449  23115225.9824   23115230.3524
  23233212.124   -10055456.62249  -7825548.66849  23233212.0024   23233217.0154
 98  2  3  0 45  0.0000000  0  7  4 24  9  5  7  8  2
  20602515.544   -25555494.02749 -19892295.13349  20602515.7054   20602518.5694
  21529187.064   -19274069.61449 -14744867.75949  21529186.7544   21529191.1894
  21263343.297   -21618735.01949 -16311474.00849  21263343.2144   21263346.1654
  22894728.059   -13259854.58249  -8974076.00549  22894727.0404   22894731.0674
  22270435.814   -14385413.30749 -11194114.74749  22270435.2984   22270438.9914
  23100510.328    -9472262.46949  -7364197.75549  23100509.3204   23100513.8894
  23248599.900    -9974593.91849  -7762538.77449  23248598.9404   23248603.4784
 98  2  3  0 45 30.0000000  0  7  4 24  9  5  7  8  2
  20603180.506   -25551999.55849 -19889572.15149  20603180.6454   20603183.3084
  21515625.131   -19345337.73649 -14800401.31749  21515624.6534   21515629.2454
  21263052.784   -21620261.78249 -16312663.68249  21263052.5954   21263055.5664
  22881127.763   -13331324.28649  -9029766.64049  22881127.3754   22881130.8924
  22284618.802   -14310881.36649 -11136037.90249  22284618.4204   22284621.8454
  23085892.074    -9549081.75949  -7424056.86549  23085891.4404   23085895.1624
  23264065.568    -9893321.28849  -7699209.46949  23264064.9934   23264069.6464
 98  2  3  0 46  0.0000000  0  7  4 24  9  5  7  8  2
  20603989.264   -25547749.46049 -19886260.36349  20603989.5154   20603992.1744
  21502164.181   -19416075.42949 -14855521.55349  21502163.5824   21502168.2934
  21262894.195   -21621095.22249 -16313313.10349  21262894.0654   21262896.7794
  22867567.915   -13402581.48849  -9085291.71049  22867567.0434   22867570.9764
  22298844.832   -14236123.27449 -11077784.83849  22298844.6214   22298848.1944
  23071372.210    -9625383.63449  -7483512.79949  23071372.0414   23071375.2594
  23279609.998    -9811635.14649  -7635557.91949  23279610.2514   23279614.1084
 98  2  3  0 46 30.0000000  0  7  4 24  9  5  7  8  2
  20604937.734   -25542765.12649 -19882376.43349  20604937.6684   20604940.3434
  21488801.974   -19486294.15849 -14910237.40049  21488801.5324   21488806.0774
  21262863.673   -21621255.33049 -16313437.84649  21262863.4264   21262866.5144
  22854043.616   -13473651.81949  -9140671.14849  22854043.1954   22854046.4624
  22313109.573   -14161161.63349 -11019373.15649  22313108.7164   22313112.0164
  23056943.299    -9701207.93949  -7542596.61349  23056941.8614   23056947.0534
  23295226.635    -9729569.44949  -7571610.63849  23295225.8414   23295231.0584
 98  2  3  0 47  0.0000000  0  7  4 24  9  5  7  8  2
  20606025.757   -25537047.37949 -19877921.01849  20606026.0054   20606028.6654
  21475538.615   -19555993.31049 -14964548.38849  21475538.3244   21475542.7364
  21262963.295   -21620731.87849 -16313029.94949  21262963.0474   21262966.2074
  22840557.301   -13544522.79549  -9195895.26649  22840556.7624   22840561.0304
  22327415.940   -14085980.92149 -10960790.77449  22327414.8424   22327419.0974
  23042608.371    -9776538.47449  -7601295.66649  23042607.8854   23042611.6564
  23310915.818    -9647122.16949  -7507366.01749  23310915.2694   23310919.0634
 98  2  3  0 47 30.0000000  0  7  4 24  9  5  7  8  2
  20607247.399   -25530627.55349 -19872918.53349  20607247.6294   20607250.2074
  21462373.843   -19625174.56549 -15018455.82949  21462373.7184   21462377.7844
  21263190.602   -21619537.12649 -16312098.96649  21263190.4404   21263193.4364
  22827105.359   -13615213.06049  -9250978.57549  22827105.1344   22827108.4384
  22341756.575   -14010620.57049 -10902068.41449  22341756.1644   22341759.7894
  23028368.945    -9851366.79349  -7659603.38349  23028368.5824   23028371.8914
  23326673.596    -9564314.56249  -7442840.61749  23326672.8404   23326677.2164
 98  2  3  0 48  0.0000000  0  7  4 24  9  5  7  8  2
  20608604.232   -25523497.29549 -19867362.45949  20608604.4004   20608607.0854
  21449308.968   -19693830.98449 -15071954.30849  21449308.6434   21449313.0014
  21263548.607   -21617655.70649 -16310632.91349  21263548.1824   21263551.5914
  22813688.961   -13685716.61349  -9305916.39749  22813687.8934   22813692.5144
  22356130.889   -13935082.50949 -10843207.58849  22356130.1634   22356134.2484
  23014228.920    -9925672.72049  -7717504.04849  23014229.2314   23014232.1244
  23342498.910    -9481151.77949  -7378038.45149  23342498.1654   23342503.5384
 98  2  3  0 48 30.0000000  0  7  4 24  9  5  7  8  2
  20610096.070   -25515657.43349 -19861253.45149  20610096.0774   20610098.9874
  21436340.755   -19761978.88549 -15125056.53449  21436340.4604   21436344.2594
  21264038.415   -21615081.58349 -16308627.09649  21264038.3434   21264041.3254
  22800310.693   -13756019.54249  -9360697.88449  22800310.7634   22800313.6784
  22370535.873   -13859383.83449 -10784221.58949  22370534.8014   22370538.9974
  23000190.612    -9999444.07849  -7774988.16249  23000189.8004   23000193.6804
  23358392.991    -9397627.56849  -7312954.67049  23358392.7414   23358398.1874
 98  2  3  0 49  0.0000000  0  7  4 24  9  5  7  8  2
  20611722.274   -25507111.68949 -19854594.40749  20611722.2424   20611725.0384
  21423469.627   -19829616.99649 -15177761.53049  21423469.4114   21423473.4814
  21264660.330   -21611813.15949 -16306080.26949  21264660.3224   21264663.3004
  22786970.807   -13826121.15949  -9415322.50449  22786970.3894   22786973.4384
  22384970.573   -13783528.92549 -10725113.85949  22384970.0484   22384973.7174
  22986256.935   -10072665.62049  -7832043.85749  22986255.8664   22986259.9704
  23374357.972    -9313731.03349  -7247580.76249  23374357.0794   23374362.6734
 98  2  3  0 49 30.0000000  0  7  4 24  9  5  7  8  2
  20613484.849   -25497849.16149 -19847376.82849  20613484.8114   20613487.7644
  21410698.274   -19896731.14149 -15230058.22749  21410697.9824   21410702.2184
  21265416.912   -21607837.41649 -16302982.27949  21265416.6384   21265420.0004
  22773670.585   -13896014.17949  -9469784.57249  22773669.9464   22773673.4134
  22399435.808   -13707513.68349 -10665881.18949  22399435.3644   22399438.6274
  22972427.237   -10145340.52149  -7888673.61249  22972426.3804   22972430.1634
  23390395.386    -9229453.57949  -7181910.02149  23390394.2074   23390399.8434
 98  2  3  0 50  0.0000000  0  7  4 24  9  5  7  8  2
  20615376.137   -25487910.03249 -19839632.03249  20615376.2624   20615378.8494
  21398016.058   -19963376.58049 -15281989.71149  21398015.9224   21398019.7524
  21266301.833   -21603186.92949 -16299358.52049  21266301.6564   21266304.7964
  22760400.087   -13965751.35049  -9524125.19849  22760399.0044   22760403.0014
  22413924.822   -13631373.39249 -10606551.07749  22413924.6034   22413927.4914
  22958690.629   -10217526.84149  -7944922.66049  22958689.4104   22958694.4094
  23406496.769    -9144839.39449  -7115976.93649  23406495.6104   23406501.2044
 98  2  3  0 50 30.0000000  0  7  4 24  9  5  7  8  2
  20617401.425   -25477266.92649 -19831338.68349  20617401.6604   20617404.0434
  21385433.229   -20029499.41149 -15333513.96249  21385433.3034   21385437.1214
  21267322.744   -21597822.11749 -16295178.14649  21267322.5094   21267325.5574
  22747165.939   -14035297.30949  -9578316.83249  22747165.4154   22747168.6384
  22428448.387   -13555051.53949 -10547079.49549  22428447.6594   22428451.2644
  22945054.471   -10289184.82349  -8000760.00949  22945053.6804   22945058.2414
  23422672.405    -9059835.85249  -7049740.42249  23422671.8424   23422677.7214
 98  2  3  0 51  0.0000000  0  7  4 24  9  5  7  8  2
  20619561.620   -25465915.02149 -19822493.02749  20619561.6644   20619564.3704
  21372953.452   -20095081.06549 -15384616.51449  21372953.1224   21372957.3024
  21268478.835   -21591746.66649 -16290444.02749  21268478.8684   21268481.7714
  22733967.728   -14104654.11249  -9632361.05849  22733967.3224   22733970.8684
  22443012.563   -13478515.83149 -10487441.26949  22443011.9364   22443015.7784
  22931520.104   -10360307.85149  -8056180.52749  22931520.0594   22931523.3474
  23438923.124    -8974438.25049  -6983196.85449  23438922.5724   23438927.4854
 98  2  3  0 51 30.0000000  0  7  4 24  9  5  7  8  2
  20621863.352   -25453819.28049 -19813067.75349  20621863.3214   20621866.0354
  21360578.740   -20160110.33349 -15435288.63049  21360578.5594   21360582.8114
  21269774.637   -21584937.19949 -16285137.94649  21269774.4524   21269777.7244
  22720811.802   -14173789.05649  -9686232.41749  22720811.0804   22720814.6094
  22457622.172   -13401741.73649 -10427617.28149  22457621.4524   22457625.6754
  22918090.146   -10430882.45949  -8111173.69249  22918089.4174   22918093.3044
  23455251.098    -8888634.55549  -6916336.84449  23455250.4384   23455256.1474
 98  2  3  0 52  0.0000000  0  7  4 24  9  5  7  8  2
  20624304.393   -25440991.32949 -19803071.93549  20624304.6814   20624307.3064
  21348305.635   -20224605.90549 -15485544.88549  21348305.3564   21348309.6134
  21271203.063   -21577430.74049 -16279288.75849  21271202.9334   21271206.1564
  22707695.798   -14242713.52649  -9739939.75449  22707695.0404   22707698.8374
  22472272.431   -13324753.87849 -10367626.72749  22472271.3804   22472275.4654
  22904762.448   -10500919.80049  -8165748.22649  22904762.0234   22904766.2984
  23471652.493    -8802444.40449  -6849175.71049  23471651.9934   23471656.6994
 98  2  3  0 52 30.0000000  0  7  4 24  9  5  7  8  2
  20626886.197   -25427423.91049 -19792499.90949  20626886.4044   20626889.2094
  21336135.011   -20288562.58249 -15535381.21649  21336134.8914   21336139.1854
  21272758.345   -21569257.72549 -16272920.17549  21272758.3764   21272761.2504
  22694621.622   -14311418.68249  -9793476.20449  22694620.8814   22694625.1864
  22486961.361   -13247563.04349 -10307478.01549  22486960.7914   22486964.5394
  22891538.463   -10570412.49849  -8219898.36449  22891537.9384   22891541.8724
  23488127.874    -8715866.35949  -6781712.29949  23488127.2684   23488132.3704
 98  2  3  0 53  0.0000000  0  7  4 24  9  5  7  8  2
  20629609.444   -25413113.00849 -19781348.54649  20629609.4494   20629612.2844
  21324063.313   -20351999.85449 -15584812.81749  21324063.2084   21324067.4664
  21274438.856   -21560426.70649 -16266038.85949  21274438.7434   21274441.6724
  22681588.597   -14379907.59849  -9846844.14149  22681588.1834   22681592.1424
  22501683.006   -13170200.05449 -10247195.15749  22501682.1004   22501685.9124
  22878416.443   -10639369.43549  -8273631.02249  22878416.4424   22878419.1474
  23504673.227    -8628920.42049  -6713962.23349  23504672.7244   23504677.5754
 98  2  3  0 53 30.0000000  0  7  4 24  9  5  7  8  2
  20632477.532   -25398040.86149 -19769604.00649  20632477.6534   20632480.3834
  21312094.967   -20414893.99749 -15633821.20149  21312094.8344   21312098.9404
  21276250.524   -21550906.35249 -16258620.39849  21276250.2384   21276253.0324
  22668600.356   -14448161.13649  -9900028.67549  22668599.9154   22668602.9144
  22516438.296   -13092660.30949 -10186774.56849  22516438.1244   22516442.1404
  22865401.435   -10707763.83149  -8326925.33849  22865401.6124   22865405.1444
  23521293.986    -8541577.19549  -6645902.61549  23521293.5174   23521298.4864
 98  2  3  0 54  0.0000000  0  7  4 24  9  5  7  8  2
  20635482.985   -25382246.99049 -19757297.08249  20635483.1924   20635485.9324
  21300229.233   -20477248.64649 -15682409.20049  21300229.1384   21300233.1604
  21278187.353   -21540728.01749 -16250689.22549  21278187.0184   21278190.0794
  22655648.058   -14516225.69349  -9953065.95249  22655647.2924   22655650.7534
  22531221.528   -13014973.71449 -10126239.54849  22531220.4714   22531224.8344
  22852491.000   -10775608.62649  -8379791.38949  22852489.7014   22852494.2634
  23537989.303    -8453843.65049  -6577538.78749  23537988.4804   23537992.7404
 98  2  3  0 54 30.0000000  0  7  4 24  9  5  7  8  2
  20638627.936   -25365720.04349 -19744418.93149  20638628.0754   20638630.8984
  21288471.778   -20539034.09549 -15730553.66849  21288471.2784   21288475.5474
  21280260.397   -21529833.86949 -16242200.27449  21280260.1424   21280263.2964
  22642735.713   -14584080.08149 -10005939.45749  22642735.0514   22642738.2474
  22546039.163   -12937106.28149 -10065563.61549  22546038.1634   22546042.4504
  22839690.874   -10842873.37549  -8432205.45249  22839690.2714   22839693.8014
  23554764.315    -8365690.03349  -6508847.69749  23554762.5274   23554768.3264
 98  2  3  0 55  0.0000000  0  7  4 24  9  5  7  8  2
  20641906.620   -25348490.36149 -19730993.18949  20641906.8154   20641909.5404
  21276819.236   -20600268.27349 -15778268.57149  21276819.0654   21276823.2574
  21282469.007   -21518227.55649 -16233156.39349  21282468.8034   21282471.9884
  22629860.612   -14651739.15049 -10058660.77449  22629859.9244   22629863.2354
  22560889.581   -12859066.72549 -10004753.55749  22560889.3114   22560892.4864
  22826996.778   -10909581.23149  -8484185.57249  22826996.4294   22827000.2204
  23571613.338    -8277147.39349  -6439853.42749  23571612.6924   23571617.5034
 98  2  3  0 55 30.0000000  0  7  4 24  9  5  7  8  2
  20645313.268   -25330588.19049 -19717043.43349  20645313.4174   20645316.1644
  21265267.229   -20660974.49549 -15825572.08049  21265266.8624   21265271.1234
  21284805.722   -21505948.20249 -16223588.06249  21284805.5064   21284808.5374
  22617018.203   -14719226.18449 -10111248.03349  22617017.5354   22617021.3734
  22575770.052   -12780869.41349  -9943820.57949  22575769.7204   22575773.9144
  22814405.722   -10975747.45349  -8535743.62849  22814405.4764   22814408.9334
  23588531.786    -8188240.85649  -6370575.60749  23588531.7494   23588535.4374
 98  2  3  0 56  0.0000000  0  7  4 24  9  5  7  8  2
  20648853.735   -25311982.92349 -19702545.80549  20648853.8764   20648856.5954
  21253819.141   -20721134.31249 -15872449.81849  21253818.7774   21253823.0404
  21287274.238   -21492976.00649 -16213479.85349  21287274.1174   21287277.2364
  22604217.411   -14786494.79549 -10163665.08749  22604216.9364   22604219.8874
  22590684.932   -12702491.16049  -9882746.60449  22590684.0354   22590687.7574
  22801922.366   -11041347.57149  -8586860.57149  22801921.6384   22801925.6684
  23605520.780    -8098962.99149  -6301008.45649  23605520.7184   23605525.5384
 98  2  3  0 56 30.0000000  0  7  4 24  9  5  7  8  2
  20652528.941   -25292669.29449 -19687496.20949  20652529.2124   20652531.7124
  21242472.200   -20780762.57349 -15918913.36249  21242472.1134   21242476.0604
  21289873.202   -21479318.36149 -16202837.53149  21289873.1384   21289876.1664
  22591462.351   -14853522.90049 -10215894.73749  22591462.1164   22591465.2404
  22605633.862   -12623933.93149  -9821533.16649  22605633.3364   22605637.2434
  22789545.801   -11106387.05149  -8637540.64349  22789545.4864   22789548.4214
  23622575.448    -8009340.29849  -6231172.57949  23622574.9824   23622579.9014
 98  2  3  0 57  0.0000000  0  7  4 24  9  5  7  8  2
  20656345.767   -25272611.80249 -19671866.97649  20656345.8694   20656348.5494
  21231228.991   -20839845.96249 -15964952.33049  21231228.6064   21231232.8164
  21292599.809   -21464990.04949 -16191672.60949  21292599.7504   21292602.7534
  22578755.697   -14920296.56649 -10267926.11849  22578755.4134   22578759.1874
  22620617.430   -12545194.73749  -9760177.94349  22620616.1234   22620621.2444
  22777278.886   -11170850.28349  -8687771.68649  22777278.3684   22777281.9834
  23639697.173    -7919364.51149  -6161061.58949  23639695.6494   23639701.2054
 98  2  3  0 57 30.0000000  0  7  4 24  9  5  7  8  2
  20660305.599   -25251802.61149 -19655652.00049  20660305.7384   20660308.3934
  21220089.702   -20898383.19349 -16010565.71949  21220089.3384   21220093.5094
  21295454.207   -21449990.07449 -16179984.30749  21295454.1344   21295457.1134
  22566097.741   -14986814.36749 -10319758.11549  22566096.9464   22566100.5524
  22635633.766   -12466283.16249  -9698688.38649  22635632.9374   22635636.9534
  22765121.029   -11234740.14849  -8737555.94349  22765120.4054   22765123.4364
  23656889.015    -7829020.79749  -6090663.89949  23656887.7574   23656893.2624
 98  2  3  0 58  0.0000000  0  7  4 24  9  5  7  8  2
  20664411.752   -25230224.37649 -19638837.77249  20664411.8154   20664414.5824
  21209061.611   -20956335.98149 -16055723.70349  21209061.4724   21209065.5364
  21298442.100   -21434288.47949 -16167749.29449  21298441.6564   21298444.9854
  22553492.792   -15053053.49649 -10371372.96549  22553492.2324   22553495.7244
  22650686.597   -12387179.67149  -9637049.29649  22650685.7274   22650690.1634
  22753074.235   -11298046.52049  -8786885.54849  22753074.0254   22753077.3144
  23674154.446    -7738290.25649  -6019964.79049  23674153.9444   23674158.1374
 98  2  3  0 58 30.0000000  0  7  4 24  9  5  7  8  2
  20668662.424   -25207886.94449 -19621431.95949  20668662.7234   20668665.4314
  21198145.391   -21013701.10649 -16100423.76749  21198145.3694   21198149.3394
  21301562.410   -21417890.94649 -16154971.98849  21301562.4654   21301565.6354
  22540937.189   -15119033.59749 -10422785.97649  22540936.7744   22540939.9634
  22665775.730   -12307885.54349  -9575261.65149  22665775.8704   22665779.8774
  22741138.508   -11360769.02149  -8835760.17349  22741137.3084   22741141.5174
  23691494.387    -7647168.49549  -5948960.80649  23691493.6104   23691498.3524
 98  2  3  0 59  0.0000000  0  7  4 24  9  5  7  8  2
  20673056.463   -25184795.92949 -19603438.93549  20673056.6014   20673059.2464
  21187342.673   -21070469.75749 -16144659.04549  21187342.4984   21187346.3484
  21304818.748   -21400778.80449 -16141637.84049  21304818.4214   21304821.3254
  22528429.410   -15184761.90449 -10474002.76949  22528428.5934   22528432.5694
  22680901.976   -12228396.92049  -9513322.45449  22680901.1794   22680904.8194
  22729314.985   -11422901.45849  -8884175.01649  22729314.0034   22729318.4014
  23708911.495    -7555641.04849  -5877640.71549  23708911.0424   23708915.6394
 98  2  3  0 59 30.0000000  0  7  4 24  9  5  7  8  2
  20677582.553   -25161011.17449 -19584905.33949  20677582.9274   20677585.5294
  21176645.259   -21126684.81749 -16188462.96249  21176645.1844   21176648.9534
  21308205.608   -21382980.70549 -16127769.19249  21308205.5064   21308208.6904
  22515961.381   -15250281.48249 -10525056.92749  22515960.7354   22515964.1254
  22696059.375   -12148744.22549  -9451255.40449  22696058.4464   22696062.7774
  22717597.735   -11484475.74249  -8932154.94049  22717597.5744   22717600.8824
  23726397.799    -7463749.98649  -5806037.32449  23726397.1274   23726401.4774
 98  2  3  1  0  0.0000000  0  7  4 24  9  5  7  8  2
  20682234.418   -25136565.54449 -19565856.77149  20682234.4474   20682237.0794
  21166047.226   -21182377.74049 -16231860.00749  21166047.1904   21166051.1044
  21311717.075   -21364527.71649 -16113390.22949  21311716.6164   21311719.8314
  22503525.827   -15315630.49149 -10575978.16049  22503525.0144   22503528.9234
  22711243.281   -12068952.58849  -9389080.08849  22711242.3344   22711246.2754
  22705986.690   -11545491.80849  -8979699.86849  22705985.8334   22705989.5394
  23743945.721    -7371534.44249  -5734181.04549  23743945.3294   23743950.8054
 98  2  3  1  0 30.0000000  0  7  4 24  9  5  7  8  2
  20687012.695   -25111455.49249 -19546290.48449  20687012.8394   20687015.4794
  21155545.361   -21237565.28049 -16274863.26149  21155545.1914   21155549.1994
  21315355.625   -21345406.72749 -16098490.75749  21315355.4964   21315358.4604
  22491122.957   -15380807.65949 -10626765.50549  22491122.7504   22491125.9654
  22726451.661   -11989031.82749  -9326804.16849  22726450.7464   22726454.3254
  22694483.353   -11605941.65149  -9026803.60049  22694483.0664   22694486.8614
  23761556.609    -7278988.90449  -5662067.64749  23761555.9774   23761560.7024
 98  2  3  1  1  0.0000000  0  7  4 24  9  5  7  8  2
  20691919.402   -25085670.47549 -19526198.24549  20691919.5724   20691922.2494
  21145141.391   -21292238.38349 -16317465.64649  21145141.0434   21145145.3164
  21319123.236   -21325607.71849 -16083062.94949  21319122.9884   21319126.1464
  22478754.790   -15445802.09849 -10677410.45649  22478753.9124   22478757.7784
  22741686.666   -11908971.33049  -9264419.34149  22741686.1384   22741689.7864
  22683089.438   -11665816.87249  -9073459.55949  22683089.0644   22683092.3334
  23779232.261    -7186102.65049  -5589688.75349  23779231.7104   23779236.8204
 98  2  3  1  1 30.0000000  0  7  4 24  9  5  7  8  2
  20696951.114   -25059228.49549 -19505594.09349  20696951.2294   20696953.8144
  21134834.516   -21346401.17449 -16359670.38749  21134834.2094   21134838.1634
  21323014.379   -21305159.48849 -16067129.25749  21323014.3544   21323017.4044
  22466417.810   -15510632.90949 -10727927.91849  22466417.1534   22466421.0894
  22756943.121   -11828797.91249  -9201946.54449  22756942.8164   22756946.3954
  22671803.868   -11725122.63249  -9119671.78849  22671803.9174   22671807.1234
  23796969.736    -7092891.54649  -5517056.72449  23796968.9914   23796974.1304
 98  2  3  1  2  0.0000000  0  8  4 24  9  5  7  8 16  2
  20702107.038   -25032133.90749 -19484481.41349  20702107.2994   20702109.9344
  21124625.837   -21400047.92949 -16401473.02149  21124625.7664   21124629.5484
  21327027.086   -21284072.74349 -16050698.02049  21327026.9864   21327030.0744
  22454110.787   -15575306.45149 -10778322.83149  22454110.8824   22454113.9124
  22772217.925   -11748528.02349  -9139398.56749  22772217.3624   22772220.9594
  22660622.617   -11783880.31849  -9165456.95649  22660622.0184   22660625.3154
  24763904.718    -3736747.20149  -2899710.87149  24763904.7164   24763906.4024
  23814767.669    -6999362.86649  -5444177.25649  23814767.4904   23814772.0774
 98  2  3  1  2 30.0000000  0  8  4 24  9  5  7  8 16  2
  20707391.959   -25004361.25049 -19462840.36849  20707392.1014   20707394.6164
  21114522.384   -21453141.93149 -16442844.94149  21114522.1304   21114525.9214
  21331165.712   -21262323.92749 -16033750.89049  21331165.6814   21331168.9594
  22441840.676   -15639786.24249 -10828566.78049  22441840.1374   22441843.5254
  22787517.853   -11668126.55949  -9076748.06949  22787517.4504   22787520.4164
  22649547.853   -11842078.27549  -9210805.96449  22649547.0254   22649550.9604
  24764151.806    -3735447.74249  -2898698.26249  24764149.5564   24764155.3704
  23832632.268    -6905484.31149  -5371025.12949  23832632.8724   23832636.5664
 98  2  3  1  3  0.0000000  0  8  4 24  9  5  7  8 16  2
  20712806.213   -24975908.98149 -19440669.75549  20712806.4724   20712808.9974
  21104528.416   -21505660.51649 -16483768.47849  21104528.3394   21104532.2644
  21335428.445   -21239923.32049 -16016295.86549  21335428.3704   21335431.5234
  22429608.956   -15704064.43049 -10878653.63449  22429608.3954   22429611.8254
  22802845.297   -11587580.11049  -9013984.59149  22802844.6694   22802848.7034
  22638582.279   -11899702.57849  -9255707.96949  22638581.6364   22638585.7614
  24764509.256    -3733565.95649  -2897231.82649  24764507.3884   24764511.5844
  23850564.026    -6811252.75049  -5297597.90249  23850564.4784   23850567.0814
 98  2  3  1  3 30.0000000  0  8  4 24  9  5  7  8 16  2
  20718353.610   -24946757.10849 -19417953.99749  20718353.8324   20718356.3254
  21094649.460   -21557574.66049 -16524221.03049  21094649.3084   21094653.1604
  21339818.646   -21216852.56749 -15998318.65649  21339818.3814   21339821.6664
  22417422.897   -15768102.22949 -10928553.16649  22417422.3114   22417425.5174
  22818205.083   -11506863.88349  -8951088.82549  22818204.5064   22818208.2854
  22627730.564   -11956728.68649  -9300143.84549  22627729.5394   22627733.7784
  24764982.986    -3731073.31949  -2895289.45949  24764981.6304   24764987.1224
  23868566.644    -6716648.88849  -5223880.62549  23868566.4454   23868570.2944
 98  2  3  1  4  0.0000000  0  8  4 24  9  5  7  8 16  2
  20724028.332   -24916936.20749 -19394716.91849  20724028.4244   20724030.8634
  21084876.264   -21608932.95549 -16564240.44449  21084876.1344   21084880.0054
  21344329.856   -21193146.03449 -15979846.03249  21344329.6884   21344332.8164
  22405281.011   -15831908.02349 -10978271.92649  22405280.4174   22405283.6064
  22833593.940   -11425994.43549  -8888073.67049  22833593.1824   22833597.1224
  22616983.610   -12013203.70849  -9344150.30049  22616983.1784   22616986.7604
  24765567.352    -3728000.93949  -2892895.30649  24765566.9454   24765571.8214
  23886631.688    -6621716.12449  -5149907.03249  23886630.2604   23886636.2854
 98  2  3  1  4 30.0000000  0  8  4 24  9  5  7  8 16  2
  20729833.122   -24886431.88549 -19370947.30149  20729833.2454   20729835.9034
  21075211.499   -21659721.46149 -16603815.86949  21075211.1854   21075215.2944
  21348967.986   -21168772.52149 -15960853.68849  21348967.8974   21348970.6534
  22393190.825   -15895442.41949 -11027779.20849  22393189.9974   22393193.4144
  22849015.487   -11344953.65249  -8824924.99249  22849014.4764   22849018.6604
  22606348.106   -12069093.57149  -9387700.78549  22606347.3514   22606351.1894
  24766263.315    -3724344.79949  -2890046.32249  24766263.7824   24766267.6854
  23904764.339    -6526428.31349  -5075656.78749  23904763.9864   23904767.8694
 98  2  3  1  5  0.0000000  0  8  4 24  9  5  7  8 16  2
  20735766.929   -24855249.62449 -19346649.41649  20735767.0674   20735769.8384
  21065654.276   -21709944.68349 -16642950.81649  21065653.8314   21065658.0384
  21353734.444   -21143724.66649 -15941335.87849  21353734.2974   21353737.3924
  22381152.005   -15958706.69649 -11077076.01149  22381151.2014   22381155.0704
  22864467.932   -11263750.27349  -8761649.60949  22864467.2494   22864470.9104
  22595823.453   -12124400.98049  -9430797.42049  22595822.4784   22595826.3714
  24767068.677    -3720113.63249  -2886749.27249  24767069.6844   24767073.0454
  23922962.876    -6430794.97749  -5001137.28649  23922961.9584   23922965.9454
 98  2  3  1  5 30.0000000  0  8  4 24  9  5  7  8 16  2
  20741832.888   -24823372.72649 -19321810.25649  20741832.9784   20741835.7564
  21056207.548   -21759587.39349 -16681633.42049  21056207.4014   21056211.0414
  21358632.451   -21117985.34449 -15921279.26649  21358632.3074   21358635.4844
  22369166.998   -16021688.39049 -11126152.61449  22369166.4284   22369169.9104
  22879955.683   -11182361.56949  -8698229.83249  22879954.8274   22879959.0174
  22585412.767   -12179109.26149  -9473427.19949  22585412.1554   22585415.7314
  24767988.747    -3715279.96149  -2882982.72349  24767988.8184   24767993.0554
  23941230.047    -6334800.17149  -4926336.11149  23941228.7624   23941233.6644
 98  2  3  1  6  0.0000000  0  8  4 24  9  5  7  8 16  2
  20748027.777   -24790818.20149 -19296443.07349  20748028.0994   20748030.6904
  21046868.172   -21808665.90349 -16719876.38649  21046867.9964   21046871.9944
  21363661.284   -21091558.58449 -15900686.98549  21363660.9354   21363664.3314
  22357229.075   -16084422.42049 -11175036.23949  22357228.6634   22357231.9114
  22895476.859   -11100797.15249  -8634673.13649  22895476.8514   22895480.0404
  22575116.458   -12233216.64849  -9515588.76149  22575116.7724   22575119.1174
  24769021.622    -3709852.67749  -2878753.60149  24769020.1644   24769025.6314
  23959563.630    -6238456.41049  -4851263.02049  23959562.0604   23959567.2194
 98  2  3  1  6 30.0000000  0  8  4 24  9  5  7  8 16  2
  20754348.409   -24757602.81949 -19270560.93849  20754348.7434   20754351.1434
  21037634.713   -21857187.78649 -16757685.61549  21037634.5694   21037638.5394
  21368818.276   -21064458.31049 -15879569.88649  21368818.2354   21368821.2524
  22345328.327   -16146961.28849 -11223767.78749  22345327.9814   22345331.2284
  22911024.945   -11019091.53449  -8571006.40349  22911024.3884   22911027.6594
  22564932.090   -12286735.97149  -9557292.07549  22564932.1634   22564934.5184
  24770165.007    -3703843.82049  -2874071.34349  24770165.1614   24770168.9924
  23977959.688    -6141784.14549  -4775934.00249  23977958.4054   23977962.6464
 98  2  3  1  7  0.0000000  0  8  4 24  9  5  7  8 16  2
  20760808.096   -24723656.98849 -19244109.62249  20760808.2814   20760810.7044
  21028518.837   -21905091.96949 -16795013.51449  21028518.6594   21028522.5864
  21374111.506   -21036642.11049 -15857894.92149  21374111.1914   21374114.4824
  22333473.141   -16209260.48549 -11272312.57849  22333472.5694   22333475.6564
  22926612.901   -10937176.52749  -8507176.49749  22926612.3074   22926616.1494
  22554871.169   -12339606.67749  -9598489.97549  22554870.6484   22554874.5064
  24771435.141    -3697170.09549  -2868871.02149  24771435.6824   24771437.6574
  23996427.311    -6044735.43949  -4700311.61149  23996427.4194   23996432.0244
 98  2  3  1  7 30.0000000  0  8  4 24  9  5  7  8 16  2
  20767405.719   -24688986.18549 -19217093.39249  20767405.9044   20767408.4504
  21019517.470   -21952394.17249 -16831872.34349  21019517.3914   21019521.2194
  21379537.411   -21008128.56749 -15835676.57749  21379537.1944   21379540.3644
  22321662.035   -16271328.01349 -11320676.85349  22321661.3154   22321664.5594
  22942237.470   -10855068.81249  -8443196.44449  22942236.3804   22942240.2554
  22544933.371   -12391829.58749  -9639183.09949  22544932.2884   22544936.7494
  24772827.345    -3689854.47649  -2863170.52349  24772826.7494   24772829.2594
  24014966.323    -5947312.74949  -4624397.80349  24014964.7264   24014969.8284
 98  2  3  1  8  0.0000000  0  8  4 24  9  5  7  8 16  2
  20774139.244   -24653601.15949 -19189520.62349  20774139.3634   20774141.8444
  21010626.031   -21999118.99749 -16868281.26949  21010625.9064   21010629.8764
  21385095.919   -20978918.35549 -15812915.36749  21385095.9464   21385098.9684
  22309895.379   -16333162.21849 -11368859.31749  22309895.0914   22309898.1064
  22957892.009   -10772803.35249  -8379093.47549  22957891.5724   22957894.3634
  22535115.083   -12443424.44349  -9679386.83749  22535113.5764   22535117.8514
  24774333.883    -3681935.98449  -2857000.23749  24774331.9774   24774337.6574
  24033573.095    -5849532.58849  -4548205.47049  24033571.9444   24033577.2104
 98  2  3  1  8 30.0000000  0  8  4 24  9  5  7  8 16  2
  20781010.865   -24617490.35649 -19161382.31749  20781010.9654   20781013.6094
  21001845.834   -22045259.17749 -16904234.62649  21001845.7054   21001849.6614
  21390787.430   -20949009.49649 -15789609.76149  21390787.3564   21390790.2604
  22298179.101   -16394731.57549 -11416835.40049  22298178.5124   22298181.6484
  22973574.486   -10690391.79349  -8314876.65649  22973574.4654   22973576.9754
  22525416.255   -12494391.57149  -9719101.44849  22525416.0394   22525419.1754
  24775956.259    -3673409.49549  -2850356.18149  24775955.5334   24775960.1304
  24052249.868    -5751385.43449  -4471727.18749  24052249.7344   24052254.8154
 98  2  3  1  9  0.0000000  0  8  4 24  9  5  7  8 16  2
  20788015.504   -24580680.64649 -19132699.40549  20788015.6464   20788018.1784
  20993173.664   -22090831.71549 -16939745.66149  20993173.4284   20993177.3594
  21396606.292   -20918430.98449 -15765782.34149  21396606.0284   21396609.4514
  22286514.999   -16456026.60649 -11464597.72849  22286514.1274   22286517.7574
  22989282.573   -10607844.87149  -8250554.35149  22989281.3724   22989285.8704
  22515835.193   -12544740.43749  -9758334.29549  22515834.5224   22515837.8494
  24777690.192    -3664296.28349  -2843254.90849  24777689.2034   24777695.0874
  24070996.843    -5652869.68349  -4394961.66249  24070995.5774   24071001.6004
 98  2  3  1  9 30.0000000  0  8  4 24  9  5  7  8 16  2
  20795155.200   -24543161.08749 -19103463.36849  20795155.3544   20795157.9664
  20984613.240   -22135816.82649 -16974798.96549  20984613.0354   20984617.0284
  21402556.086   -20887164.61749 -15741418.93149  21402555.9494   21402559.1844
  22274907.108   -16517026.44049 -11512130.02749  22274906.1934   22274910.0164
  23005017.433   -10525157.28649  -8186122.45149  23005016.5784   23005019.9484
  22506375.295   -12594452.40449  -9797070.87249  22506374.5714   22506379.1924
  24779536.508    -3654592.79149  -2835693.67149  24779535.6544   24779541.3844
  24089818.646    -5553959.54449  -4317888.83649  24089817.6864   24089822.7494
 98  2  3  1 10  0.0000000  0  8  4 24  9  5  7  8 16  2
  20802423.315   -24504966.93949 -19073701.67449  20802423.6124   20802426.1024
  20976162.810   -22180224.03049 -17009401.95049  20976162.7254   20976166.3644
  21408630.345   -20855244.19649 -15716545.86649  21408630.0444   21408633.2954
  22263348.810   -16577765.46349 -11559459.10149  22263348.1454   22263351.5674
  23020774.513   -10442352.82349  -8121599.46449  23020773.9704   23020777.2504
  22497031.877   -12643552.62549  -9835330.75049  22497031.2094   22497034.9754
  24781495.234    -3644300.51049  -2827673.66549  24781495.8774   24781499.3884
  24108708.381    -5454693.23049  -4240538.43649  24108708.3294   24108713.0554
 98  2  3  1 10 30.0000000  0  8  4 24  9  5  7  8 16  2
  20809823.373   -24466079.21649 -19043399.53849  20809823.4494   20809825.9614
  20967828.922   -22224018.68349 -17043527.62249  20967828.8244   20967832.6514
  21414829.245   -20822668.76749 -15691162.40949  21414829.0624   21414832.2354
  22251840.532   -16638241.84749 -11606583.52249  22251839.5024   22251843.3114
  23036561.592   -10359391.44449  -8056954.21549  23036561.6104   23036565.0274
  22487810.617   -12692010.44449  -9873090.05949  22487810.2834   22487813.5214
  24783574.292    -3633375.78049  -2819160.86549  24783573.3794   24783577.7234
  24127671.002    -5355044.39449  -4162890.00749  24127670.0224   24127675.4124
 98  2  3  1 11  0.0000000  0  8  4 24  9  5  7  8 16  2
  20817350.591   -24426523.29249 -19012576.72649  20817350.7284   20817353.5534
  20959607.516   -22267222.25449 -17077192.71249  20959607.4664   20959611.3714
  21421148.062   -20789463.12649 -15665287.87349  21421147.9684   21421151.0054
  22240374.582   -16698495.59049 -11653534.45849  22240374.1794   22240377.4224
  23052376.246   -10276284.95849  -7992195.87949  23052375.8124   23052378.6774
  22478708.277   -12739843.55549  -9910362.58649  22478708.2244   22478710.5424
  24785768.311    -3621845.03849  -2810175.80049  24785767.5604   24785772.5054
  24146700.289    -5255044.41749  -4084967.96249  24146699.4984   24146704.8424
 98  2  3  1 11 30.0000000  0  8  4 24  9  5  7  8 16  2
  20825009.859   -24386273.35749 -18981213.12649  20825009.7964   20825012.4774
  20951502.894   -22309812.40649 -17110379.81249  20951502.6074   20951506.3404
  21427593.486   -20755591.97049 -15638894.74949  21427593.2664   21427596.4804
  22228953.202   -16758514.92249 -11700302.73449  22228952.1774   22228955.9814
  23068222.892   -10193009.98949  -7927306.28449  23068221.7324   23068226.2204
  22469729.804   -12787025.12849  -9947127.42349  22469729.3804   22469732.0644
  24788082.751    -3609683.11249  -2800698.93649  24788082.6774   24788086.8974
  24165795.813    -5154696.89649  -4006775.07949  24165795.2584   24165799.6354
 98  2  3  1 12  0.0000000  0  8  4 24  9  5  7  8 16  2
  20832798.983   -24345340.92049 -18949317.71049  20832799.2434   20832801.7944
  20943513.983   -22351794.38749 -17143093.01949  20943513.7974   20943517.6364
  21434164.928   -20721058.78849 -15611985.76749  21434164.8364   21434167.9754
  22217576.630   -16818298.78849 -11746887.53749  22217576.3424   22217579.5194
  23084101.467   -10109567.46649  -7862286.11149  23084101.1394   23084104.4304
  22460875.244   -12833555.89349  -9983385.14749  22460875.4594   22460878.6214
  24790516.819    -3596892.68949  -2790732.34249  24790516.6024   24790520.4954
  24184955.415    -5054013.40749  -3928320.40549  24184955.4144   24184959.0734
 98  2  3  1 12 30.0000000  0  8  4 24  9  5  7  8 16  2
  20840712.183   -24303756.82949 -18916914.50949  20840712.5354   20840715.1134
  20935632.439   -22393212.03649 -17175366.48149  20935632.4334   20935636.1404
  21440856.883   -20685892.42349 -15584583.38649  21440856.7444   21440859.8684
  22206241.957   -16877862.78249 -11793301.00649  22206241.3394   22206244.8684
  23100006.225   -10025987.63149  -7797158.95649  23100005.0694   23100009.3784
  22452140.058   -12879459.67849 -10019154.30749  22452139.4774   22452142.7834
  24793060.404    -3583526.14449  -2780316.79149  24793060.6414   24793064.2454
  24204172.434    -4953027.60549  -3849630.18049  24204171.6314   24204176.8934
 98  2  3  1 13  0.0000000  0  8  4 24  9  5  7  8 16  2
  20848748.497   -24261525.73049 -18884007.14749  20848748.8914   20848751.3484
  20927858.793   -22434062.59649 -17207198.05649  20927858.5754   20927862.2224
  21447670.404   -20650087.00549 -15556683.04449  21447670.1274   21447673.0964
  22194953.338   -16937184.68249 -11839525.82849  22194952.9244   22194956.1974
  23115935.322    -9942279.63949  -7731931.92249  23115934.4824   23115938.0334
  22443522.078   -12924747.39949 -10054443.41549  22443521.4034   22443524.9574
  24795712.734    -3569588.80049  -2769456.49549  24795713.6254   24795717.3064
  24223446.241    -4851741.73849  -3770706.14749  24223446.1874   24223451.1014
 98  2  3  1 13 30.0000000  0  8  4 24  9  5  7  8 16  2
  20856908.376   -24218645.30649 -18850593.81749  20856908.3734   20856911.0684
  20920195.612   -22474332.75149 -17238577.36549  20920195.3404   20920199.0884
  21454606.632   -20613636.91349 -15528280.36149  21454606.2754   21454609.5414
  22183714.081   -16996247.34349 -11885548.64749  22183713.8244   22183716.8094
  23131889.145    -9858441.68749  -7666603.63449  23131888.6274   23131891.9754
  22435021.328   -12969419.00449 -10089252.43449  22435021.0884   22435024.3244
  24798474.680    -3555075.23749  -2758147.15949  24798472.6154   24798478.4204
  24242777.856    -4750153.99549  -3691546.81149  24242777.3744   24242781.8954
 98  2  3  1 14  0.0000000  0  8  4 24  9  5  7  8 16  2
  20865191.400   -24175117.49749 -18816676.03449  20865191.4894   20865194.1624
  20912644.990   -22514011.41949 -17269495.78049  20912644.9774   20912648.4984
  21461665.415   -20576542.93149 -15499375.95149  21461665.1884   21461668.1264
  22172526.466   -17055038.64049 -11931360.01749  22172526.0204   22172529.1724
  23147867.141    -9774476.67749  -7601176.33549  23147866.6654   23147870.0634
  22426637.875   -13013474.28949 -10123581.21549  22426637.3024   22426641.2314
  24801345.788    -3539985.32249  -2746388.69249  24801345.5864   24801349.0974
  24262170.793    -4648243.67749  -3612136.17849  24262170.3794   24262175.1414
 98  2  3  1 14 30.0000000  0  8  4 24  9  5  7  8 16  2
  20873598.028   -24130940.28249 -18782252.22049  20873598.1794   20873600.8654
  20905209.379   -22553085.62849 -17299943.18149  20905209.2254   20905212.9864
  21468850.323   -20538785.72349 -15469954.73749  21468850.2244   21468853.1594
  22161392.120   -17113549.67649 -11976952.99649  22161391.4884   22161394.6964
  23163871.343    -9690374.22049  -7535641.92949  23163870.8464   23163874.5574
  22418372.209   -13056910.25849 -10157427.40649  22418371.9644   22418374.9234
  24804330.027    -3524304.79449  -2734170.15549  24804330.4694   24804332.5404
  24281625.053    -4546010.84349  -3532474.19849  24281624.7214   24281628.7414
 98  2  3  1 15  0.0000000  0  8  4 24  9  5  7  8 16  2
  20882127.665   -24086116.91349 -18747324.91049  20882127.9044   20882130.3384
  20897890.533   -22591546.26049 -17329912.47349  20897890.3024   20897894.0904
  21476163.013   -20500357.36349 -15440010.54749  21476162.7024   21476165.9454
  22150310.541   -17171783.47949 -12022329.95549  22150309.8704   22150313.0274
  23179900.728    -9606139.01749  -7470004.08849  23179899.6994   23179903.3724
  22410222.218   -13099738.91449 -10190800.35649  22410221.7464   22410225.3394
  24807429.082    -3508019.45949  -2721480.20649  24807426.8164   24807432.4454
  24301140.988    -4443452.78949  -3452558.87149  24301141.7204   24301145.0404
 98  2  3  1 15 30.0000000  0  8  4 24  9  5  7  8 16  2
  20890782.303   -24040636.53949 -18711885.63749  20890782.2824   20890784.8834
  20890689.455   -22629387.97049 -17359399.48149  20890689.1074   20890693.0104
  21483607.526   -20461236.08249 -15409526.41249  21483607.3584   21483610.4564
  22139283.975   -17229728.28849 -12067481.72049  22139283.3234   22139286.4494
  23195957.884    -9521758.10249  -7404252.70249  23195957.6034   23195960.4624
  22402194.364   -13141925.38449 -10223672.90449  22402193.8144   22402197.0474
  24810647.627    -3491103.19149  -2708298.57849  24810647.8764   24810652.1924
  24320720.614    -4340561.24949  -3372383.65749  24320719.7564   24320725.9264
 98  2  3  1 16  0.0000000  0  8  4 24  9  5  7  8 16  2
  20899554.518   -23994537.98849 -18675964.68049  20899554.5994   20899557.1424
  20883598.166   -22666652.90549 -17388437.06749  20883597.6364   20883601.5334
  21491176.304   -20421461.80349 -15378533.46449  21491176.3084   21491179.1574
  22128308.782   -17287403.18549 -12112423.17049  22128308.4614   22128311.7134
  23212036.361    -9437264.72949  -7338413.69649  23212035.0824   23212038.5944
  22394284.121   -13183493.90849 -10256063.93649  22394283.8804   22394286.6684
  24813982.810    -3473577.82249  -2694642.46649  24813982.6474   24813984.5264
  24340358.448    -4237363.71149  -3291969.95449  24340358.2314   24340362.9494
 98  2  3  1 16 30.0000000  0  8  4 24  9  5  7  8 16  2
  20908447.379   -23947805.51749 -18639549.75149  20908447.5534   20908450.1234
  20876615.533   -22703346.66149 -17417029.57149  20876615.1404   20876619.2064
  21498868.612   -20381038.53849 -15347034.80149  21498868.2634   21498871.5284
  22117387.784   -17344793.29649 -12157142.70349  22117387.3814   22117390.5894
  23228139.223    -9352643.07549  -7272474.72749  23228137.9254   23228142.7564
  22386493.091   -13224435.93249 -10287966.77649  22386492.1544   22386496.4494
  24817437.064    -3455425.58349  -2680497.82349  24817435.9274   24817439.5544
  24360054.726    -4133859.00449  -3211316.94249  24360053.1264   24360058.3824
 98  2  3  1 17  0.0000000  0  8  4 24  9  5  7  8 16  2
  20917459.827   -23900444.76049 -18602645.25349  20917459.8544   20917462.4974
  20869735.946   -22739499.06349 -17445200.24249  20869735.6234   20869739.6344
  21506676.222   -20340009.03049 -15315063.75049  21506675.8784   21506679.1464
  22106515.156   -17401929.00249 -12201663.99849  22106514.8984   22106517.5984
  23244260.451    -9267924.96649  -7206460.58349  23244259.2344   23244263.8644
  22378817.496   -13264771.34449 -10319396.94449  22378817.3174   22378820.3904
  24821006.715    -3436667.82849  -2665881.37649  24821006.9344   24821009.6624
  24379808.615    -4030051.75849  -3130428.19149  24379808.1904   24379813.4514
 98  2  3  1 17 30.0000000  0  8  4 24  9  5  7  8 16  2
  20926594.474   -23852441.83549 -18565240.35449  20926594.5604   20926597.3514
  20862961.430   -22775099.29049 -17472940.64349  20862961.2424   20862965.1264
  21514600.661   -20298365.55149 -15282614.27349  21514600.2324   21514603.5634
  22095693.581   -17458796.64349 -12245976.40749  22095692.9604   22095696.6604
  23260403.983    -9183089.84749  -7140355.27049  23260402.7884   23260406.3914
  22371263.552   -13304467.79849 -10350329.21349  22371263.0574   22371267.2184
  24824691.973    -3417301.53649  -2650790.74849  24824690.2454   24824692.7634
  24399625.150    -3925915.42749  -3049282.95949  24399625.1614   24399628.6104
 98  2  3  1 18  0.0000000  0  8  4 24  9  5  7  8 16  2
  20935847.366   -23803817.48849 -18527351.23849  20935847.3244   20935849.9334
  20856289.015   -22810162.98349 -17500262.97549  20856288.7624   20856292.4594
  21522636.274   -20256137.82849 -15249709.55549  21522635.9294   21522638.8214
  22084917.691   -17515424.39149 -12290101.89149  22084917.2504   22084920.6084
  23276566.940    -9098152.79049  -7074170.52749  23276566.5784   23276570.0094
  22363827.000   -13343547.08849 -10380780.58349  22363826.5854   22363829.8684
  24828486.735    -3397359.44549  -2635251.42749  24828485.3774   24828488.4514
  24419502.652    -3821459.29649  -2967888.55949  24419502.5404   24419507.5904
 98  2  3  1 18 30.0000000  0  8  4 24  9  5  7  8 16  2
  20945223.790   -23754543.82149 -18488956.15649  20945223.8734   20945226.4354
  20849724.772   -22844657.82449 -17527142.04249  20849724.3264   20849728.2024
  21530790.323   -20213287.79649 -15216319.91049  21530790.2544   21530793.2164
  22074187.115   -17571813.91649 -12334041.73749  22074186.5994   22074189.4614
  23292751.808    -9013100.63549  -7007896.11149  23292750.4244   23292754.1634
  22356511.800   -13381988.38649 -10410734.80449  22356511.0194   22356514.6594
  24832394.093    -3376825.49749  -2619250.92149  24832393.3224   24832396.9794
  24439445.634    -3716657.67549  -2886225.02149  24439445.6944   24439447.6634
 98  2  3  1 19  0.0000000  0  8  4 24  9  5  7  8 16  2
  20954720.183   -23704640.04449 -18450070.08449  20954720.3994   20954722.7654
  20843272.956   -22878562.01649 -17553560.86449  20843272.8524   20843276.5674
  21539064.920   -20169804.39549 -15182436.73949  21539065.0364   21539068.0604
  22063498.680   -17627981.76949 -12377808.86049  22063498.3084   22063501.3914
  23308954.996    -8927952.37049  -6941546.78149  23308954.8664   23308957.7224
  22349317.196   -13419796.31649 -10440195.50449  22349317.2604   22349319.9894
  24836411.210    -3355715.48449  -2602801.53849  24836411.5604   24836413.1114
  24459454.056    -3611512.83449  -2804293.90649  24459453.3934   24459457.4404
 98  2  3  1 19 30.0000000  0  8  4 24  9  5  7  8 16  2
  20964330.916   -23654135.27449 -18410715.70149  20964330.9964   20964333.5164
  20836932.823   -22911879.50449 -17579522.51149  20836932.8424   20836936.6974
  21547459.153   -20125692.55149 -15148063.86749  21547459.0744   21547462.1504
  22052851.710   -17683931.77149 -12421406.22049  22052850.9694   22052854.1354
  23325174.763    -8842717.04949  -6875129.61249  23325173.9084   23325177.2424
  22342241.558   -13456978.99449 -10469168.98149  22342240.9284   22342244.4854
  24840533.937    -3334050.53549  -2585919.73749  24840533.1674   24840536.4634
  24479521.558    -3506057.29049  -2722120.77049  24479521.3504   24479525.4014
 98  2  3  1 20  0.0000000  0  8  4 24  9  5  7  8 16  2
  20974058.463   -23603016.58449 -18370882.94849  20974058.5714   20974061.3024
  20830707.307   -22944594.92949 -17605015.02149  20830707.3814   20830710.9114
  21555973.329   -20080950.38549 -15113199.84549  21555973.3004   21555976.3214
  22042248.431   -17739652.24249 -12464824.73149  22042247.9994   22042251.0664
  23341411.241    -8757393.83849  -6808643.97149  23341410.6984   23341414.9494
  22335284.142   -13493540.24549 -10497658.23149  22335283.3154   22335286.9584
  24844765.377    -3311814.39949  -2568592.81149  24844764.4674   24844767.1194
  24499645.714    -3400303.90149  -2639715.51149  24499646.5084   24499648.9384
 98  2  3  1 20 30.0000000  0  8  4 24  9  5  7  8 16  2
  20983900.643   -23551295.47349 -18330580.77049  20983900.9684   20983903.3324
  20824594.801   -22976716.18349 -17630044.53649  20824594.6434   20824598.2714
  21564602.096   -20035605.81349 -15077866.41349  21564602.0474   21564605.0894
  22031688.048   -17795147.12549 -12508067.45549  22031687.4504   22031690.5814
  23357661.230    -8671999.54449  -6742102.93449  23357660.6484   23357663.7654
  22328440.931   -13529501.65949 -10525680.07949  22328440.1034   22328444.1044
  24849102.065    -3289023.83449  -2550833.91649  24849101.5954   24849104.5354
  24519821.101    -3294282.52149  -2557101.46549  24519820.0224   24519825.3104
 98  2  3  1 21  0.0000000  0  8  4 24  9  5  7  8 16  2
  20993864.758   -23498933.68749 -18289779.35949  20993865.0504   20993867.4524
  20818600.278   -23008217.46249 -17654590.95949  20818600.2034   20818603.8484
  21573349.572   -19989637.48349 -15042046.93749  21573349.4814   21573352.3604
  22021181.648   -17850358.41349 -12551089.19549  22021181.1044   22021184.2704
  23373935.612    -8586476.71549  -6675461.75449  23373935.3314   23373938.9404
  22321719.989   -13564820.74749 -10553201.40949  22321719.8054   22321722.8614
  24853551.933    -3265640.19749  -2532612.87749  24853551.2944   24853553.9244
  24540054.889    -3187952.42249  -2474246.90449  24540055.5334   24540058.7454
 98  2  3  1 21 30.0000000  0  8  4 24  9  5  7  8 16  2
  21003940.653   -23445984.37249 -18248520.13649  21003940.7744   21003943.1914
  20812706.616   -23039188.81249 -17678724.45349  20812706.3734   20812709.9484
  21582201.550   -19943119.96649 -15005799.52349  21582201.4534   21582204.3624
  22010718.325   -17905343.43749 -12593934.62849  22010717.8974   22010720.9164
  23390225.721    -8500871.86149  -6608756.64049  23390225.6044   23390228.1034
  22315112.504   -13599543.06849 -10580257.74049  22315112.0794   22315114.8544
  24858103.212    -3241721.24349  -2513974.69749  24858102.7144   24858105.8564
  24560334.233    -3081384.63049  -2391207.00549  24560333.7654   24560337.9174
 98  2  3  1 22  0.0000000  0  8  4 24  9  5  7  8 16  2
  21014139.602   -23392388.37749 -18206757.01449  21014139.6544   21014142.1874
  20806923.257   -23069580.56549 -17702406.30949  20806922.9274   20806926.6554
  21591168.086   -19896000.60949 -14969083.14249  21591167.9154   21591170.8594
  22000309.199   -17960043.56749 -12636558.06849  22000308.7734   22000311.5594
  23406543.652    -8415120.22049  -6541937.14849  23406543.0674   23406546.0744
  22308629.702   -13633610.33849 -10606803.63749  22308629.1274   22308632.3804
  24862768.717    -3217204.23949  -2494870.52149  24862768.6234   24862772.3544
  24580669.176    -2974523.08949  -2307938.26749  24580668.7774   24580672.9504
 98  2  3  1 22 30.0000000  0  8  4 24  9  5  7  8 16  2
  21024454.692   -23338182.38249 -18164518.55849  21024454.9134   21024457.3034
  20801242.698   -23099431.84149 -17725667.01249  20801242.5494   20801246.3734
  21600246.726   -19848292.03149 -14931907.62449  21600246.5014   21600249.6394
  21989948.753   -18014487.97549 -12678982.23949  21989948.1264   21989951.1314
  23422884.484    -8329248.46849  -6475024.07049  23422883.1354   23422888.0734
  22302267.981   -13667041.35949 -10632853.75649  22302267.2624   22302270.6004
  24867542.747    -3192115.90449  -2475321.09349  24867542.2494   24867546.0864
  24601055.618    -2867391.64749  -2224459.18749  24601054.8744   24601059.9724
 98  2  3  1 23  0.0000000  0  8  4 24  9  5  7  8 16  2
  21034883.616   -23283377.86549 -18121813.73149  21034883.7334   21034886.1794
  20795663.954   -23128748.53249 -17748511.16149  20795663.8324   20795667.4474
  21609441.207   -19799974.75549 -14894257.80049  21609441.1354   21609444.2014
  21979634.143   -18068691.38949 -12721218.63449  21979633.6764   21979636.9944
  23439247.237    -8243261.68949  -6408021.35549  23439246.6474   23439250.0414
  22296029.396   -13699824.90849 -10658399.35349  22296028.7014   22296032.3034
  24872426.699    -3166451.42749  -2455322.81449  24872426.3184   24872430.0844
  24621492.213    -2759996.87749  -2140774.93149  24621491.5164   24621496.1544
 98  2  3  1 23 30.0000000  0  8  4 24  9  5  7  8 16  2
  21045427.390   -23227969.86349 -18078638.65249  21045427.4644   21045430.0674
  20790191.170   -23157508.04949 -17770921.15049  20790191.0304   20790194.6524
  21618754.651   -19751032.22049 -14856120.76149  21618754.4884   21618757.6174
  21969366.092   -18122650.10849 -12763264.35049  21969365.4254   21969368.7904
  23455631.199    -8157163.40249  -6340931.74949  23455630.7254   23455634.9894
  22289916.781   -13731946.70349 -10683429.29749  22289916.5324   22289919.8514
  24877422.624    -3140197.48249  -2434865.13149  24877421.6394   24877425.6224
  24641976.498    -2652350.89349  -2056894.97749  24641975.2264   24641980.7984
 98  2  3  1 24  0.0000000  0  8  4 24  9  5  7  8 16  2
  21056084.251   -23171967.62149 -18035000.52549  21056084.3064   21056086.8384
  20784829.307   -23185684.76649 -17792877.00549  20784828.9724   20784832.7904
  21628187.754   -19701460.91849 -14817493.77049  21628187.5474   21628190.5644
  21959146.466   -18176354.53649 -12805111.91949  21959145.8004   21959149.1134
  23472032.796    -8070972.78049  -6273770.18949  23472031.3514   23472035.9134
  22283926.839   -13763424.05149 -10707957.07749  22283926.5294   22283929.1534
  24882533.013    -3113341.42149  -2413938.31449  24882531.9624   24882536.7594
  24662509.757    -2544447.86249  -1972814.64249  24662509.7204   24662513.9684
 98  2  3  1 24 30.0000000  0  8  4 24  9  5  7  8 16  2
  21066845.287   -23115417.78449 -17990935.69849  21066845.4464   21066848.2384
  20779573.431   -23213304.59949 -17814398.92849  20779573.0714   20779576.8564
  21637732.586   -19651302.36749 -14778409.18849  21637732.4004   21637735.6154
  21948966.667   -18229849.57349 -12846796.33149  21948966.1374   21948969.1384
  23488442.331    -7984739.88849  -6206575.71249  23488440.4314   23488444.8804
  22278051.905   -13794296.68949 -10732013.65249  22278051.3164   22278054.6864
  24887750.392    -3085923.36049  -2392573.56649  24887749.6094   24887754.3494
  24683087.845    -2436309.70449  -1888551.14749  24683087.5044   24683092.0224
 98  2  3  1 25  0.0000000  0  8  4 24  9  5  7  8 16  2
  21077711.786   -23058314.10049 -17946439.30949  21077712.1734   21077714.5074
  20774428.157   -23240342.94849 -17835467.74749  20774428.0634   20774431.6374
  21647386.833   -19600569.00449 -14738876.69949  21647386.7964   21647389.9734
  21938828.283   -18283126.98649 -12888311.17049  21938827.6664   21938831.0774
  23504863.470    -7898446.29849  -6139333.92149  23504862.8824   23504866.9174
  22272293.405   -13824557.85649 -10755593.76249  22272293.1124   22272296.1264
  24893077.383    -3057929.62549  -2370760.24949  24893077.4014   24893080.3714
  24703713.532    -2327921.26349  -1804092.50149  24703711.7564   24703715.1134
 98  2  3  1 25 30.0000000  0  7  4 24  9  5  7  8 16
  21088686.097   -23000643.71649 -17901501.33049  21088686.4064   21088688.8904
  20769397.798   -23266777.61749 -17856066.16549  20769397.3054   20769401.0354
  21657149.836   -19549263.93549 -14698898.71849  21657149.9574   21657152.5384
  21928738.756   -18336147.73249 -12929626.00149  21928738.0614   21928741.2424
  23521299.588    -7812073.89349  -6072030.72349  23521298.5244   23521302.4904
  22266651.477   -13854206.54149 -10778696.60249  22266650.8684   22266653.9324
  24898517.648    -3029339.65549  -2348482.31749  24898516.9254   24898520.3684
 98  2  3  1 26  0.0000000  0  7  4 24  9  5  7  8 16
  21099768.207   -22942406.67749 -17856121.80649  21099768.3244   21099770.8934
  20764481.653   -23292612.04749 -17876196.86849  20764481.5194   20764485.1614
  21667018.821   -19497402.15349 -14658486.94049  21667018.9154   21667021.9094
  21918700.260   -18388900.08449 -12970731.70549  21918699.8404   21918702.9734
  23537751.327    -7725618.94549  -6004663.22149  23537750.4144   23537753.8904
  22261125.264   -13883246.74049 -10801325.31549  22261124.9444   22261128.0754
  24904071.019    -3000155.76749  -2325741.60649  24904070.1614   24904073.4544
 98  2  3  1 26 30.0000000  0  7  4 24  9  5  7  8 16
  21110964.065   -22883572.01849 -17810276.59849  21110964.4634   21110966.7564
  20759681.346   -23317837.73449 -17895853.22349  20759681.0324   20759684.8084
  21676998.496   -19444958.80549 -14617621.99149  21676998.3464   21677001.2014
  21908719.022   -18441351.78249 -13011603.12949  21908718.6404   21908721.5124
  23554227.676    -7639035.14349  -5937195.28849  23554227.3384   23554230.3694
  22255723.996   -13911630.62249 -10823442.60049  22255723.9134   22255726.7434
  24909742.360    -2970352.71849  -2302518.43049  24909740.9454   24909745.7554
 98  2  3  1 27  0.0000000  0  7  4 24  9  5  7  8 16
  21122274.907   -22824133.28449 -17763960.68549  21122275.0634   21122277.5974
  20754995.389   -23342462.47549 -17915041.30949  20754995.1264   20754998.6454
  21687089.370   -19391930.85049 -14576301.50949  21687089.0014   21687092.2594
  21898800.426   -18493474.45349 -13052218.17349  21898800.1264   21898802.7634
  23570727.832    -7552326.04649  -5869629.73649  23570726.8354   23570729.3734
  22250449.074   -13939350.05049 -10845042.13049  22250448.1654   22250451.8504
  24915532.071    -2939927.69749  -2278810.59549  24915531.2274   24915535.2074
 98  2  3  1 27 30.0000000  0  7  4 24  9  5  7  8 16
  21133691.842   -22764136.68149 -17717210.06649  21133691.9404   21133694.3604
  20750411.763   -23366549.49249 -17933810.38649  20750411.2994   20750415.0684
  21697283.585   -19338359.77249 -14534557.80849  21697283.3234   21697286.6234
  21888937.141   -18545306.35449 -13092606.64049  21888936.5654   21888939.4674
  23587239.058    -7465558.97349  -5802019.00949  23587237.0664   23587240.8294
  22245291.202   -13966454.68149 -10866162.59449  22245290.4164   22245293.7934
  24921428.849    -2908939.97049  -2254664.28349  24921429.5534   24921432.3254
 98  2  3  1 28  0.0000000  0  7  4 24  9  5  7  8 16
  21145214.345   -22703585.53649 -17670027.33949  21145214.5534   21145216.9454
  20745928.831   -23390107.25849 -17952167.06449  20745928.6224   20745932.0884
  21707584.282   -19284229.29949 -14492378.21749  21707584.1624   21707587.3194
  21879127.985   -18596853.70949 -13132773.39049  21879127.4754   21879130.4284
  23603761.886    -7378730.33849  -5734360.31549  23603761.2364   23603765.0114
  22240252.765   -13992931.73949 -10886794.04449  22240252.4344   22240254.9644
  24927431.981    -2877393.59249  -2230082.66549  24927431.9984   24927434.6364
 98  2  3  1 28 30.0000000  0  7  4 24  9  5  7  8 16
  21156841.849   -22642482.34049 -17622414.43849  21156842.1234   21156844.3234
  20741548.925   -23413123.58249 -17970101.83949  20741548.8354   20741552.2024
  21717996.485   -19229512.92249 -14449742.07749  21717996.2244   21717999.2694
  21869373.508   -18648113.81749 -13172716.31049  21869373.1284   21869376.2154
  23620297.615    -7291834.37849  -5666649.14749  23620296.5294   23620300.7464
  22235335.942   -14018769.83449 -10906927.59349  22235335.3884   22235338.5164
  24933542.264    -2845284.55049  -2205062.58449  24933541.6784   24933545.7824
 98  2  3  1 29  0.0000000  0  7  4 24  9  5  7  8 16
  21168576.005   -22580818.91549 -17574364.99949  21168576.3304   21168578.5584
  20737274.652   -23435585.01349 -17987604.23349  20737274.3644   20737278.1104
  21728521.180   -19174205.19549 -14406645.14649  21728521.1284   21728524.1164
  21859672.346   -18699093.68449 -13212440.86149  21859671.8144   21859674.6114
  23636848.570    -7204858.50049  -5598875.70949  23636848.2804   23636852.5054
  22230540.056   -14043972.08749 -10926565.69249  22230539.8184   22230542.6954
  24939759.161    -2812614.90249  -2179605.68949  24939758.1454   24939762.0414
 98  2  3  1 29 30.0000000  0  7  4 24  9  5  7  8 16
  21180410.521   -22518628.24949 -17525904.71249  21180410.6374   21180413.1024
  20733102.160   -23457511.44649 -18004689.73549  20733101.9424   20733105.5784
  21739151.079   -19118344.70749 -14363117.48549  21739150.8394   21739154.0964
  21850014.837   -18749844.07649 -13251986.59249  21850014.3604   21850017.1784
  23653412.352    -7117814.98449  -5531049.56849  23653411.4544   23653415.0414
  22225860.487   -14068563.48149 -10945727.78349  22225859.6984   22225863.2894
  24946075.128    -2779424.06349  -2153742.66049  24946074.0524   24946077.6694
 98  2  3  1 30  0.0010000  0  6  4 24  9  5  7  8
  21192347.552   -22455898.58849 -17477024.44249  21192347.6834   21192349.9794
  20729034.358   -23478887.91749 -18021346.70749  20729034.4484   20729038.0474
  21749886.676   -19061928.72749 -14319156.98249  21749886.6474   21749889.3404
  21840400.113   -18800369.58749 -13291357.10749  21840399.5664   21840402.7054
  23669991.609    -7030690.08449  -5463160.00249  23669991.0864   23669993.8024
  22221299.604   -14092530.93749 -10964403.69849  22221299.0154   22221301.9624
 98  2  3  1 30 30.0010000  0  6  4 24  9  5  7  8
  21204392.573   -22392601.40549 -17427701.93549  21204392.7144   21204395.0874
  20725077.050   -23499683.68549 -18037551.17749  20725076.9784   20725080.4264
  21760724.524   -19004975.37849 -14274777.74849  21760724.2344   21760727.4444
  21830830.351   -18850658.82149 -13330543.50149  21830829.7114   21830832.7794
  23686586.118    -6943485.06649  -5395208.00349  23686584.8984   23686589.2584
  22216862.238   -14115849.27649 -10982573.79749  22216862.0864   22216864.5534
 98  2  3  1 31  0.0010000  0  6  4 24  9  5  7  8
  21216548.136   -22328723.45749 -17377926.89149  21216548.2494   21216550.7194
  20721232.158   -23519888.69849 -18053295.31949  20721231.9004   20721235.4744
  21771661.948   -18947498.70349 -14229990.73049  21771661.5624   21771664.5824
  21821305.345   -18900712.90949 -13369546.66649  21821304.5254   21821307.7904
  23703197.177    -6856193.27349  -5327188.40249  23703196.6984   23703199.3974
  22212550.046   -14138510.04249 -11000231.51149  22212549.8424   22212552.7534
 98  2  3  1 31 30.0010000  0  6  4 24  9  5  7  8
  21228811.302   -22264279.93949 -17327711.13949  21228811.5604   21228813.8064
  20717499.965   -23539501.25849 -18068577.80949  20717499.6034   20717503.1294
  21782697.336   -18889507.24149 -14184802.57749  21782696.8634   21782700.3694
  21811824.997   -18950532.48449 -13408367.10049  21811824.4584   21811827.4944
  23719818.492    -6768847.54249  -5259126.78049  23719818.2724   23719819.7854
  22208362.522   -14160515.34649 -11017378.46949  22208361.8614   22208365.1094
 98  2  3  1 32  0.0010000  0  6  4 24  9  5  7  8
  21241179.919   -22199282.42049 -17277063.70349  21241179.9174   21241182.3434
  20713877.580   -23558536.81049 -18083410.68149  20713877.5114   20713880.9564
  21793831.062   -18830998.99949 -14139211.73949  21793830.8854   21793834.0754
  21802387.747   -19000125.23549 -13447010.78549  21802387.2614   21802390.1844
  23736444.607    -6681477.12649  -5191045.89549  23736443.9224   23736447.7764
  22204295.774   -14181885.99549 -11034030.89549  22204295.6564   22204299.2394
 98  2  3  1 32 30.0010000  0  6  4 24  9  5  7  8
  21253654.972   -22133725.47949 -17225980.34849  21253655.1214   21253657.7544
  20710369.518   -23576971.81849 -18097775.60049  20710369.1904   20710372.6924
  21805068.177   -18771947.60949 -14093197.66549  21805068.0954   21805071.0604
  21792999.836   -19049458.85249 -13485452.54849  21792999.3504   21793002.3094
  23753079.895    -6594057.97149  -5122927.05449  23753079.6754   23753081.7294
  22200351.494   -14202613.13249 -11050181.87749  22200351.1074   22200354.2534
 98  2  3  1 33  0.0010000  0  6  4 24  9  5  7  8
  21266227.254   -22067657.54149 -17174498.82149  21266227.3374   21266229.8454
  20706969.099   -23594841.11849 -18111699.70749  20706968.9144   20706972.2304
  21816411.111   -18712340.33949 -14046750.44249  21816411.2534   21816413.8484
  21783659.611   -19098542.04749 -13523699.17749  21783658.9874   21783662.1284
  23769722.452    -6506600.87849  -5054778.64449  23769721.7844   23769724.7794
  22196523.446   -14222729.42749 -11065856.88649  22196522.6674   22196526.5344
 98  2  3  1 33 30.0010000  0  6  4 24  9  5  7  8
  21278889.724   -22001115.63749 -17122647.96749  21278889.8514   21278892.2414
  20703668.789   -23612184.23449 -18125213.79949  20703668.6784   20703672.1854
  21827859.411   -18652179.26049 -13999871.67549  21827859.3374   21827862.2784
  21774364.718   -19147386.89949 -13561760.08749  21774364.1314   21774367.2594
  23786367.678    -6419129.33249  -4986618.96449  23786366.6214   23786370.4474
  22192805.482   -14242267.62149 -11081081.43049  22192804.6414   22192808.4044
 98  2  3  1 34  0.0010000  0  7  4 24  9  5  7  8 30
  21291643.526   -21934093.83449 -17070423.17049  21291643.3824   21291646.1284
  20700470.353   -23628991.88349 -18138310.64149  20700470.1034   20700473.6814
  21839417.532   -18591440.98349 -13952543.14649  21839417.2664   21839420.4054
  21765120.624   -19195965.04149 -13599613.16849  21765120.1514   21765123.1624
  23803022.863    -6331605.83449  -4918418.79949  23803022.7304   23803025.2964
  22189200.059   -14261213.79649 -11095844.65949  22189199.4874   22189202.8464
  24905401.043    -3265013.86749  -2338580.36749  24905401.4194   24905404.1204
 98  2  3  1 34 30.0010000  0  7  4 24  9  5  7  8 30
  21304477.139   -21866652.55449 -17017871.50849  21304477.0774   21304479.6284
  20697365.077   -23645310.08449 -18151026.09949  20697364.8524   20697368.4464
  21851075.714   -18530176.83549 -13904804.84649  21851075.4754   21851078.7094
  21755921.387   -19244307.38949 -13637282.51449  21755920.6904   21755923.5594
  23819682.737    -6244057.52249  -4850199.32849  23819682.9474   23819684.1414
  22185703.421   -14279588.44849 -11110162.54549  22185702.8284   22185706.1944
  24890007.253    -3345907.73149  -2401614.40249  24890006.2974   24890011.3344
 98  2  3  1 35  0.0010000  0  7  4 24  9  5  7  8 30
  21317401.223   -21798735.91649 -16964949.43849  21317401.4304   21317403.9194
  20694361.519   -23661093.60149 -18163324.91949  20694361.2924   20694364.8364
  21862840.750   -18468351.17049 -13856629.00449  21862840.6804   21862843.4814
  21746776.645   -19292363.19849 -13674728.58749  21746776.3004   21746778.9964
  23836356.489    -6156436.72349  -4781923.35949  23836355.8744   23836359.2384
  22182328.049   -14297325.93049 -11123983.93949  22182327.4044   22182330.7314
  24874620.898    -3426762.86249  -2464618.27249  24874620.5294   24874624.2474
 98  2  3  1 35 30.0010000  0  7  4 24  9  5  7  8 30
  21330417.997   -21730332.29949 -16911647.90749  21330418.2694   21330420.6174
  20691462.021   -23676330.34849 -18175197.68549  20691461.7294   20691465.5264
  21874704.774   -18406005.31849 -13808047.82249  21874704.5774   21874707.7724
  21737686.985   -19340129.82949 -13711949.32049  21737686.5034   21737689.1614
  23853041.340    -6068757.34949  -4713601.75049  23853040.4044   23853043.4614
  22179075.047   -14314420.63449 -11137304.46949  22179074.4464   22179077.5294
  24859241.082    -3507584.01849  -2527595.70149  24859240.9364   24859244.8844
 98  2  3  1 36  0.0010000  0  7  4 24  9  5  7  8 30
  21343531.174   -21661422.30249 -16857951.79349  21343531.3414   21343533.6784
  20688669.210   -23691006.50949 -18186633.63349  20688668.9824   20688672.7544
  21886662.174   -18343168.61249 -13759084.15849  21886661.9494   21886664.8464
  21728652.726   -19387604.87249 -13748942.84949  21728651.9874   21728655.1034
  23869735.779    -5981027.18749  -4645240.56649  23869734.6174   23869738.6494
  22175946.387   -14330862.04949 -11150115.95049  22175946.1424   22175949.1324
  24843869.746    -3588360.85749  -2590538.58449  24843868.2084   24843873.6784
 98  2  3  1 36 30.0010000  0  8  4 24  9  5  7  8 30 10
  21356739.116   -21592013.89649 -16803867.30649  21356739.1474   21356741.5294
  20685978.924   -23705144.01849 -18197649.84949  20685978.7054   20685982.3194
  21898703.955   -18279888.77149 -13709775.19349  21898703.8634   21898706.5874
  21719669.272   -19434813.11949 -13785728.47949  21719668.9764   21719671.9724
  23886435.056    -5893271.77949  -4576859.68449  23886434.2864   23886438.2174
  22172937.352   -14346674.76649 -11162437.53749  22172936.8854   22172939.5464
  24828502.812    -3669114.38049  -2653463.32249  24828501.5664   24828506.0164
  24964399.341    -2792160.17049  -1987713.50849  24964397.2174   24964404.1834
 98  2  3  1 37  0.0010000  0  8  4 24  9  5  7  8 30 10
  21370051.000   -21522059.46149 -16749357.33549  21370051.0124   21370053.6094
  20683397.410   -23718710.21749 -18208220.88749  20683397.3724   20683400.9424
  21910832.600   -18216152.29749 -13660110.40549  21910832.3264   21910835.6964
  21710742.248   -19481725.14949 -13822283.28549  21710741.5764   21710744.7084
  23903141.902    -5805476.71649  -4508447.91649  23903141.7494   23903143.7954
  22170049.946   -14361848.30649 -11174261.05449  22170049.3744   22170052.2004
  24813144.491    -3749823.11349  -2716353.12949  24813143.6484   24813147.1224
  24950019.861    -2867724.51349  -2046594.69149  24950018.8114   24950023.8194
 98  2  3  1 37 30.0010000  0  8  4 24  9  5  7  8 30 10
  21383465.305   -21451566.76249 -16694427.94549  21383465.4354   21383467.9264
  20680923.258   -23731712.04849 -18218352.16349  20680922.8554   20680926.4314
  21923049.378   -18151952.73549 -13610084.77849  21923049.0494   21923052.1074
  21701869.630   -19528350.95249 -13858615.06649  21701869.1894   21701871.9794
  23919856.364    -5717641.14249  -4440004.60749  23919855.6594   23919858.4684
  22167281.833   -14376394.65649 -11185595.86549  22167281.3004   22167284.3014
  24797790.281    -3830510.19249  -2779226.11549  24797790.6774   24797793.9214
  24935629.183    -2943347.50449  -2105521.55249  24935628.1444   24935633.4954
 98  2  3  1 38  0.0010000  0  8  4 24  9  5  7  8 30 10
  21396965.896   -21380620.48249 -16639145.10549  21396965.9594   21396968.3674
  20678540.422   -23744233.63349 -18228109.21849  20678540.0154   20678543.6504
  21935345.098   -18087338.16649 -13559735.76249  21935345.0974   21935348.0754
  21693037.264   -19574765.45949 -13894782.19349  21693036.7934   21693039.7104
  23936568.273    -5629819.02649  -4371571.75549  23936567.7994   23936570.9464
  22164618.319   -14390391.17849 -11196502.23249  22164617.8544   22164621.0094
  24782427.756    -3911240.47149  -2842132.80549  24782426.8834   24782430.2714
  24921213.304    -3019103.65549  -2164552.19849  24921212.6244   24921218.3284
 98  2  3  1 38 30.0010000  0  8  4 24  9  5  7  8 30 10
  21410555.977   -21309203.98149 -16583495.86049  21410556.1204   21410558.6734
  20676255.351   -23756241.71149 -18237466.14149  20676255.2064   20676258.7824
  21947728.863   -18022260.93149 -13509026.23649  21947728.5344   21947731.7734
  21684251.129   -19620936.80849 -13930759.85249  21684250.8064   21684253.6124
  23953285.152    -5541971.60049  -4303119.19149  23953284.4364   23953287.6794
  22162065.595   -14403805.60049 -11206955.02049  22162065.3914   22162068.3944
  24767060.404    -3991995.52949  -2905058.78349  24767060.2414   24767063.3074
  24906779.237    -3094954.54949  -2223656.67249  24906778.2164   24906783.1144
 98  2  3  1 39  0.0010000  0  8  4 24  9  5  7  8 30 10
  21424230.393   -21237344.19649 -16527501.19549  21424230.6144   21424232.9464
  20674067.141   -23767740.70149 -18246426.37249  20674066.7514   20674070.3594
  21960202.988   -17956709.04349 -13457946.84749  21960202.8084   21960205.8954
  21675509.806   -19666872.70149 -13966554.03949  21675509.2474   21675512.3344
  23970003.488    -5454116.09549  -4234660.33949  23970003.2624   23970005.9304
  22159621.811   -14416647.85149 -11216961.96449  22159621.4534   22159624.2944
  24751685.816    -4072789.76449  -2968015.31849  24751686.5544   24751688.5544
  24892327.822    -3170896.60549  -2282832.18049  24892326.0914   24892331.2794
 98  2  3  1 39 30.0010000  0  8  4 24  9  5  7  8 30 10
  21437979.638   -21165091.49049 -16471200.35649  21437979.8754   21437982.3494
  20671968.939   -23778766.68149 -18255018.02349  20671968.5944   20671972.1774
  21972765.355   -17890693.62849 -13406506.26549  21972765.2514   21972768.2404
  21666804.692   -19712618.40349 -14002200.01649  21666804.0844   21666807.0034
  23986718.603    -5366277.56449  -4166214.72949  23986719.0004   23986720.7964
  22157281.500   -14428946.25749 -11226545.12449  22157281.1534   22157284.3534
  24736298.875    -4153649.16049  -3031022.64849  24736298.9274   24736302.1054
  24877853.331    -3246960.12049  -2342102.35949  24877852.7114   24877856.4364
 98  2  3  1 40  0.0010000  0  8  4 24  9  5  7  8 30 10
  21451806.897   -21092428.89149 -16414580.12249  21451807.1134   21451809.3764
  20669966.391   -23789289.87249 -18263217.89049  20669966.1904   20669969.8224
  21985420.710   -17824189.10449 -13354684.56249  21985420.1504   21985423.6134
  21658140.736   -19758147.76249 -14037677.41949  21658140.3214   21658143.1224
  24003433.850    -5278437.72149  -4097768.08349  24003433.0594   24003436.8374
  22155050.801   -14440668.93049 -11235679.66949  22155050.9074   22155053.1844
  24720906.762    -4234534.84249  -3094050.44749  24720906.7124   24720908.7584
  24863365.434    -3323094.48749  -2401427.76249  24863364.4614   24863369.1334
 98  2  3  1 40 30.0010000  0  8  4 24  9  5  7  8 30 10
  21465704.868   -21019394.60649 -16357670.26249  21465705.1024   21465707.5284
  20668053.866   -23799340.18449 -18271049.28349  20668053.6044   20668057.0614
  21998160.603   -17757240.41849 -13302516.76149  21998160.5804   21998163.2814
  21649511.005   -19803497.18549 -14073014.61449  21649510.5264   21649513.4314
  24020139.839    -5190647.52749  -4029360.09549  24020138.1844   24020141.7824
  22152923.548   -14451847.60549 -11244390.32349  22152922.9214   22152926.4254
  24705499.203    -4315501.88849  -3157141.66149  24705499.2694   24705500.9604
  24848858.387    -3399329.55849  -2460831.63549  24848857.5344   24848861.8904
 98  2  3  1 41  0.0010000  0  8  4 24  9  5  7  8 30 10
  21479680.746   -20945950.63449 -16300441.17249  21479680.8864   21479683.1214
  20666238.052   -23808882.10549 -18278484.52849  20666237.8814   20666241.1644
  22010991.861   -17689811.78249 -13249974.96849  22010991.8774   22010994.7384
  21640920.575   -19848640.32649 -14108191.06649  21640920.2734   21640922.8784
  24036845.210    -5102859.67249  -3960953.97249  24036845.0484   24036847.4734
  22150908.668   -14462435.99249 -11252641.00749  22150908.2554   22150911.3174
  24690085.966    -4396499.11149  -3220256.39249  24690086.5494   24690088.6574
  24834339.030    -3475628.92849  -2520285.64349  24834338.1954   24834342.5954
 98  2  3  1 41 30.0010000  0  8  4 24  9  5  7  8 30 10
  21493742.686   -20872054.55649 -16242859.79249  21493742.9214   21493745.1904
  20664524.264   -23817887.96249 -18285502.05449  20664524.1484   20664527.7554
  22023917.747   -17621886.02549 -13197045.80849  22023917.5794   22023920.7284
  21632374.902   -19893548.08549 -14143184.10049  21632374.3894   21632377.0894
  24053556.315    -5015041.18849  -3892523.97949  24053556.2894   24053558.2804
  22149012.885   -14472398.37049 -11260403.89049  22149012.3984   22149015.3344
  24674674.837    -4477485.06049  -3283362.32049  24674674.3984   24674677.4294
  24819811.674    -3551971.08049  -2579772.97949  24819810.4334   24819815.4634
 98  2  3  1 42  0.0010000  0  8  4 24  9  5  7  8 30 10
  21507892.788   -20797695.22449 -16184917.43449  21507893.0354   21507895.1474
  20662913.468   -23826352.74549 -18292097.96949  20662913.4834   20662917.0374
  22036935.140   -17553478.92649 -13143741.57949  22036934.9574   22036938.0534
  21623878.158   -19938198.69649 -14177976.76149  21623877.9114   21623880.5424
  24070273.837    -4927190.19649  -3824068.64949  24070273.7364   24070276.4184
  22147236.533   -14481732.93349 -11267677.57049  22147235.8584   22147238.6384
  24659267.673    -4558450.42449  -3346452.17749  24659267.7344   24659271.0914
  24805275.734    -3628356.81049  -2639294.27449  24805274.1864   24805279.3114
 98  2  3  1 42 30.0010000  0  8  4 24  9  5  7  8 30 10
  21522131.526   -20722870.00649 -16126612.04849  21522131.7084   21522134.1114
  20661404.318   -23834283.40949 -18298277.68349  20661404.0284   20661407.7304
  22050040.023   -17484612.56749 -13090079.47849  22050039.6954   22050042.7434
  21615432.698   -19982579.96049 -14212559.53749  21615432.1884   21615434.9244
  24086995.824    -4839315.68649  -3755594.97349  24086994.6314   24086998.5904
  22145578.220   -14490447.34249 -11274468.00849  22145577.8854   22145580.8004
  24643864.025    -4639396.27649  -3409526.87949  24643864.0684   24643867.3314
  24790725.269    -3704819.26649  -2698875.36549  24790724.2394   24790729.6994
 98  2  3  1 43  0.0010000  0  8  4 24  9  5  7  8 30 10
  21536455.123   -20647598.62649 -16067959.01649  21536455.0724   21536457.4514
  20659990.212   -23841714.58949 -18304068.19349  20659990.1164   20659993.5454
  22063225.112   -17415324.31749 -13036088.64249  22063225.1374   22063228.0534
  21607035.477   -20026707.64649 -14246944.72649  21607035.0014   21607037.6024
  24103717.671    -4751440.56149  -3687120.87649  24103716.9344   24103721.1724
  22144033.215   -14498566.39649 -11280794.53749  22144033.1754   22144035.7264
  24628464.804    -4720319.69349  -3472584.06549  24628464.9884   24628468.3234
  24776155.943    -3781381.75749  -2758534.40449  24776155.3754   24776160.8504
 98  2  3  1 43 30.0010000  0  8  4 24  9  5  7  8 30 10
  21550868.190   -20571857.31249 -16008939.79549  21550868.1644   21550870.6074
  20658675.556   -23848623.45649 -18309451.70249  20658675.4074   20658678.7934
  22076493.863   -17345596.54149 -12981755.30849  22076493.5924   22076496.6934
  21598696.269   -20070530.35949 -14281092.26949  21598695.7644   21598698.4904
  24120442.327    -4663552.32049  -3618636.49849  24120441.3964   24120443.4094
  22142604.708   -14506073.58949 -11286644.28949  22142604.1244   22142607.2284
  24613074.271    -4801196.89949  -3535605.19549  24613074.5134   24613076.4314
  24761572.708    -3858016.51649  -2818249.70749  24761570.5914   24761577.0634
 98  2  3  1 44  0.0010000  0  8  4 24  9  5  7  8 30 10
  21565371.575   -20495641.43549 -15949550.78949  21565371.6444   21565374.1234
  20657462.584   -23854997.51749 -18314418.48349  20657462.3864   20657465.6474
  22089847.375   -17275423.28049 -12927074.85049  22089847.2174   22089850.4164
  21590418.704   -20114029.05849 -14314987.33949  21590417.9554   21590420.8594
  24137172.009    -4575637.42349  -3550131.37349  24137171.1344   24137174.3914
  22141297.318   -14512943.68049 -11291997.60049  22141297.1194   22141299.6824
  24597691.696    -4882033.45249  -3598594.65449  24597690.6334   24597694.0124
  24746979.861    -3934701.82249  -2878004.44849  24746978.7934   24746983.1074
 98  2  3  1 44 30.0010000  0  8  4 24  9  5  7  8 30 10
  21579953.974   -20419010.42049 -15889838.30049  21579954.1794   21579956.5334
  20656341.624   -23860888.04749 -18319008.48549  20656341.4024   20656344.7764
  22103275.113   -17204860.12849 -12872090.57449  22103274.9514   22103277.8494
  21582190.878   -20157266.39549 -14348678.74349  21582190.3014   21582192.9564
  24153895.023    -4487757.96049  -3481653.85149  24153895.1164   24153897.8534
  22140101.154   -14519229.46149 -11296895.60449  22140100.7074   22140103.7434
  24582305.629    -4962887.33149  -3661597.60849  24582306.4534   24582308.5934
  24732371.050    -4011471.10749  -2937824.57849  24732370.7464   24732375.5074
 98  2  3  1 45  0.0010000  0  8  4 24  9  5  7  8 30 10
  21594609.800   -20341993.35549 -15829824.99249  21594610.0434   21594612.3414
  20655311.674   -23866300.25549 -18323225.76249  20655311.5254   20655314.8304
  22116775.819   -17133913.41149 -12816807.42049  22116775.6554   22116778.6154
  21574006.187   -20200277.12849 -14382193.57349  21574005.6674   21574008.5194
  24170609.611    -4399922.35349  -3413210.51849  24170608.6364   24170611.5404
  22139013.108   -14524947.00749 -11301350.82349  22139012.6704   22139015.5414
  24566912.160    -5043779.80049  -3724630.59349  24566912.6504   24566916.2014
  24717746.897    -4088321.55249  -2997707.96149  24717745.3714   24717750.2444
 98  2  3  1 45 30.0010000  0  8  4 24  9  5  7  8 30 10
  21609344.365   -20264562.63749 -15769489.36349  21609344.3324   21609346.7584
  20654383.554   -23871177.45549 -18327026.15449  20654383.3984   20654386.6714
  22130359.056   -17062532.87849 -12761186.22449  22130358.6814   22130361.5854
  21565870.862   -20243028.35049 -14415506.18749  21565870.3494   21565873.1424
  24187324.253    -4312085.81949  -3344766.45949  24187323.2654   24187327.2154
  22138041.991   -14530050.20249 -11305327.33349  22138041.5234   22138044.4454
  24551514.574    -5124693.54249  -3787680.16649  24551514.7704   24551517.7844
  24703114.535    -4165214.35749  -3057624.34249  24703114.1204   24703118.5594
 98  2  3  1 46  0.0010000  0  8  4 24  9  5  7  8 30 10
  21624151.198   -20186752.07549 -15708857.75049  21624151.3224   21624153.7354
  20653552.110   -23875546.68749 -18330430.72749  20653551.9244   20653555.1394
  22144021.709   -16990734.93349 -12705239.77249  22144021.5734   22144024.6064
  21557776.559   -20285564.19249 -14448650.97349  21557775.8324   21557778.7744
  24204034.908    -4224271.61649  -3276339.74449  24204034.5064   24204036.7444
  22137182.684   -14534565.83649 -11308846.00349  22137182.1084   22137185.4464
  24536108.505    -5205651.84449  -3850764.43649  24536107.4164   24536112.0324
  24688470.041    -4242171.82049  -3117591.09249  24688468.5394   24688473.8664
 98  2  3  1 46 30.0010000  0  8  4 24  9  5  7  8 30 10
  21639027.956   -20108574.17049 -15647939.89549  21639028.3124   21639030.4694
  20652816.679   -23879411.38449 -18333442.16149  20652816.5034   20652820.0174
  22157765.351   -16918511.64149 -12648961.88449  22157765.0184   22157768.0934
  21549721.410   -20327894.04349 -14481635.25049  21549720.6794   21549723.6974
  24220741.086    -4136479.48149  -3207930.28849  24220740.7104   24220743.2364
  22136432.493   -14538508.16649 -11311917.93949  22136432.3274   22136434.6964
  24520696.672    -5286641.40449  -3913873.10049  24520697.0654   24520700.5324
  24673812.148    -4319199.52949  -3177612.58149  24673811.2064   24673815.5484
 98  2  3  1 47  0.0010000  0  8  4 24  9  5  7  8 30 10
  21653975.759   -20030023.07349 -15586731.23349  21653975.9644   21653978.2164
  20652180.663   -23882753.66849 -18336046.51549  20652180.4334   20652183.6874
  22171593.236   -16845845.55349 -12592338.96049  22171593.3354   22171596.2804
  21541710.500   -20369991.35449 -14514438.32349  21541709.9554   21541712.8644
  24237449.238    -4048677.71849  -3139513.29749  24237448.1444   24237452.0994
  22135798.060   -14541842.16749 -11314515.86449  22135797.2464   22135800.9264
  24505281.473    -5367648.68449  -3976995.54249  24505280.5074   24505284.4004
  24659142.042    -4396290.55449  -3237683.39949  24659141.3724   24659146.1244
 98  2  3  1 47 30.0010000  0  8  4 24  9  5  7  8 30 10
  21668995.551   -19951093.53049 -15525227.68049  21668995.7164   21668998.0634
  20651640.026   -23885594.61149 -18338260.20949  20651639.5774   20651643.0454
  22185503.001   -16772749.37249 -12535380.89649  22185503.2564   22185505.9274
  21533746.671   -20411841.35849 -14547048.68949  21533746.1784   21533748.9464
  24254159.123    -3960866.35449  -3071088.85949  24254159.2654   24254161.9144
  22135279.824   -14544565.33449 -11316637.80049  22135279.2354   22135282.6244
  24489864.366    -5448665.55649  -4040125.48749  24489864.1604   24489867.9854
  24644460.247    -4473443.75649  -3297802.66149  24644458.1374   24644463.6824
 98  2  3  1 48  0.0010000  0  8  4 24  9  5  7  8 30 10
  21684090.858   -19871767.04049 -15463414.80949  21684090.9264   21684093.3424
  20651194.975   -23887933.22849 -18340082.47949  20651194.8354   20651198.1184
  22199493.683   -16699228.05249 -12478091.55649  22199493.5204   22199496.4304
  21525831.980   -20453433.10449 -14579457.81349  21525831.3874   21525834.3094
  24270872.177    -3873038.80149  -3002651.76649  24270872.3654   24270875.1204
  22134877.838   -14546677.75049 -11318283.82849  22134877.0044   22134880.1614
  24474452.868    -5529653.77049  -4103233.11049  24474452.3694   24474455.6134
  24629771.789    -4550631.75849  -3357949.04649  24629771.5144   24629774.8904
 98  2  3  1 48 30.0010000  0  8  4 24  9  5  7  8 30 10
  21699253.892   -19792084.65749 -15401324.62349  21699254.0694   21699256.3834
  20650838.259   -23889807.75749 -18341543.12049  20650838.1424   20650841.5884
  22213552.264   -16625349.62849 -12420523.95549  22213551.7784   22213554.8914
  21517961.168   -20494794.42449 -14611687.38149  21517960.6664   21517963.5974
  24287580.011    -3785238.72849  -2934236.12749  24287579.7384   24287580.8394
  22134586.435   -14548208.82449 -11319476.86549  22134586.0254   22134588.9704
  24459039.126    -5610652.69149  -4166349.08149  24459039.6494   24459041.5014
  24615070.203    -4627888.77949  -3418149.19249  24615069.3924   24615073.9204
 98  2  3  1 49  0.0010000  0  8  4 24  9  5  7  8 30 10
  21714482.624   -19712057.15549 -15338965.52049  21714482.8964   21714485.0434
  20650566.508   -23891236.00549 -18342656.01649  20650566.4704   20650569.6994
  22227673.156   -16551143.87849 -12362701.29649  22227672.7524   22227675.9674
  21510132.511   -20535934.13749 -14643744.27449  21510132.0054   21510134.8204
  24304279.152    -3697484.68649  -2865856.29249  24304278.2984   24304281.8054
  22134401.816   -14549178.94349 -11320232.79749  22134401.2634   22134404.4454
  24443620.343    -5691678.98549  -4229486.37149  24443620.4244   24443622.6364
  24600354.109    -4705222.33749  -3478409.02449  24600353.3604   24600357.1284
 98  2  3  1 49 30.0010000  0  8  4 24  9  5  7  8 30 10
  21729776.790   -19631685.75449 -15276338.43149  21729776.9884   21729779.2234
  20650375.240   -23892241.03649 -18343439.13049  20650374.9934   20650378.4104
  22241853.735   -16476624.42649 -12304634.18849  22241853.4754   22241856.2934
  21502342.540   -20576870.74249 -14675642.89749  21502341.8984   21502344.9064
  24320965.652    -3609795.90149  -2797527.36149  24320966.0664   24320967.2814
  22134315.950   -14549630.31849 -11320584.50949  22134315.2224   22134318.9734
  24428196.074    -5772734.29049  -4292646.28849  24428196.0724   24428198.2794
  24585622.009    -4782639.24649  -3538733.77449  24585621.0794   24585626.5244
 98  2  3  1 50  0.0010000  0  8  4 24  9  5  7  8 30 10
  21745142.599   -19550938.03649 -15213418.10749  21745142.5514   21745144.9524
  20650274.085   -23892772.53249 -18343853.25549  20650273.6334   20650277.1614
  22256103.660   -16401740.56249 -12246283.12649  22256103.2704   22256106.5834
  21494598.476   -20617565.87449 -14707353.35749  21494598.0794   21494600.8634
  24337645.187    -3522144.77749  -2729227.78049  24337644.1504   24337647.3774
  22134335.041   -14549529.76649 -11320506.14049  22134334.5294   22134338.0214
  24412771.772    -5853789.14549  -4355805.86649  24412771.7504   24412773.8774
  24570882.254    -4860097.19049  -3599090.53049  24570880.9434   24570885.4074
 98  2  3  1 50 30.0010000  0  8  4 24  9  5  7  8 30 10
  21760580.947   -19469808.99649 -15150200.65249  21760581.2034   21760583.4074
  20650264.903   -23892820.67649 -18343890.74749  20650264.6994   20650267.9214
  22270428.549   -16326462.76249 -12187625.10049  22270428.4334   22270431.3744
  21486906.368   -20657988.17749 -14738851.22849  21486905.9454   21486908.8414
  24354320.101    -3434517.11549  -2660946.45349  24354318.6964   24354321.4334
  22134462.256   -14548861.48449 -11319985.39549  22134461.7914   22134465.0564
  24397345.715    -5934853.06749  -4418972.49849  24397346.0794   24397349.0694
  24556134.062    -4937598.84149  -3659481.34349  24556132.6834   24556137.4234
 98  2  3  1 51  0.0010000  0  8  4 24  9  5  7  8 30 10
  21776086.775   -19388325.23449 -15086706.79349  21776086.7994   21776089.1244
  20650342.452   -23892413.00049 -18343573.05349  20650342.2564   20650345.4854
  22284826.722   -16250799.78849 -12128666.94149  22284826.6564   22284829.7424
  21479260.501   -20698167.45349 -14770159.72649  21479259.8584   21479262.8164
  24370983.943    -3346946.94749  -2592709.94149  24370982.9604   24370985.9754
  22134687.149   -14547679.70849 -11319064.51849  22134686.6354   22134689.7394
  24381911.137    -6015961.80349  -4482174.06149  24381910.9044   24381913.4494
  24541371.443    -5015176.11649  -3719931.08249  24541370.7534   24541375.1034
 98  2  3  1 51 30.0010000  0  8  4 24  9  5  7  8 30 10
  21791661.037   -19306481.79849 -15022932.67149  21791661.0474   21791663.5834
  20650510.036   -23891532.17549 -18342886.67449  20650509.7804   20650513.0614
  22299298.852   -16174747.95849 -12069405.77449  22299298.5674   22299301.5944
  21471663.217   -20738091.27149 -14801269.16649  21471662.8474   21471665.6014
  24387635.901    -3259440.64449  -2524523.20549  24387634.7524   24387639.0564
  22135012.240   -14545971.04249 -11317733.08449  22135011.6104   22135014.7804
  24366468.912    -6097111.29149  -4545407.39349  24366468.3854   24366472.5834
  24526594.064    -5092831.85349  -3780441.97049  24526593.3534   24526597.7954
 98  2  3  1 52  0.0010000  0  8  4 24  9  5  7  8 30 10
  21807297.870   -19224309.25649 -14958902.09049  21807298.0124   21807300.2564
  20650765.870   -23890187.56249 -18341838.89349  20650765.5924   20650768.9744
  22313837.687   -16098345.98649 -12009871.76549  22313837.6624   22313840.4864
  21464114.048   -20777762.36849 -14832181.67349  21464113.4134   21464116.3854
  24404269.849    -3172028.12849  -2456409.56949  24404269.3064   24404272.6914
  22135437.846   -14543734.37449 -11315990.20949  22135437.2864   22135440.8954
  24351015.309    -6178319.94849  -4608686.78449  24351015.1934   24351018.1824
  24511799.065    -5170580.09149  -3841024.95349  24511797.6064   24511802.6994
 98  2  3  1 52 30.0010000  0  8  4 24  9  5  7  8 30 10
  21822995.574   -19141817.11549 -14894622.47549  21822995.6544   21822998.1104
  20651109.993   -23888379.05149 -18340429.64149  20651109.6644   20651113.0524
  22328439.228   -16021614.55449 -11950081.04049  22328438.8734   22328442.0154
  21456612.663   -20817182.26049 -14862898.44049  21456612.2164   21456614.8924
  24420886.030    -3084709.98849  -2388369.45849  24420886.3824   24420888.8024
  22135964.391   -14540967.50149 -11313834.19349  22135963.9014   22135966.9184
  24335552.372    -6259577.74949  -4672004.49249  24335552.4384   24335554.7184
  24496984.503    -5248430.90849  -3901687.83949  24496983.4214   24496987.7074
 98  2  3  1 53  0.0010000  0  8  4 24  9  5  7  8 30 10
  21838752.519   -19059013.70449 -14830100.32149  21838752.5064   21838754.9474
  20651542.226   -23886107.65549 -18338659.69949  20651541.9054   20651545.1544
  22343099.502   -15944574.17249 -11890049.57849  22343099.3244   22343102.2614
  21449155.489   -20856370.02549 -14893434.33049  21449154.9394   21449157.5684
  24437483.295    -2997491.04449  -2320406.62349  24437482.9534   24437484.5964
  22136594.113   -14537658.26349 -11311255.55749  22136593.7354   22136596.2784
  24320081.864    -6340875.70549  -4735353.49349  24320082.0984   24320084.5954
  24482152.219    -5326374.48649  -3962423.02549  24482151.4294   24482155.2704
 98  2  3  1 53 30.0010000  0  8  4 24  9  5  7  8 30 10
  21854561.284   -18975937.96349 -14765365.95949  21854561.4324   21854563.5544
  20652055.423   -23883410.68249 -18336558.13849  20652055.2704   20652058.4124
  22357811.233   -15867263.29749 -11829807.33849  22357811.1594   22357814.3014
  21441736.421   -20895357.56549 -14923814.19849  21441735.9154   21441738.6264
  24454058.332    -2910388.25149  -2252534.29949  24454057.3984   24454060.9994
  22137326.468   -14533809.91349 -11308256.82949  22137325.9784   22137329.1474
  24304599.615    -6422235.31149  -4798750.49649  24304599.5864   24304602.4194
  24467297.584    -5404435.63549  -4023249.82649  24467296.0834   24467300.8104
 98  2  3  1 54  0.0010000  0  8  4 24  9  5  7  8 30 10
  21870423.925   -18892579.39049 -14700411.21649  21870423.9614   21870426.2634
  20652651.123   -23880280.17149 -18334118.75849  20652650.9274   20652654.2294
  22372582.856   -15789637.94849 -11769320.05449  22372582.8034   22372585.7744
  21434359.707   -20934122.17249 -14954020.35949  21434359.0124   21434361.7664
  24470619.916    -2823356.30049  -2184717.23749  24470619.8824   24470621.8544
  22138166.236   -14529396.66949 -11304817.91849  22138165.6374   22138168.7054
  24289111.962    -6503623.18449  -4862169.56849  24289112.3974   24289115.3044
  24452427.255    -5482579.71949  -4084141.24749  24452426.3774   24452430.5404
 98  2  3  1 54 30.0010000  0  8  4 24  9  5  7  8 30 10
  21886344.764   -18808914.73449 -14635217.94749  21886345.0394   21886347.3304
  20653331.322   -23876705.75849 -18331333.47949  20653331.3364   20653334.5024
  22387422.139   -15711657.01649 -11708555.69449  22387421.9304   22387425.3624
  21427027.386   -20972653.57749 -14984044.80349  21427026.8684   21427029.6944
  24487174.663    -2736360.81249  -2116928.52549  24487174.5424   24487178.0194
  22139118.207   -14524393.69549 -11300919.48349  22139117.2384   22139120.7144
  24273622.217    -6585022.15549  -4925597.25949  24273622.3614   24273625.4164
  24437545.413    -5560784.26449  -4145079.78849  24437544.7404   24437548.4314
 98  2  3  1 55  0.0010000  0  8  4 24  9  5  7  8 30 10
  21902320.818   -18724960.03149 -14569798.68049  21902320.7394   21902323.2804
  20654090.061   -23872718.40549 -18328226.42949  20654089.9014   20654093.0534
  22402324.638   -15633343.71049 -11647532.33949  22402324.4344   22402327.4934
  21419735.360   -21010973.18549 -15013904.21149  21419734.8364   21419737.6004
  24503719.830    -2649415.22949  -2049178.71149  24503718.8584   24503721.3694
  22140178.691   -14518820.69649 -11296576.87149  22140178.1744   22140181.6004
  24258126.039    -6666454.92849  -4989051.29949  24258125.2194   24258129.1604
  24422650.885    -5639054.80049  -4206069.73049  24422649.6714   24422653.9644
 98  2  3  1 55 30.0010000  0  8  4 24  9  5  7  8 30 10
  21918347.907   -18640737.09549 -14504170.40049  21918347.7644   21918350.1704
  20654923.809   -23868336.89049 -18324812.23849  20654923.7444   20654926.6334
  22417288.168   -15554709.62549 -11586259.03149  22417287.9444   22417291.2564
  21412482.823   -21049085.51049 -15043602.09649  21412482.2274   21412484.9734
  24520253.340    -2562530.84949  -1981476.58549  24520251.7834   24520255.9764
  22141342.461   -14512704.94849 -11291811.34249  22141342.0884   22141345.0074
  24242621.098    -6747933.47249  -5052541.00949  24242621.5724   24242624.2664
  24407741.300    -5717405.13249  -4267121.84349  24407739.7034   24407744.5354
 98  2  3  1 56  0.0010000  0  8  4 24  9  5  7  8 30 10
  21934442.584   -18556158.70349 -14438265.14149  21934443.0214   21934445.1254
  20655849.076   -23863474.66549 -18321023.46449  20655848.9934   20655852.1454
  22432327.856   -15475675.51949 -11524674.01049  22432327.8434   22432331.3214
  21405288.293   -21086892.81249 -15073062.30149  21405287.8684   21405290.6484
  24536790.315    -2475627.65949  -1913759.84649  24536789.9244   24536792.9674
  22142624.867   -14505965.84049 -11286560.07149  22142624.7504   22142627.6064
  24227125.518    -6829362.89049  -5115992.44949  24227125.6004   24227128.3034
  24392834.536    -5795739.61349  -4328161.59649  24392833.5434   24392837.6644
 98  2  3  1 56 30.0010000  0  8  4 24  9  5  7  8 30 10
  21950599.334   -18471254.53649 -14372106.03149  21950599.4664   21950601.6334
  20656859.111   -23858166.70749 -18316887.37249  20656859.0244   20656861.7844
  22447432.590   -15396299.71549 -11462822.73949  22447432.6464   22447435.7634
  21398143.126   -21124440.75149 -15102320.41349  21398142.6744   21398145.2004
  24553321.772    -2388754.87149  -1846066.72749  24553321.5594   24553323.9684
  22144016.900   -14498650.68249 -11280859.93449  22144016.3264   22144019.3824
  24211631.243    -6910785.96349  -5179438.94549  24211631.8164   24211633.7864
  24377924.553    -5874091.81949  -4389215.19749  24377923.0954   24377928.0984
 98  2  3  1 57  0.0010000  0  8  4 24  9  5  7  8 30 10
  21966829.977   -18385961.89049 -14305644.21149  21966830.2004   21966832.3024
  20657970.907   -23852324.18349 -18312334.73349  20657970.7444   20657973.8214
  22462615.204   -15316514.74849 -11400652.63849  22462615.3654   22462618.0604
  21391062.044   -21161652.06049 -15131316.21649  21391061.5764   21391064.2414
  24569859.800    -2301846.92249  -1778346.23849  24569859.0714   24569862.6414
  22145529.455   -14490702.13649 -11274666.23849  22145528.9594   22145532.1314
  24196152.716    -6992125.66249  -5242820.47149  24196153.0524   24196156.6144
  24363024.196    -5952393.85949  -4450229.67949  24363022.8404   24363026.1994
 98  2  3  1 57 30.0010000  0  8  4 24  9  5  7  8 30 10
  21983129.562   -18300306.89049 -14238900.03949  21983129.6464   21983131.8414
  20659181.808   -23845960.88349 -18307376.29349  20659181.7564   20659184.7854
  22477871.415   -15236342.85749 -11338181.03649  22477871.4734   22477874.4944
  21384041.243   -21198546.44249 -15160065.06149  21384040.7074   21384043.4284
  24586400.451    -2214925.59049  -1710615.29349  24586398.5904   24586402.1404
  22147157.979   -14482144.05249 -11267997.58249  22147157.2824   22147160.6424
  24180685.243    -7073407.57349  -5306156.97649  24180685.5004   24180688.6004
  24348128.774    -6030669.42049  -4511223.54549  24348128.0724   24348132.3584
 98  2  3  1 58  0.0010000  0  8  4 24  9  5  7  8 30 10
  21999493.700   -18214312.66349 -14171891.53549  21999493.9374   21999496.2384
  20660487.291   -23839100.51449 -18302030.53349  20660487.1724   20660490.4004
  22493195.337   -15155815.36449 -11275432.34849  22493195.3354   22493198.3334
  21377074.774   -21235155.28449 -15188591.41249  21377074.4294   21377077.1774
  24602937.729    -2128021.00749  -1642897.47149  24602936.6714   24602940.6954
  22148895.968   -14473011.04449 -11260880.94449  22148895.5394   22148898.7434
  24165222.939    -7154661.89949  -5369472.00349  24165222.2354   24165226.2144
  24333232.863    -6108947.24649  -4572219.18349  24333230.9054   24333236.4164
 98  2  3  1 58 30.0010000  0  8  4 24  9  5  7  8 30 10
  22015912.684   -18128030.29149 -14104658.49649  22015912.8514   22015915.0144
  20661881.096   -23831775.85149 -18296322.97849  20661880.8784   20661883.9514
  22508577.977   -15074979.18249 -11212443.11349  22508577.5964   22508580.8824
  21370153.262   -21271528.28649 -15216933.98549  21370152.7314   21370155.4874
  24619464.054    -2041175.50949  -1575225.62549  24619462.3114   24619466.0924
  22150734.535   -14463349.35749 -11253352.33749  22150733.9864   22150737.0404
  24149755.072    -7235945.26449  -5432809.64049  24149755.7924   24149757.6914
  24318325.955    -6187283.17349  -4633260.07949  24318324.4744   24318328.9814
 98  2  3  1 59  0.0010000  0  8  4 24  9  5  7  8 30 10
  22032387.704   -18041453.44849 -14037196.00749  22032387.8254   22032389.9934
  20663365.945   -23823972.88049 -18290242.72449  20663365.6604   20663368.8764
  22524020.255   -14993829.20649 -11149209.37449  22524020.0854   22524023.0164
  21363280.657   -21307644.06449 -15245076.13249  21363280.1094   21363282.8054
  24635982.237    -1954370.73949  -1507585.52449  24635981.2354   24635985.6624
  22152677.376   -14453139.35449 -11245396.47649  22152677.1814   22152680.0034
  24134283.675    -7317247.89149  -5496162.29749  24134283.6834   24134286.1904
  24303411.277    -6265660.02449  -4694332.88449  24303410.2494   24303414.3944
 98  2  3  1 59 30.0010000  0  8  4 24  9  5  7  8 30 10
  22048922.311   -17954563.37249 -13969489.44049  22048922.4894   22048924.5094
  20664941.154   -23815694.99049 -18283792.39349  20664940.8894   20664944.1534
  22539524.792   -14912352.03449 -11085720.67049  22539524.5124   22539527.8354
  21356461.202   -21343480.27249 -15273000.42749  21356460.6704   21356463.4064
  24652497.118    -1867584.14349  -1439959.62349  24652497.7014   24652499.6524
  22154728.696   -14442359.66249 -11236996.69949  22154728.1814   22154731.5154
  24118813.169    -7398545.91249  -5559511.36649  24118813.4934   24118816.6904
  24288493.652    -6344052.33549  -4755417.71449  24288492.4874   24288497.2614
 98  2  3  2  0  0.0010000  0  8  4 24  9  5  7  8 30 10
  22065524.934   -17867315.98649 -13901504.44749  22065525.1754   22065527.3004
  20666615.338   -23806896.99649 -18276936.79149  20666615.0204   20666618.3394
  22555102.782   -14830489.14149 -11021931.41349  22555102.6874   22555105.6744
  21349705.283   -21378982.98349 -15300664.85949  21349704.6374   21349707.3894
  24669017.107    -1780771.94749  -1372313.72349  24669016.8954   24669018.1634
  22156896.020   -14430970.40849 -11228121.94449  22156895.2914   22156898.8784
  24103354.392    -7479782.31549  -5622812.43849  24103355.4744   24103357.5604
  24273582.267    -6422412.32149  -4816477.37549  24273581.1994   24273585.9034
 98  2  3  2  0 30.0010000  0  8  4 24  9  5  7  8 30 10
  22082168.989   -17779851.07549 -13833349.96249  22082169.0524   22082171.1094
  20668362.745   -23797714.07949 -18269781.25249  20668362.5404   20668365.6924
  22570728.023   -14748378.10549 -10957948.78649  22570728.0804   22570731.2754
  21342988.488   -21414279.97949 -15328168.99249  21342987.9074   21342990.6374
  24685514.575    -1694077.39349  -1304759.48949  24685514.1144   24685517.8264
  22159154.977   -14419099.48049 -11218871.85749  22159154.6764   22159157.9334
  24087883.081    -7561084.47949  -5686164.73149  24087883.7854   24087886.1354
  24258653.026    -6500865.98649  -4877610.02249  24258652.0154   24258656.4374
 98  2  3  2  1  0.0010000  0  8  4 24  9  5  7  8 30 10
  22098864.920   -17692113.44149 -13764982.95249  22098865.0044   22098867.0914
  20670192.369   -23788099.24949 -18262289.15249  20670192.1144   20670195.4384
  22586411.390   -14665961.58049 -10893728.12149  22586411.4234   22586414.5324
  21336323.779   -21449303.24049 -15355459.82249  21336323.1914   21336325.9664
  24701999.204    -1607449.63749  -1237257.40249  24701997.6934   24702002.1774
  22161515.374   -14406695.35149 -11209206.28349  22161515.3324   22161518.0564
  24072411.400    -7642388.92649  -5749518.81949  24072411.5264   24072413.7844
  24243721.004    -6579333.82349  -4938753.72449  24243719.5924   24243723.9424
 98  2  3  2  1 30.0010000  0  8  4 24  9  5  7  8 30 10
  22115622.951   -17604049.20249 -13696361.45249  22115623.0434   22115625.1964
  20672116.015   -23777990.28249 -18254412.01449  20672115.7324   20672118.9004
  22602164.531   -14583178.57949 -10829221.88949  22602164.4374   22602167.4194
  21329723.192   -21483989.47049 -15382488.03849  21329722.6904   21329725.3134
  24718479.229    -1520846.33749  -1169774.28249  24718479.7734   24718481.8614
  22163988.171   -14393700.81849 -11199080.65849  22163987.4514   22163990.4784
  24056950.066    -7723638.59049  -5812830.20649  24056951.1694   24056952.2324
  24228796.112    -6657764.30849  -4999868.30549  24228794.5154   24228799.2634
 98  2  3  2  2  0.0010000  0  8  4 24  9  5  7  8 30 10
  22132445.253   -17515647.28649 -13627476.83049  22132445.4174   22132447.7154
  20674139.980   -23767354.05649 -18246124.02349  20674139.6014   20674142.8504
  22617988.543   -14500023.03449 -10764425.36549  22617988.3234   22617991.7204
  21323190.039   -21518321.39849 -15409240.17149  21323189.3734   21323192.0724
  24734957.518    -1434252.31349  -1102298.42849  24734957.2954   24734961.1224
  22166576.487   -14380098.90949 -11188481.74949  22166576.1894   22166579.3324
  24041500.079    -7804829.06649  -5876095.47249  24041501.0354   24041503.4214
  24213881.877    -6736138.58649  -5060939.08649  24213881.1294   24213885.3014
 98  2  3  2  2 30.0010000  0  8  4 24  9  5  7  8 30 10
  22149322.635   -17426956.03849 -13558366.75849  22149322.8634   22149325.1094
  20676255.604   -23756236.15849 -18237460.70549  20676255.2964   20676258.5114
  22633871.805   -14416555.94749 -10699386.07949  22633871.8674   22633874.6184
  21316715.548   -21552344.90949 -15435751.98249  21316715.1154   21316717.7944
  24751427.796    -1347700.48549  -1034855.42249  24751427.1744   24751431.4614
  22169277.426   -14365905.58449 -11177422.00249  22169277.0194   22169280.1044
  24026054.276    -7885997.60549  -5939343.64949  24026054.7084   24026057.1734
  24198973.273    -6814483.74549  -5121987.19649  24198972.1504   24198976.4584
 98  2  3  2  3  0.0010000  0  8  4 24  9  5  7  8 30 10
  22166261.829   -17337939.81149 -13489003.45549  22166261.8264   22166264.2744
  20678468.289   -23744608.43649 -18228400.11949  20678468.1244   20678471.2654
  22649818.872   -14332753.72449 -10634085.65049  22649818.4274   22649821.7384
  21310305.963   -21586027.61849 -15461998.22849  21310305.4034   21310308.2804
  24767898.649    -1261144.48749   -967409.22049  24767897.8014   24767902.2274
  22172097.156   -14351087.64349 -11165875.53449  22172096.8074   22172099.9634
  24010619.757    -7967106.60849  -6002545.41149  24010619.9844   24010622.4344
  24184075.600    -6892771.58649  -5182990.62749  24184074.5344   24184078.9504
 98  2  3  2  3 30.0010000  0  8  4 24  9  5  7  8 30 10
  22183259.378   -17248617.11549 -13419401.34149  22183259.4594   22183261.7484
  20680773.382   -23732495.11949 -18218961.15049  20680773.3794   20680776.5204
  22665824.077   -14248645.36449 -10568546.67549  22665823.8674   22665826.5584
  21303954.967   -21619402.29149 -15488004.45049  21303954.4494   21303956.9424
  24784368.932    -1174591.95149   -899965.67949  24784367.5594   24784371.5054
  22175033.059   -14335659.31749 -11153853.44949  22175032.3754   22175035.8344
  23995196.643    -8048155.60949  -6065700.42849  23995196.5314   23995198.8524
  24169182.341    -6971035.79249  -5243975.65649  24169181.8044   24169185.3274
 98  2  3  2  4  0.0010000  0  8  4 24  9  5  7  8 30 10
  22200310.375   -17159013.57549 -13349580.38949  22200310.5154   22200312.8224
  20683165.633   -23719923.66649 -18209165.19149  20683165.4824   20683168.5834
  22681883.296   -14164253.23949 -10502786.57749  22681883.5094   22681886.4134
  21297657.835   -21652493.99549 -15513790.17049  21297657.3394   21297659.9264
  24800838.707    -1088042.84349   -832524.81949  24800838.8774   24800842.6504
  22178082.334   -14319635.03849 -11141366.98849  22178081.6844   22178084.4994
  23979785.887    -8129139.41649  -6128804.64349  23979785.7004   23979788.1344
  24154292.539    -7049282.15649  -5304946.78449  24154291.4424   24154295.8234
 98  2  3  2  4 30.0010000  0  8  4 24  9  5  7  8 30 10
  22217416.796   -17069118.44849 -13279532.22649  22217417.0624   22217419.0634
  20685642.507   -23706907.48249 -18199022.68849  20685642.3384   20685645.4724
  22697997.857   -14079570.89149 -10436800.33549  22697998.0134   22698000.8564
  21291414.699   -21685301.88949 -15539354.74349  21291414.3114   21291416.8484
  24817306.533    -1001504.66249   -765092.52249  24817306.2064   24817309.9394
  22181246.484   -14303007.39149 -11128410.37449  22181245.9934   22181249.1564
  23964390.725    -8210041.37049  -6191845.07849  23964391.1474   23964393.7964
  24139406.671    -7127506.62249  -5365900.87049  24139405.8174   24139409.7704
 98  2  3  2  5  0.0010000  0  8  4 24  9  5  7  8 30 10
  22234600.897   -16978815.54749 -13209166.31949  22234601.2264   22234603.3244
  20688222.335   -23693350.27549 -18188458.60949  20688221.9924   20688225.0544
  22714187.877   -13994491.97549 -10370505.07949  22714187.4654   22714190.4814
  21285246.624   -21717715.22349 -15564611.87049  21285246.1114   21285248.5104
  24833788.559     -914891.74149   -697601.92249  24833788.8264   24833789.9134
  22184536.231   -14285719.60349 -11114939.35449  22184535.7064   22184538.2444
  23949026.672    -8290780.29349  -6254758.46649  23949026.8744   23949029.3994
  24124541.344    -7205624.24749  -5426771.69149  24124540.2484   24124545.1894
 98  2  3  2  5 30.0010000  0  8  4 24  9  5  7  8 30 10
  22251846.851   -16888187.46549 -13138547.01949  22251846.9374   22251849.3944
  20690891.223   -23679325.38349 -18177530.09849  20690891.0444   20690894.0724
  22730442.011   -13909075.99749 -10303947.17249  22730441.9724   22730444.6904
  21279140.064   -21749805.20149 -15589617.02549  21279139.5484   21279142.1344
  24850269.208     -828285.59349   -630116.61049  24850268.1474   24850272.7624
  22187937.585   -14267845.30449 -11101011.31849  22187937.3314   22187939.8904
  23933677.551    -8371440.42249  -6317610.45649  23933677.7104   23933679.5474
  24109683.554    -7283702.54649  -5487611.87849  24109683.2844   24109686.9194
 98  2  3  2  6  0.0010000  0  8  4 24  9  5  7  8 30 10
  22269150.892   -16797253.82049 -13067689.62749  22269150.8984   22269153.1284
  20693647.306   -23664841.98449 -18166244.31349  20693647.2764   20693650.2194
  22746760.768   -13823320.39949 -10237124.63649  22746760.6354   22746763.9634
  21273095.307   -21781570.44849 -15614369.14849  21273094.7434   21273097.4874
  24866743.948     -741710.36749   -562655.45749  24866743.3624   24866746.6224
  22191446.639   -14249405.08549 -11086642.30249  22191446.4614   22191449.2384
  23918336.097    -8452060.01949  -6380430.87349  23918336.1904   23918338.6584
  24094834.132    -7361736.71749  -5548417.69649  24094833.1544   24094837.4794
 98  2  3  2  6 30.0010000  0  8  4 24  9  5  7  8 30 10
  22286510.112   -16706030.48449 -12996606.49749  22286510.2604   22286512.6394
  20696486.975   -23649919.38549 -18154616.29549  20696486.6404   20696489.8524
  22763138.168   -13737256.58049 -10170061.92449  22763137.8484   22763141.0034
  21267109.559   -21813025.63349 -15638879.66949  21267108.8774   21267111.5614
  24883206.263     -655199.78449   -495244.57949  24883205.5954   24883207.6534
  22195056.255   -14230436.62949 -11071861.67949  22195055.7534   22195058.7784
  23902995.632    -8532674.23749  -6443247.10049  23902995.6604   23902998.3204
  24079989.578    -7439745.44549  -5609203.70449  24079989.5004   24079992.2764
 98  2  3  2  7  0.0010000  0  8  4 24  9  5  7  8 30 10
  22303922.378   -16614528.25749 -12925306.04649  22303922.5064   22303924.6874
  20699415.058   -23634532.13149 -18142626.20449  20699414.8334   20699418.0734
  22779572.348   -13650894.51549 -10102766.81249  22779572.1704   22779575.5894
  21261185.746   -21844155.24549 -15663136.49249  21261185.3384   21261187.9004
  24899660.083     -568734.41149   -427868.93349  24899659.9744   24899664.2034
  22198769.253   -14210924.62349 -11056657.50649  22198768.6224   22198771.8344
  23887660.078    -8613263.14749  -6506043.61249  23887660.5274   23887663.3384
  24065154.803    -7517702.85549  -5669949.69749  24065154.0314   24065157.8564
 98  2  3  2  7 30.0010000  0  8  4 24  9  5  7  8 30 10
  22321378.835   -16522793.86549 -12853824.69549  22321378.7914   22321381.5434
  20702430.097   -23618687.82649 -18130279.97349  20702430.0864   20702433.0744
  22796057.986   -13564261.98449 -10035260.95249  22796057.4584   22796060.9984
  21255320.520   -21874977.13149 -15687153.53149  21255319.8984   21255322.6074
  24916104.766     -482317.35449   -360530.98649  24916104.1604   24916107.9984
  22202588.701   -14190853.13849 -11041017.38349  22202588.3684   22202591.1944
  23872330.228    -8693822.18649  -6568816.83249  23872330.6694   23872332.3544
  24050330.223    -7595606.52249  -5730653.84449  24050329.1444   24050333.3034
 98  2  3  2  8  0.0010000  0  8  4 24  9  5  7  8 30 10
  22338881.908   -16430814.37749 -12782152.34949  22338881.6044   22338884.1754
  20705533.406   -23602379.86749 -18117572.44849  20705533.1484   20705536.2284
  22812592.061   -13477374.92849  -9967556.75349  22812591.7314   22812594.7634
  21249516.924   -21905475.17549 -15710918.22449  21249516.5164   21249518.9954
  24932539.394     -395951.96849   -293233.31249  24932539.2324   24932542.9144
  22206515.141   -14170219.66749 -11024939.34249  22206514.8104   22206517.7174
  23857010.411    -8774328.12049  -6631548.68649  23857010.8854   23857013.4674
  24035518.528    -7673442.24849  -5791305.04249  24035517.9274   24035520.9604
 98  2  3  2  8 30.0010000  0  8  4 24  9  5  7  8 30 10
  22356435.963   -16338567.18849 -12710271.40849  22356436.1014   22356438.4544
  20708728.456   -23585589.51249 -18104489.03649  20708728.3064   20708731.3864
  22829174.858   -13390231.68449  -9899652.93049  22829174.9914   22829177.6554
  21243780.347   -21935621.30749 -15734408.69749  21243779.8074   21243782.4484
  24948968.572     -309616.67149   -225959.10049  24948967.7994   24948971.9564
  22210554.411   -14148993.30249 -11008399.30849  22210553.8844   22210556.8524
  23841708.123    -8854742.03849  -6694208.83749  23841708.6094   23841710.4414
  24020721.685    -7751199.96349  -5851895.45149  24020720.9814   24020724.7604
 98  2  3  2  9  0.0010000  0  8  4 24  9  5  7  8 30 10
  22374035.204   -16246082.45549 -12638205.37249  22374035.4484   22374037.6254
  20712010.381   -23568342.89649 -18091050.09549  20712010.1944   20712013.1514
  22845805.116   -13302839.18749  -9831554.88849  22845804.8684   22845808.0424
  21238105.509   -21965442.68149 -15757646.11849  21238105.1264   21238107.4014
  24965387.692     -223332.81149   -158724.97349  24965387.4024   24965389.6484
  22214703.894   -14127187.56249 -10991407.81749  22214703.4014   22214706.4744
  23826417.100    -8935096.68249  -6756822.80049  23826417.2454   23826419.5754
  24005933.065    -7828914.31749  -5912452.07749  24005932.6994   24005935.8424
 98  2  3  2  9 30.0010000  0  8  4 24  9  5  7  8 30 10
  22391681.196   -16153351.91349 -12565947.79249  22391681.5314   22391683.6394
  20715375.420   -23550659.31449 -18077270.65749  20715375.2444   20715378.2134
  22862487.334   -13215173.44349  -9763243.92249  22862487.1794   22862490.3274
  21232491.798   -21994942.72249 -15780633.14149  21232491.3924   21232493.9844
  24981797.076     -137101.64349    -91531.81049  24981797.2624   24981798.0034
  22218959.232   -14104825.65749 -10973982.94349  22218958.8654   22218961.6024
  23811134.274    -9015408.04849  -6819403.03149  23811134.3654   23811137.0414
  23991150.100    -7906599.46949  -5972985.93949  23991148.7334   23991152.1714
 98  2  3  2 10  0.0010000  0  8  4 24  9  5  7  8 30 10
  22409377.106   -16060359.44549 -12493486.11549  22409377.4114   22409379.5114
  20718824.266   -23532535.54849 -18063148.22049  20718824.0574   20718827.0084
  22879224.793   -13127217.66749  -9694706.95349  22879224.8024   22879227.5924
  21226938.894   -22024123.52549 -15803371.41149  21226938.3964   21226941.0514
  24998197.366      -50917.93149    -24375.69249  24998196.5394   24998200.3724
  22223318.698   -14081916.50049 -10956131.63949  22223317.9374   22223321.0614
  23795860.555    -9095671.94649  -6881946.28749  23795861.0484   23795863.5144
  23976372.520    -7984256.06449  -6033497.55849  23976371.6934   23976375.4004
 98  2  3  2 10 30.0010000  0  7  4 24  9  5  8 30 10
  22427119.900   -15967120.41849 -12420832.31149  22427120.0584   22427122.3904
  20722357.322   -23513969.16649 -18048680.88949  20722357.1114   20722360.1404
  22896018.225   -13038967.76649  -9625940.80249  22896018.1564   22896021.0534
  21221442.008   -22053009.74049 -15825880.13349  21221441.2824   21221444.0214
  22227782.122   -14058460.84649 -10937854.49349  22227781.1874   22227784.7494
  23780595.057    -9175892.14849  -6944455.50249  23780595.1974   23780597.1694
  23961599.576    -8061888.05549  -6093989.99149  23961598.5514   23961602.7434
 98  2  3  2 11  0.0010000  0  7  4 24  9  5  8 30 10
  22444897.350   -15873699.39849 -12348036.69649  22444897.6314   22444899.7314
  20725963.196   -23495019.99749 -18033915.28549  20725962.8944   20725966.0794
  22912855.594   -12950487.05249  -9556994.79149  22912855.2804   22912858.0114
  21215988.100   -22081670.05549 -15848212.82649  21215987.6074   21215990.0074
  22232335.633   -14034531.84249 -10919208.50349  22232335.0054   22232338.1954
  23765325.975    -9256131.62749  -7006979.71449  23765326.1974   23765328.2694
  23946822.122    -8139543.97449  -6154501.08249  23946821.6304   23946825.2194
 98  2  3  2 11 30.0010000  0  7  4 24  9  5  8 30 10
  22462707.783   -15780105.12249 -12275106.07549  22462708.0014   22462710.2014
  20729643.001   -23475682.40549 -18018847.01649  20729642.7574   20729645.7374
  22929733.789   -12861791.34149  -9487881.25549  22929733.5664   22929737.0574
  21210579.396   -22110092.84149 -15870360.43249  21210578.9324   21210581.5424
  22236978.516   -14010133.22749 -10900196.58349  22236978.2804   22236981.0544
  23750058.514    -9336362.51349  -7069497.24149  23750058.5774   23750061.3054
  23932043.814    -8217204.40749  -6215015.68049  23932043.0314   23932047.3744
 98  2  3  2 12  0.0010000  0  8  4 24  9  5  8 30  6 10
  22480551.053   -15686338.06549 -12202040.82349  22480551.1384   22480553.3984
  20733396.655   -23455956.75549 -18003476.36849  20733396.3084   20733399.4744
  22946647.922   -12772906.74749  -9418620.53049  22946647.7364   22946650.8614
  21205215.733   -22138279.19649 -15892323.80749  21205215.1654   21205217.7484
  22241714.856   -13985243.53549 -10880802.00049  22241714.5514   22241717.2884
  23734795.821    -9416567.93349  -7131994.93349  23734795.9034   23734798.2774
  25455383.363    -3741769.36749  -2905742.14649  25455384.0544   25455387.7934
  23917266.614    -8294859.05549  -6275525.76349  23917265.4224   23917269.5044
 98  2  3  2 12 30.0010000  0  8  4 24  9  5  8 30  6 10
  22498429.398   -15592386.78049 -12128832.01749  22498429.5914   22498431.6424
  20737224.053   -23435843.51649 -17987803.70449  20737224.0884   20737226.8854
  22963596.453   -12683841.64749  -9349219.15949  22963596.3834   22963599.2754
  21199901.685   -22166204.55049 -15914083.80549  21199901.1344   21199903.7204
  22246547.598   -13959847.58449 -10861012.93549  22246547.4164   22246549.8514
  23719538.263    -9496746.50549  -7194471.69249  23719539.1054   23719540.8944
  25444706.732    -3797875.12149  -2949460.83949  25444707.4264   25444710.5264
  23902494.335    -8372487.82749  -6336015.67349  23902493.3884   23902497.1294
 98  2  3  2 13  0.0010000  0  8  4 24  9  5  8 30  6 10
  22516344.946   -15498239.85249 -12055470.75849  22516345.0994   22516347.5844
  20741124.226   -23415347.97049 -17971833.12449  20741124.0594   20741127.1584
  22980581.419   -12594585.14949  -9279668.64449  22980581.3654   22980584.2284
  21194642.809   -22193840.20149 -15935618.05749  21194642.3544   21194644.7794
  22251477.760   -13933939.28949 -10840824.63849  22251477.3834   22251479.9224
  23704286.586    -9576894.47449  -7256924.60549  23704286.5944   23704289.1334
  25434013.478    -3854068.80349  -2993248.04649  25434014.2484   25434016.0894
  23887728.183    -8450083.83149  -6396480.05449  23887727.2014   23887731.4264
 98  2  3  2 13 30.0010000  0  8  4 24  9  5  8 30  6 10
  22534295.442   -15403909.26649 -11981966.38949  22534295.2924   22534297.9274
  20745095.045   -23394481.07449 -17955573.18449  20745094.8704   20745097.9794
  22997602.865   -12505136.94749  -9209968.74649  22997602.8314   22997605.8134
  21189438.240   -22221190.39949 -15956929.88049  21189437.8974   21189440.2314
  22256505.482   -13907518.08749 -10820236.66949  22256505.1724   22256507.9334
  23689040.857    -9657010.77249  -7319352.85049  23689041.0684   23689043.8214
  25423301.314    -3910360.76949  -3037111.87749  25423301.3754   25423305.1634
  23872967.282    -8527652.96949  -6456923.48649  23872966.4094   23872970.1824
 98  2  3  2 14  0.0010000  0  8  4 24  9  5  8 30  6 10
  22552286.746   -15309364.22749 -11908294.91649  22552286.7374   22552288.9714
  20749139.668   -23373226.26949 -17939010.97749  20749139.4304   20749142.3904
  23014664.787   -12415476.08549  -9140103.14549  23014664.6794   23014667.9064
  21184291.981   -22248234.07849 -15978002.86049  21184291.3904   21184294.0014
  22261634.094   -13880567.13849 -10799235.92049  22261633.6324   22261636.4504
  23673802.248    -9737089.93049  -7381752.13949  23673802.4684   23673804.7094
  25412573.796    -3966734.59549  -3081039.47149  25412572.9724   25412577.1414
  23858214.727    -8605178.71649  -6517333.11249  23858213.6824   23858217.1984
 98  2  3  2 14 30.0010000  0  8  4 24  9  5  8 30  6 10
  22570315.124   -15214624.40949 -11834471.67349  22570314.9364   22570317.9444
  20753257.394   -23351587.40549 -17922149.50749  20753257.1094   20753260.1424
  23031767.495   -12325600.78049  -9070070.43749  23031767.2094   23031770.4624
  21179206.545   -22274958.00549 -15998826.68349  21179205.9214   21179208.4724
  22266858.093   -13853114.88149 -10777844.54049  22266857.9054   22266860.6644
  23658568.136    -9817145.74549  -7444133.25549  23658567.8844   23658570.1154
  25401834.422    -4023169.21349  -3125014.42349  25401833.8964   25401837.8404
  23843468.965    -8682667.80849  -6577714.16549  23843467.8814   23843471.7444
 98  2  3  2 15  0.0020000  0  8  4 24  9  5  8 30  6 10
  22588369.197   -15119749.58249 -11760543.21749  22588369.1874   22588371.6974
  20757441.642   -23329599.03249 -17905015.69249  20757441.5524   20757444.3324
  23048904.950   -12235542.45849  -8999895.12649  23048904.9054   23048908.2124
  21174174.120   -22301403.58249 -16019433.61049  21174173.6954   21174176.0364
  22272169.458   -13825203.61649 -10756095.48649  22272168.7284   22272172.0464
  23643332.188    -9897211.23249  -7506521.90649  23643332.1924   23643335.5344
  25391077.802    -4079696.27349  -3169061.37149  25391077.1034   25391080.8214
  23828721.577    -8760165.79649  -6638102.14149  23828720.5504   23828724.7264
 98  2  3  2 15 30.0020000  0  8  4 24  9  5  8 30  6 10
  22606458.790   -15024687.98849 -11686469.23849  22606459.1744   22606461.2724
  20761707.304   -23307182.91149 -17887548.56449  20761706.9694   20761710.1714
  23066086.115   -12145254.58749  -8929540.93649  23066085.4714   23066089.0094
  21169209.607   -22327492.50849 -16039762.62749  21169209.3114   21169211.6784
  22277580.326   -13796769.24949 -10733938.82149  22277579.7724   22277582.3444
  23628108.235    -9977213.53349  -7568861.30949  23628108.3414   23628110.8184
  25380315.373    -4136252.97549  -3213131.43149  25380314.9744   25380319.0614
  23813988.684    -8837587.12149  -6698430.38549  23813987.9394   23813991.3154
 98  2  3  2 16  0.0020000  0  8  4 24  9  5  8 30  6 10
  22624608.376   -14929311.15849 -11612149.61949  22624608.3404   22624610.6824
  20766078.108   -23284213.95149 -17869650.65749  20766077.9434   20766081.1524
  23083331.290   -12054630.48649  -8858924.75549  23083331.3324   23083333.8724
  21164338.906   -22353088.27849 -16059707.36849  21164338.4634   21164340.8314
  22283112.889   -13767695.20149 -10711283.71049  22283112.5624   22283115.2534
  23612916.908   -10057044.33149  -7631067.07949  23612917.1084   23612919.8474
  25369572.447    -4192707.35649  -3257121.78349  25369571.1914   25369575.4954
  23799292.852    -8914814.47749  -6758607.48249  23799291.9934   23799296.1574
 98  2  3  2 16 30.0020000  0  8  4 24  9  5  8 30  6 10
  22642793.579   -14833747.28549 -11537684.25949  22642793.7204   22642796.1394
  20770534.264   -23260796.58049 -17851403.34049  20770534.1484   20770537.3364
  23100618.253   -11963786.83449  -8788137.49549  23100618.5954   23100621.4954
  21159541.711   -22378297.73949 -16079351.08849  21159541.1544   21159543.6374
  22288747.099   -13738087.30049 -10688212.61249  22288746.5924   22288749.8714
  23597735.582   -10136822.88749  -7693232.14649  23597735.7674   23597738.1094
  25358829.612    -4249160.76249  -3301111.35649  25358829.1184   25358832.8524
  23784613.684    -8991954.05249  -6818716.17649  23784612.7154   23784616.7104
 98  2  3  2 17  0.0020000  0  8  4 24  9  5  8 30  6 10
  22661022.059   -14737955.74549 -11463041.48949  22661022.1814   22661024.4964
  20775083.759   -23236888.93649 -17832773.98849  20775083.3794   20775086.6074
  23117952.144   -11872696.99449  -8717158.39049  23117951.9954   23117955.1904
  21154820.184   -22403109.35649 -16098684.79849  21154819.6334   21154822.0644
  22294490.679   -13707904.32049 -10664693.39349  22294490.2864   22294493.3334
  23582571.347   -10216511.01949  -7755326.73749  23582571.8754   23582574.3224
  25348091.112    -4305590.88549  -3345082.77649  25348090.7924   25348094.4224
  23769959.044    -9068964.72149  -6878724.43349  23769958.2904   23769961.7534
 98  2  3  2 17 30.0020000  0  8  4 24  9  5  8 30  6 10
  22679299.351   -14641907.94749 -11388199.03749  22679299.6284   22679301.7224
  20779726.282   -23212492.19049 -17813763.52349  20779726.1154   20779729.2004
  23135333.237   -11781358.92449  -8645985.86349  23135332.8224   23135336.2304
  21150173.801   -22427526.07749 -16117710.79849  21150173.1504   21150175.6614
  22300344.540   -13677142.02149 -10640722.75849  22300344.0334   22300346.9144
  23567427.045   -10296095.07949  -7817340.25349  23567426.9004   23567429.2384
  25337360.073    -4361982.57749  -3389024.28349  25337359.5714   25337364.1674
  23755332.294    -9145828.72049  -6938618.39749  23755331.7164   23755335.1604
 98  2  3  2 18  0.0020000  0  8  4 24  9  5  8 30  6 10
  22697632.726   -14545565.32349 -11313126.85349  22697633.0464   22697634.8364
  20784468.398   -23187572.33949 -17794345.44949  20784468.3224   20784471.3774
  23152770.522   -11689725.35749  -8574583.08549  23152770.1014   23152773.4194
  21145605.085   -22451534.73149 -16136418.82849  21145604.3734   21145607.0894
  22306317.817   -13645752.09949 -10616263.07049  22306316.8884   22306320.1194
  23552312.422   -10375522.81149  -7879231.95049  23552313.4934   23552315.1234
  25326645.343    -4418288.65749  -3432899.09249  25326645.7984   25326648.2264
  23740741.450    -9222503.57849  -6998364.98949  23740740.7874   23740744.6634
 98  2  3  2 18 30.0020000  0  8  4 24  9  5  8 30  6 10
  22716016.450   -14448958.27149 -11237848.62749  22716017.2784   22716018.5334
  20789304.154   -23162160.08749 -17774543.68149  20789304.0044   20789306.9174
  23170261.898   -11597807.43549  -8502958.72749  23170261.5524   23170264.9944
  21141104.048   -22475187.78449 -16154849.76549  21141103.4994   21141105.9864
  22312406.646   -13613755.01849 -10591330.26749  22312406.3034   22312409.1594
  23537227.441   -10454794.63849  -7941002.15649  23537227.4274   23537230.0854
  25315938.297    -4474553.98049  -3476742.10949  25315937.9014   25315942.5244
  23726184.916    -9298998.73649  -7057971.55249  23726183.9754   23726187.0164
 98  2  3  2 19  0.0020000  0  8  4 24  9  5  8 30  6 10
  22734433.161   -14352177.75049 -11162435.22249  22734433.6494   22734435.6814
  20794210.385   -23136377.61549 -17754453.41649  20794210.1684   20794213.2994
  23187787.044   -11505712.02349  -8431196.06749  23187786.7594   23187790.1644
  21136647.382   -22498607.69249 -16173099.02749  21136646.8744   21136649.4544
  22318590.981   -13581256.20149 -10566006.50049  22318590.5114   22318593.3824
  23522157.309   -10533988.15449  -8002711.34449  23522156.8004   23522159.2804
  25305215.710    -4530901.14949  -3520648.93949  25305216.3034   25305218.9764
  23711643.872    -9375411.94449  -7117514.26449  23711643.2914   23711646.3964
 98  2  3  2 19 30.0020000  0  8  4 24  9  5  8 30  6 10
  22752892.079   -14255175.56649 -11086849.10249  22752892.3204   22752894.3884
  20799194.296   -23110186.81249 -17734044.98149  20799193.9184   20799197.0734
  23205354.446   -11413394.32749  -8359260.20849  23205353.7284   23205357.4404
  21132247.688   -22521728.33749 -16191115.10449  21132247.1504   21132249.6814
  22324880.910   -13548202.26249 -10540250.17849  22324880.5174   22324883.4104
  23507111.043   -10613056.46849  -8064322.96249  23507110.6364   23507113.5164
  25294484.506    -4587293.41649  -3564590.93949  25294485.0824   25294488.4564
  23697126.706    -9451700.18149  -7176959.59549  23697125.5114   23697128.9464
 98  2  3  2 20  0.0020000  0  8  4 24  9  5  8 30  6 10
  22771372.200   -14158062.14749 -11011176.29849  22771371.8874   22771374.0204
  20804238.466   -23083679.59149 -17713389.98749  20804238.2264   20804241.1934
  23222945.119   -11320954.84149  -8287229.43449  23222945.1004   23222948.0294
  21127889.225   -22544631.93049 -16208962.04649  21127888.6774   21127891.2374
  22331257.961   -13514690.68749 -10514137.25049  22331257.3424   22331260.4304
  23492070.427   -10692094.97249  -8125911.35849  23492070.6784   23492073.7344
  25283722.762    -4643846.71949  -3608658.40649  25283722.6834   25283727.0234
  23682613.095    -9527969.71849  -7236390.35449  23682611.9894   23682615.6834
 98  2  3  2 20 30.0020000  0  8  4 24  9  5  8 30  6 10
  22789890.855   -14060745.76649 -10935345.34649  22789891.4464   22789892.7014
  20809357.039   -23056781.17749 -17692430.16849  20809356.8824   20809359.8274
  23240574.095   -11228314.10149  -8215041.84049  23240573.5264   23240576.4184
  21123594.370   -22567201.53049 -16226548.73649  21123593.7904   21123596.4144
  22337735.472   -13480650.82349 -10487612.66849  22337735.2884   22337738.1594
  23477050.461   -10771025.29449  -8187415.45849  23477050.6264   23477052.9424
  25272944.056    -4700488.84849  -3652795.10149  25272944.2454   25272947.2394
  23668115.737    -9604153.54449  -7295754.32949  23668115.1654   23668117.9774
 98  2  3  2 21  0.0020000  0  8  4 24  9  5  8 30  6 10
  22808446.473   -13963235.24649 -10859363.11349  22808446.6514   22808448.9584
  20814550.066   -23029491.43249 -17671165.41849  20814549.8274   20814552.8174
  23258239.084   -11135483.34649  -8142706.18849  23258238.9464   23258242.3054
  21119369.208   -22589404.88049 -16243850.03649  21119368.7254   21119371.2064
  22344313.734   -13446081.86549 -10460675.80949  22344313.3644   22344316.1374
  23462047.000   -10849869.03449  -8248852.09349  23462046.4034   23462049.3194
  25262150.144    -4757211.05749  -3696994.16049  25262150.5774   25262154.9714
  23653630.001    -9680276.01949  -7355070.48849  23653629.3434   23653632.8134
 98  2  3  2 21 30.0020000  0  8  4 24  9  5  8 30  6 10
  22827036.718   -13865542.80849 -10783239.12949  22827037.1114   22827038.6224
  20819820.838   -23001793.30649 -17649582.45149  20819820.6284   20819823.6344
  23275941.417   -11042457.06549  -8070218.17749  23275941.3314   23275944.2094
  21115219.772   -22611210.09149 -16260841.10249  21115219.2684   21115221.7464
  22350993.186   -13410981.31649 -10433324.72349  22350992.8904   22350995.6914
  23447058.138   -10928636.01649  -8310228.91349  23447058.7894   23447061.1724
  25251344.805    -4813993.94049  -3741240.51649  25251345.1874   25251348.4634
  23639155.336    -9756340.79149  -7414341.68049  23639155.1234   23639157.2294
 98  2  3  2 22  0.0020000  0  8  4 24  9  5  8 30  6 10
  22845656.643   -13767694.47649 -10706993.66949  22845657.0414   22845658.8134
  20825168.372   -22973691.72949 -17627685.10149  20825168.3564   20825171.2644
  23293679.968   -10949240.40349  -7997581.80849  23293679.3314   23293683.2614
  21111142.909   -22632634.12849 -16277535.14649  21111142.4204   21111144.7934
  22357770.408   -13375367.05049 -10405573.33649  22357769.9984   22357773.0354
  23432081.863   -11007337.00449  -8371554.32249  23432081.5774   23432084.5694
  25240528.799    -4870832.26949  -3785530.03649  25240527.0574   25240531.4764
  23624690.216    -9832355.23549  -7473573.66149  23624690.2574   23624693.5264
 98  2  3  2 22 30.0020000  0  8  4 24  9  5  8 30  6 10
  22864301.589   -13669714.55849 -10630645.67249  22864301.8834   22864303.3134
  20830588.682   -22945207.97349 -17605489.94649  20830588.3644   20830591.4694
  23311451.074   -10855852.52249  -7924812.02949  23311451.4784   23311454.0354
  21107135.278   -22653694.40549 -16293945.73749  21107134.6154   21107137.1464
  22364640.425   -13339264.89549 -10377441.77749  22364639.9524   22364642.8394
  23417112.967   -11085998.99249  -8432849.33249  23417113.1804   23417115.3274
  25229699.618    -4927739.33949  -3829873.14049  25229699.4824   25229703.6574
  23610235.627    -9908314.52949  -7532762.67349  23610234.5654   23610238.3264
 98  2  3  2 23  0.0020000  0  8  4 24  9  5  8 30  6 10
  22882967.519   -13571624.37249 -10554211.75449  22882967.3514   22882969.2994
  20836081.346   -22916343.68149 -17582998.26649  20836081.0714   20836084.0824
  23329251.565   -10762310.64749  -7851922.25349  23329251.4154   23329254.1644
  21103191.052   -22674421.43549 -16310096.64849  21103190.4554   21103192.9944
  22371602.665   -13302677.85149 -10348932.38349  22371602.0924   22371604.7654
  23402151.606   -11164621.30949  -8494113.43549  23402151.8874   23402154.0274
  25218859.002    -4984707.10349  -3874263.51349  25218858.7174   25218862.3134
  23595796.745    -9984191.23749  -7591887.33249  23595795.1214   23595799.1834
 98  2  3  2 23 30.0020000  0  8  4 24  9  5  8 30  6 10
  22901675.089   -13473315.29849 -10477607.27849  22901675.3004   22901677.3374
  20841664.418   -22887004.51449 -17560136.56549  20841664.3764   20841667.2264
  23347098.811   -10668522.81049  -7778840.81649  23347099.1404   23347101.2204
  21099323.333   -22694746.26449 -16325934.17449  21099322.6834   21099325.3144
  22378674.319   -13265516.03349 -10319975.11349  22378673.5674   22378676.9854
  23387220.475   -11243084.94449  -8555253.89149  23387220.6944   23387222.9474
  25208025.100    -5041639.26749  -3918626.14649  25208024.7284   25208027.9644
  23581398.238   -10059855.65749  -7650846.58149  23581397.3784   23581401.3834
 98  2  3  2 24  0.0020000  0  8  4 24  9  5  8 30  6 10
  22920415.641   -13374833.03249 -10400867.84049  22920415.5664   22920417.7064
  20847325.808   -22857253.76649 -17536954.15049  20847325.6574   20847328.6684
  23364981.619   -10574548.15249  -7705613.81249  23364981.1304   23364984.8824
  21095520.474   -22714730.26149 -16341506.11349  21095520.0254   21095522.3894
  22385843.909   -13227839.50449 -10290616.76149  22385843.4934   22385846.0024
  23372311.303   -11321433.00249  -8616304.27949  23372311.8054   23372313.7954
  25197185.806    -5098599.62849  -3963010.75949  25197186.2714   25197189.1774
  23567032.948   -10135345.25549  -7709669.60449  23567032.9434   23567035.2284
 98  2  3  2 24 30.0020000  0  8  4 24  9  5  8 30  6 10
  22939181.194   -13276219.29649 -10324025.96149  22939181.4354   22939183.4834
  20853053.896   -22827152.47549 -17513498.57949  20853053.8514   20853056.7344
  23382887.325   -10480452.88749  -7632292.83049  23382886.5344   23382890.2634
  21091775.446   -22734410.61949 -16356841.44649  21091775.1384   21091777.5514
  22393102.017   -13189697.67749 -10260895.84849  22393101.6184   22393104.1764
  23357418.306   -11399696.11149  -8677288.49249  23357418.5064   23357420.8204
  25186330.487    -5155644.55849  -4007461.24849  25186330.4864   25186333.7924
  23552691.910   -10210708.01149  -7768393.78149  23552691.0214   23552695.1674
 98  2  3  2 25  0.0020000  0  8  4 24  9  5  8 30  6 10
  22957972.337   -13177471.46649 -10247079.59349  22957972.2774   22957974.0144
  20858847.946   -22796704.42249 -17489772.80849  20858847.7004   20858850.8504
  23400813.006   -10386252.80049  -7558890.16149  23400813.0744   23400815.7514
  21088087.478   -22753791.09949 -16371943.10249  21088087.0314   21088089.4744
  22400450.598   -13151080.41249 -10230804.45949  22400449.8614   22400452.9494
  23342543.525   -11477863.64549  -8738198.23149  23342544.0334   23342545.9404
  25175459.893    -5212769.74649  -4051974.29249  25175459.0824   25175463.0604
  23538370.654   -10285966.80249  -7827036.95749  23538370.2354   23538373.1594
 98  2  3  2 25 30.0020000  0  8  4 24  9  5  8 30  6 10
  22976796.968   -13078547.24349 -10169995.77049  22976797.3544   22976799.0864
  20864715.446   -22765870.45949 -17465746.32649  20864715.1784   20864718.2434
  23418768.288   -10291897.42549  -7485366.49549  23418768.2444   23418771.0384
  21084470.464   -22772798.78349 -16386754.27149  21084469.9754   21084472.5284
  22407896.556   -13111951.72149 -10200314.54949  22407896.1964   22407899.0764
  23327694.753   -11555894.24649  -8799001.27149  23327694.6834   23327697.1834
  25164579.948    -5269943.75549  -4096525.36849  25164579.4644   25164582.9584
  23524075.923   -10361086.00349  -7885571.35049  23524074.7824   23524079.3014
 98  2  3  2 26  0.0020000  0  8  4 24  9  5  8 30  6 10
  22995668.017   -12979379.29649 -10092722.04349  22995668.2704   22995670.4014
  20870670.817   -22734574.64149 -17441359.95849  20870670.7654   20870673.7654
  23436769.921   -10197298.55449  -7411653.08549  23436770.0624   23436772.6534
  21080946.041   -22791319.56549 -16401186.03649  21080945.5554   21080947.9594
  22415456.123   -13072225.98249 -10169359.41749  22415455.3734   22415458.8434
  23312885.401   -11633717.98849  -8859643.12449  23312885.7754   23312887.8594
  25153708.182    -5327075.54349  -4141043.54949  25153708.3304   25153711.2384
  23509822.653   -10435986.83649  -7943935.59449  23509821.9894   23509825.5384
 98  2  3  2 26 30.0020000  0  8  4 24  9  5  8 30  6 10
  23014574.956   -12880022.87649 -10015301.44949  23014575.4314   23014577.2494
  20876706.123   -22702858.80549 -17416646.30749  20876705.8574   20876708.8114
  23454808.312   -10102506.77349  -7337789.35549  23454807.8244   23454810.8674
  21077505.029   -22809401.90949 -16415276.16249  21077504.5974   21077507.0044
  22423121.021   -13031946.30449 -10137972.64449  22423120.1974   22423123.3714
  23298106.661   -11711380.32249  -8920159.20249  23298106.7564   23298109.1494
  25142838.055    -5384197.27649  -4185553.86449  25142837.9754   25142841.5014
  23495602.472   -10510713.98249  -8002164.50549  23495601.6634   23495605.3174
 98  2  3  2 27  0.0020000  0  8  4 24  9  5  8 30  6 10
  23033518.928   -12780471.40349  -9937728.86549  23033519.4364   23033521.1484
  20882822.749   -22670715.56249 -17391599.61549  20882822.4934   20882825.5854
  23472888.289   -10007495.75949  -7263754.79349  23472888.0084   23472890.5314
  21074146.575   -22827050.71249 -16429028.46749  21074146.0524   21074148.4724
  22430891.451   -12991112.33549 -10106153.95249  22430890.7274   22430893.7704
  23283357.373   -11788888.50049  -8980555.15649  23283357.1474   23283359.6494
  25131973.231    -5441292.43549  -4230043.48449  25131973.4674   25131976.0984
  23481421.460   -10585236.03749  -8060233.60449  23481420.2214   23481424.2834
 98  2  3  2 27 30.0020000  0  8  4 24  9  5  8 30  6 10
  23052494.422   -12680754.55649  -9860027.41949  23052494.4404   23052496.4574
  20889015.477   -22638172.58449 -17366241.43549  20889015.1264   20889018.0904
  23491007.280    -9912280.02049  -7189560.70749  23491007.6144   23491010.0354
  21070866.198   -22844289.19649 -16442461.04349  21070865.8734   21070868.1994
  22438759.752   -12949763.98849 -10073934.45049  22438759.4704   22438762.2814
  23268632.034   -11866270.68449  -9040852.93449  23268632.0014   23268633.9124
  25121107.820    -5498389.96649  -4274534.96949  25121107.7594   25121110.7994
  23467277.936   -10659560.73649  -8118148.92349  23467277.4524   23467280.3914
 98  2  3  2 28  0.0020000  0  8  4 24  9  5  8 30  6 10
  23071505.691   -12580849.66649  -9782179.44449  23071506.4084   23071508.0804
  20895291.381   -22605192.35249 -17340542.54349  20895291.3414   20895294.3884
  23509167.351    -9816848.09449  -7115198.16849  23509166.9124   23509170.1354
  21067665.609   -22861108.42749 -16455566.93249  21067665.1394   21067667.5254
  22446729.533   -12907882.40949 -10041299.44449  22446729.2734   22446731.7424
  23253937.603   -11943490.56449  -9101024.25249  23253937.8844   23253939.8834
  25110247.915    -5555459.47149  -4319004.62249  25110246.7884   25110250.4464
  23453177.045   -10733661.47249  -8175889.72349  23453176.3844   23453179.6584
 98  2  3  2 28 30.0020000  0  8  4 24  9  5  8 30  6 10
  23090546.586   -12480789.11949  -9704210.18249  23090546.7674   23090548.3974
  20901646.522   -22571795.82149 -17314519.25749  20901646.4314   20901649.3034
  23527359.830    -9721245.69249  -7040702.79149  23527359.3684   23527362.2644
  21064535.056   -22877559.70749 -16468386.10049  21064534.5564   21064537.0154
  22454792.630   -12865510.66649 -10008282.48949  22454792.0114   22454795.0594
  23239270.755   -12020565.38749  -9161082.52649  23239270.6284   23239272.9164
  25099382.299    -5612558.49849  -4363497.27949  25099381.0804   25099385.2504
  23439113.132   -10807567.56049  -8233478.85249  23439112.0104   23439115.3034
 98  2  3  2 29  0.0020000  0  8  4 24  9  5  8 30  6 10
  23109621.012   -12380552.61449  -9626103.80049  23109621.0324   23109623.1354
  20908085.944   -22537956.48349 -17288150.93249  20908085.7634   20908088.7524
  23545589.049    -9625450.15649  -6966056.92249  23545588.6984   23545591.7354
  21061479.818   -22893615.00349 -16480896.71449  21061479.2214   21061481.7714
  22462953.515   -12822624.80649  -9974864.93149  22462953.1414   22462955.8454
  23224634.951   -12097476.77349  -9221013.45749  23224635.4794   23224637.1584
  25088512.663    -5669678.09649  -4408005.96949  25088511.5354   25088515.7844
  23425091.246   -10881252.72149  -8290895.83249  23425090.2974   23425093.5984
 98  2  3  2 29 30.0020000  0  8  4 24  9  5  8 30  6 10
  23128727.090   -12280149.82049  -9547867.84849  23128726.9264   23128729.2274
  20914612.487   -22503659.07849 -17261425.67449  20914612.2454   20914615.4074
  23563851.578    -9529479.79449  -6891274.82649  23563851.5154   23563854.4834
  21058503.822   -22909254.01049 -16493082.95149  21058503.3024   21058505.7914
  22471213.228   -12779219.61249  -9941042.69949  22471212.5434   22471215.5864
  23210033.668   -12174206.92849  -9280803.16449  23210033.3384   23210035.3404
  25077637.264    -5726827.62349  -4452538.03149  25077636.4144   25077640.1804
  23411109.485   -10954726.67049  -8348148.22349  23411108.5174   23411111.7234
 98  2  3  2 30  0.0020000  0  8  4 24  9  5  8 30  6 10
  23147860.919   -12179600.84949  -9469518.00049  23147861.1194   23147862.8334
  20921222.825   -22468921.57149 -17234357.47349  20921222.5794   20921225.6264
  23582142.801    -9433359.28849  -6816375.73149  23582142.3334   23582145.6614
  21055604.293   -22924490.98649 -16504955.91149  21055603.7994   21055606.3094
  22479569.766   -12735305.73949  -9906824.08449  22479569.3784   22479572.3804
  23195464.767   -12250766.44849  -9340459.91149  23195464.8644   23195466.4084
  25066752.948    -5784025.07949  -4497107.40849  25066752.3884   25066755.1314
  23397165.211   -11028003.73849  -8405247.20949  23397164.7504   23397167.9274
 98  2  3  2 30 30.0020000  0  8  4 24  9  5  8 30  6 10
  23167021.164   -12078912.79549  -9391059.77349  23167021.4254   23167023.3224
  20927912.113   -22433768.95449 -17206965.81249  20927911.8784   20927914.9904
  23600462.915    -9337086.04649  -6741357.62349  23600462.4704   23600465.5634
  21052782.053   -22939322.03449 -16516512.56449  21052781.5534   21052784.0294
  22488024.869   -12690873.94649  -9872201.89949  22488024.4254   22488027.3484
  23180926.328   -12327166.29949  -9399992.24049  23180926.8484   23180928.9984
  25055858.166    -5841277.48649  -4541719.64349  25055857.3614   25055861.8334
  23383256.975   -11101092.20349  -8462199.22649  23383256.6284   23383259.6124
 98  2  3  2 31  0.0020000  0  8  4 24  9  5  8 30  6 10
  23186206.813   -11978091.46949  -9312497.69849  23186207.3034   23186209.0724
  20934675.408   -22398227.50549 -17179271.17049  20934675.2564   20934678.2294
  23618812.331    -9240659.11649  -6666219.76249  23618812.0774   23618815.1734
  21050038.877   -22953737.62849 -16527745.48949  21050038.5124   21050040.7784
  22496576.895   -12645932.85649  -9837182.86249  22496576.4244   22496579.4004
  23166416.209   -12403417.73649  -9459408.92949  23166416.1444   23166418.5664
  25044956.361    -5898565.85949  -4586359.88749  25044956.8774   25044959.1464
  23369381.143   -11174010.72749  -8519018.83749  23369380.5844   23369383.6674
 98  2  3  2 31 30.0020000  0  8  4 24  9  5  8 30  6 10
  23205418.541   -11877133.14549  -9233828.86849  23205418.4834   23205421.2204
  20941509.416   -22362314.49949 -17151286.99949  20941509.1454   20941512.0434
  23637191.958    -9144073.40249  -6590958.16949  23637192.1124   23637195.4674
  21047375.375   -22967734.34549 -16538652.01349  21047374.8564   21047377.2084
  22505224.538   -12600489.05149  -9801772.09549  22505224.1784   22505226.8834
  23151937.964   -12479501.15449  -9518694.68049  23151937.9074   23151940.4154
  25034048.025    -5955889.32749  -4631027.50649  25034047.6694   25034051.7564
  23355537.208   -11246761.03149  -8575707.35149  23355536.5294   23355539.5264
 98  2  3  2 32  0.0020000  0  8  4 24  9  5  8 30  6 10
  23224658.656   -11776025.60049  -9155043.75549  23224658.7434   23224661.2734
  20948411.082   -22326045.78849 -17123025.65549  20948410.9974   20948414.1014
  23655604.051    -9047317.28949  -6515563.79149  23655604.3164   23655606.9524
  21044789.755   -22981321.80149 -16549239.63449  21044789.4154   21044791.8114
  22513969.573   -12554533.56149  -9765962.61649  22513968.8244   22513971.7734
  23137490.836   -12555421.37349  -9577853.26949  23137491.2684   23137493.2024
  25023135.940    -6013232.95049  -4675710.80849  25023135.6744   25023137.7904
  23341726.040   -11319338.92049  -8632261.52849  23341726.0494   23341728.5784
 98  2  3  2 32 30.0020000  0  8  4 24  9  5  8 30  6 10
  23243927.433   -11674767.37049  -9076141.24149  23243927.3344   23243929.1684
  20955380.218   -22289422.79749 -17094488.25349  20955380.0324   20955383.1254
  23674047.594    -8950395.99649  -6440040.71949  23674047.4584   23674050.8274
  21042280.146   -22994509.81749 -16559516.00249  21042279.6434   21042282.0394
  22522809.918   -12508077.18649  -9729762.84449  22522809.4634   22522812.5734
  23123071.591   -12631194.91649  -9636897.56949  23123072.1204   23123073.1464
  25012220.952    -6070591.13149  -4720405.47449  25012222.1794   25012223.4974
  23327946.129   -11391753.03449  -8688688.07749  23327945.0404   23327948.3964
 98  2  3  2 33  0.0020000  0  8  4 24  9  5  8 30  6 10
  23263224.086   -11573362.62549  -8997124.55649  23263223.7454   23263226.2774
  20962417.310   -22252442.53849 -17065672.45549  20962417.0614   20962420.1574
  23692518.725    -8853329.66349  -6364404.61249  23692519.2004   23692521.8694
  21039844.606   -23007308.75149 -16569489.19249  21039843.9794   21039846.4514
  22531742.694   -12461135.27349  -9693184.72049  22531742.2294   22531745.0304
  23108679.037   -12706828.41149  -9695832.73949  23108679.0544   23108681.5664
  25001303.098    -6127964.77749  -4765112.17849  25001302.7484   25001305.8944
  23314199.789   -11463990.59349  -8744977.05349  23314198.6264   23314201.7244
 98  2  3  2 33 30.0020000  0  8  4 24  9  5  8 30  6 10
  23282549.565   -11471806.63249  -8917990.01049  23282549.8964   23282551.5954
  20969527.371   -22215078.88649 -17036557.91149  20969527.3584   20969530.2024
  23711016.021    -8756125.87149  -6288661.40649  23711015.4664   23711018.2404
  21037481.576   -23019726.22649 -16579165.14149  21037481.0754   21037483.4564
  22540770.059   -12413696.22849  -9656219.22749  22540769.6404   22540772.3134
  23094313.705   -12782318.76649  -9754656.37349  23094313.5394   23094315.3274
  24990382.038    -6185355.35949  -4809832.10049  24990380.6494   24990385.7234
  23300492.629   -11536022.05149  -8801105.43149  23300491.6354   23300494.7974
 98  2  3  2 34  0.0020000  0  8  4 24  9  5  8 30  6 10
  23301904.543   -11370095.54449  -8838734.61749  23301904.4674   23301906.6904
  20976714.798   -22177308.64149 -17007126.54349  20976714.5234   20976717.5764
  23729536.840    -8658797.99949  -6212821.50549  23729536.7644   23729539.4974
  21035192.044   -23031757.87049 -16588540.44649  21035191.5904   21035193.9584
  22549892.961   -12365754.99149  -9618862.41749  22549892.3844   22549895.2674
  23079973.846   -12857675.02349  -9813375.50949  23079974.0164   23079976.1524
  24979460.096    -6242750.47149  -4854555.54749  24979460.3494   24979463.5264
  23286825.655   -11607842.62649  -8857069.48749  23286824.8474   23286827.3354
 98  2  3  2 34 30.0020000  0  8  4 24  9  5  8 30  6 10
  23321287.770   -11268236.12549  -8759363.63549  23321287.8784   23321290.0064
  20983982.354   -22139117.38849 -16977367.11549  20983982.1814   20983985.2104
  23748078.419    -8561361.31549  -6136896.81749  23748078.6574   23748080.9254
  21032978.550   -23043389.93549 -16597604.38949  21032978.0724   21032980.4284
  22559109.857   -12317319.83549  -9581120.72349  22559109.1444   22559112.2694
  23065662.974   -12932878.87949  -9871975.90049  23065663.0044   23065665.0214
  24968535.429    -6300160.01449  -4899290.22149  24968535.6124   24968537.9034
  23273199.812   -11679446.63349  -8912864.78249  23273198.9804   23273202.0974
 98  2  3  2 35  0.0020000  0  8  4 24  9  5  8 30  6 10
  23340695.060   -11166249.68149  -8679893.67549  23340695.1234   23340697.0854
  20991328.771   -22100511.70149 -16947284.75549  20991328.6864   20991331.8634
  23766640.493    -8463816.77149  -6060888.07649  23766641.1774   23766643.4984
  21030841.524   -23054620.12149 -16606355.18049  21030841.0024   21030843.5014
  22568420.403   -12268392.72149  -9542995.70149  22568419.7684   22568422.9914
  23051385.967   -13007905.21249  -9930437.95049  23051386.0484   23051387.7884
  24957605.908    -6357595.47149  -4944045.08849  24957605.7194   24957609.2554
  23259614.340   -11750838.65249  -8968494.89349  23259613.1654   23259616.8854
 98  2  3  2 35 30.0020000  0  8  4 24  9  5  8 30  6 10
  23360125.561   -11064141.63049  -8600328.96549  23360125.8414   23360127.7484
  20998753.761   -22061493.17949 -16916880.70349  20998753.7654   20998756.6494
  23785226.602    -8366146.37849  -5984781.27749  23785226.4804   23785229.4244
  21028782.321   -23065441.28849 -16614787.25449  21028781.9374   21028784.3544
  22577826.007   -12218966.23149  -9504481.54749  22577825.2474   22577828.2034
  23037147.718   -13082727.76349  -9988741.22049  23037148.4844   23037149.5894
  24946670.406    -6415061.59249  -4988823.85949  24946670.5194   24946674.0784
  23246066.510   -11822032.74849  -9023970.78249  23246065.8734   23246068.9484
 98  2  3  2 36  0.0020000  0  8  4 24  9  5  8 30  6 10
  23379577.300   -10961922.06449  -8520677.35349  23379577.9054   23379579.3414
  21006253.316   -22022082.70849 -16886171.23949  21006253.1644   21006256.0544
  23803837.594    -8268345.15649  -5908572.53149  23803837.2664   23803840.2424
  21026805.195   -23075831.03349 -16622883.15949  21026804.5964   21026807.1294
  22587327.276   -12169036.71749  -9465575.42949  22587327.0494   22587329.8264
  23022950.266   -13157335.75449 -10046877.29549  23022949.8334   23022952.2524
  24935729.059    -6472558.67349  -5033626.72849  24935728.5444   24935731.6174
  23232554.579   -11893038.29949  -9079299.75749  23232553.7484   23232556.7664
 98  2  3  2 36 30.0020000  0  8  4 24  9  5  8 30  6 10
  23399048.922   -10859597.87649  -8440944.21349  23399049.0354   23399051.3034
  21013823.401   -21982301.50149 -16855172.88349  21013823.1034   21013826.2154
  23822476.324    -8170397.71349  -5832249.84949  23822476.2934   23822479.6454
  21024912.136   -23085779.29749 -16630635.05049  21024911.7074   21024914.1424
  22596924.129   -12118605.09949  -9426278.05849  22596923.9154   22596926.5704
  23008796.662   -13231713.05249 -10104833.60649  23008796.8114   23008798.7174
  24924782.453    -6530083.59649  -5078451.29149  24924782.4324   24924785.6294
  23219083.174   -11963830.78949  -9134462.70149  23219082.1844   23219085.1564
 98  2  3  2 37  0.0020000  0  8  4 24  9  5  8 30  6 10
  23418543.700   -10757152.27649  -8361116.47649  23418544.1794   23418545.8044
  21021462.223   -21942159.19449 -16823893.15749  21021461.9954   21021465.0594
  23841145.225    -8072291.80649  -5755803.69749  23841144.9394   23841148.6234
  21023104.512   -23095278.46649 -16638037.00049  21023103.9884   21023106.4184
  22606619.143   -12067657.68149  -9386578.77149  22606618.6044   22606621.3114
  22994685.943   -13305865.26549 -10162614.52949  22994686.2404   22994688.5184
  24913834.287    -6587616.22149  -5123281.85049  24913833.7424   24913837.5464
  23205655.892   -12034391.51349  -9189445.06349  23205654.8694   23205658.9454
 98  2  3  2 37 30.0020000  0  8  4 24  9  5  8 30  6 10
  23438065.720   -10654563.51949  -8281177.17149  23438066.3344   23438067.7534
  21029171.295   -21901647.72149 -16792325.76449  21029171.1884   21029174.2174
  23859843.804    -7974029.87449  -5679235.96449  23859844.0744   23859846.5644
  21021386.833   -23104304.84149 -16645070.53649  21021386.4774   21021388.8914
  22616415.616   -12016176.66449  -9346463.69149  22616415.2824   22616417.7254
  22980616.618   -13379800.02549 -10220226.01149  22980617.0104   22980618.7704
  24902887.411    -6645142.49349  -5168107.46149  24902887.0604   24902890.3554
  23192280.924   -12104677.28049  -9244213.16449  23192279.7794   23192282.8164
 98  2  3  2 38  0.0020000  0  8  4 24  9  5  8 30  6 10
  23457616.412   -10551824.09149  -8201120.47049  23457616.5804   23457618.8814
  21036950.989   -21860764.99349 -16760469.08649  21036950.7424   21036953.9864
  23878567.066    -7875638.62349  -5602567.45249  23878566.4124   23878570.2864
  21019759.964   -23112854.22749 -16651732.39049  21019759.5334   21019761.9294
  22626309.944   -11964181.40649  -9305947.90149  22626309.1824   22626312.0604
  22966585.320   -13453535.14449 -10277681.92649  22966585.4944   22966587.3084
  24891942.658    -6702657.02749  -5212923.92349  24891941.9374   24891945.9484
  23178962.271   -12174666.92649  -9298750.53549  23178961.7694   23178964.5364
 98  2  3  2 38 30.0020000  0  8  4 24  9  5  8 30  6 10
  23477197.888   -10448922.60649  -8120937.48949  23477198.0944   23477199.2074
  21044803.996   -21819497.11349 -16728312.28649  21044803.9254   21044806.9274
  23897313.102    -7777127.84849  -5525805.82149  23897313.0944   23897315.8744
  21018220.527   -23120943.96949 -16658036.08049  21018220.0694   21018222.5534
  22636298.865   -11911689.28149  -9265044.94149  22636298.2674   22636300.9514
  22952592.415   -13527068.16249 -10334980.36449  22952592.7414   22952594.8734
  24880998.283    -6760169.29349  -5257738.59949  24880997.0844   24881001.2364
  23165703.631   -12244341.66049  -9353042.51649  23165702.5184   23165705.5944
 98  2  3  2 39  0.0020000  0  8  4 24  9  5  8 30  6 10
  23496810.571   -10345857.15049  -8040626.73849  23496810.6964   23496813.0944
  21052734.517   -21777822.12649 -16695838.26449  21052734.1554   21052737.2984
  23916079.659    -7678509.32249  -5448960.21849  23916079.5034   23916082.0644
  21016766.322   -23128586.04549 -16663990.94149  21016765.8964   21016768.1004
  22646383.022   -11858696.44149  -9223751.81949  22646382.4764   22646385.1924
  22938639.188   -13600392.95549 -10392116.53949  22938638.9614   22938641.3694
  24870052.203    -6817689.92349  -5302559.80249  24870051.8414   24870055.5444
  23152503.199   -12313710.29549  -9407095.96749  23152502.4464   23152505.4604
 98  2  3  2 39 30.0020000  0  8  4 24  9  5  8 30  6 10
  23516454.270   -10242628.96849  -7960189.18849  23516454.6274   23516456.1424
  21060747.061   -21735715.86949 -16663028.18549  21060746.8884   21060750.0274
  23934867.611    -7579778.01749  -5372026.74549  23934866.9564   23934870.4344
  21015399.465   -23135768.95549 -16669588.01049  21015398.9024   21015401.3384
  22656562.122   -11805204.84149  -9182070.05149  22656562.0784   22656564.4814
  22924729.604   -13673488.32849 -10449073.95749  22924729.4304   22924731.6334
  24859103.311    -6875227.00949  -5347393.82349  24859102.4914   24859105.7624
  23139362.663   -12382764.02349  -9460904.04549  23139361.4634   23139364.9264
 98  2  3  2 40  0.0020000  0  8  4 24  9  5  8 30  6 10
  23536129.969   -10139232.41849  -7879620.44049  23536130.3964   23536132.8374
  21068844.216   -21693165.07149 -16629871.70949  21068844.1334   21068847.1264
  23953678.786    -7480924.76449  -5294998.24149  23953678.6334   23953681.6704
  21014118.671   -23142499.68349 -16674832.72949  21014118.1894   21014120.6084
  22666836.703   -11751211.72749  -9139997.49849  22666836.2964   22666839.0134
  22910868.154   -13746330.53649 -10505834.10249  22910868.7664   22910870.1884
  24848150.787    -6932783.47849  -5392242.94349  24848149.9344   24848154.7784
  23126281.654   -12451505.23649  -9514468.60349  23126281.0094   23126284.3794
 98  2  3  2 40 30.0020000  0  8  4 24  9  5  8 30  6 10
  23555832.676   -10035694.00149  -7798941.14449  23555832.6664   23555834.8274
  21077023.424   -21650182.88349 -16596379.08749  21077023.0714   21077026.3134
  23972515.603    -7381936.73249  -5217864.71849  23972515.9434   23972518.2184
  21012921.014   -23148793.43549 -16679736.94849  21012920.6084   21012922.9274
  22677208.994   -11696705.01849  -9097524.73249  22677208.4254   22677211.2634
  22897055.245   -13818917.35449 -10562395.23749  22897055.1994   22897057.8094
  24837193.190    -6990365.48149  -5437111.98049  24837193.8384   24837196.2364
  23113257.999   -12519944.60649  -9567797.95749  23113256.9154   23113260.3684
 98  2  3  2 41  0.0020000  0  8  4 24  9  5  8 30  6 10
  23575561.554    -9932018.25349  -7718154.84549  23575561.1394   23575564.0294
  21085284.214   -21606771.92349 -16562552.36049  21085284.0924   21085286.9934
  23991380.903    -7282799.13849  -5140614.64949  23991380.2334   23991383.1604
  21011812.441   -23154618.99049 -16684276.34149  21011811.7954   21011814.1344
  22687683.155   -11641662.89149  -9054634.76249  22687682.3944   22687685.5904
  22883292.671   -13891239.79949 -10618750.37549  22883292.6564   22883294.8954
  24826236.489    -7047943.31449  -5481977.75949  24826235.7954   24826239.5714
  23100290.782   -12588087.77549  -9620896.51749  23100289.6924   23100292.9904
 98  2  3  2 41 30.0020000  0  8  4 24  9  5  8 30  6 10
  23595316.571    -9828204.54649  -7637261.04649  23595315.9934   23595318.6944
  21093625.901   -21562935.98649 -16528394.48049  21093625.7874   21093628.8354
  24010278.161    -7183493.38649  -5063233.55949  24010277.6514   24010280.8124
  21010799.312   -23159942.96749 -16688424.89549  21010798.7374   21010801.2334
  22698260.195   -11586080.17749  -9011323.55749  22698259.7024   22698262.3834
  22869581.264   -13963293.56749 -10674896.15349  22869581.1984   22869583.7314
  24815285.679    -7105489.34549  -5526818.76949  24815285.6954   24815288.6854
  23087384.629   -12655910.33849  -9673745.24049  23087383.9874   23087387.1444
 98  2  3  2 42  0.0020000  0  8  4 24  9  5  8 30  6 10
  23615094.373    -9724271.35249  -7556274.13949  23615094.4704   23615097.0284
  21102045.271   -21518691.96249 -16493918.61149  21102045.0384   21102048.1804
  24029207.243    -7084020.27749  -4985722.04549  24029206.9364   24029210.1124
  21009881.541   -23164765.77349 -16692182.92549  21009881.1924   21009883.5084
  22708936.930   -11529973.24549  -8967603.86949  22708936.4804   22708939.3854
  22855919.750   -14035085.03549 -10730837.53849  22855919.8364   22855921.8964
  24804344.754    -7162984.06549  -5571619.78649  24804344.7994   24804348.4054
  23074536.665   -12723426.62349  -9726355.31849  23074535.6314   23074539.1904
 98  2  3  2 42 30.0020000  0  8  4 24  9  5  8 30  6 10
  23634895.366    -9620216.38249  -7475192.34249  23634895.7924   23634898.0004
  21110540.617   -21474048.63049 -16459131.59249  21110540.4074   21110543.5294
  24048169.487    -6984372.97149  -4908074.80349  24048169.0194   24048172.8924
  21009063.434   -23169064.97649 -16695532.95449  21009062.9384   21009065.2904
  22719710.794   -11473356.25049  -8923486.73449  22719710.1524   22719713.1624
  22842307.893   -14106615.90549 -10786575.86449  22842308.1194   22842310.3184
  24793418.318    -7220402.96249  -5616361.72049  24793417.9344   24793422.0424
  23061743.965   -12790652.73549  -9778739.27749  23061742.7084   23061746.1454
 98  2  3  2 43  0.0020000  0  8  4 24  9  5  8 30  6 10
  23654721.053    -9516031.41349  -7394009.24649  23654721.6074   23654723.4924
  21119111.542   -21429008.11149 -16424035.08049  21119111.2934   21119114.6054
  24067160.886    -6884572.48049  -4830308.18349  24067160.6614   24067164.0914
  21008344.791   -23172841.47949 -16698475.68349  21008344.3364   21008346.7594
  22730577.474   -11416251.35549  -8878989.41849  22730576.9094   22730579.9884
  22828745.414   -14177887.17449 -10842111.90449  22828745.8684   22828747.3894
  24782504.833    -7277753.89649  -5661050.71049  24782504.8294   24782507.8364
  23049004.457   -12857598.90949  -9830905.10749  23049003.4774   23049007.0144
 98  2  3  2 43 30.0020000  0  8  4 24  9  5  8 30  6 10
  23674575.583    -9411695.15549  -7312708.26649  23674575.9624   23674577.4414
  21127762.413   -21383547.52149 -16388611.23749  21127762.1354   21127765.4134
  24086184.202    -6784604.25849  -4752410.86849  24086184.2624   24086186.8184
  21007726.329   -23176091.34349 -16701008.04349  21007725.8044   21007728.2044
  22741538.090   -11358652.91049  -8834107.51249  22741537.3514   22741539.8694
  22815235.614   -14248881.66249 -10897432.27049  22815235.8414   22815237.7314
  24771602.762    -7335044.52049  -5705692.70349  24771602.8764   24771605.7694
  23036321.884   -12924246.17349  -9882838.02349  23036321.0274   23036324.4504
 98  2  3  2 44  0.0020000  0  8  4 24  9  5  8 30  6 10
  23694468.628    -9307156.35049  -7231249.45649  23694468.9904   23694471.2184
  21136500.765   -21337627.24549 -16352829.20149  21136500.6654   21136503.6454
  24105243.846    -6684444.83049  -4674364.57249  24105243.2674   24105246.9094
  21007211.171   -23178798.58949 -16703117.58649  21007210.8214   21007213.2394
  22752600.025   -11300521.94249  -8788810.65949  22752599.6334   22752602.5474
  22801787.761   -14319550.94649 -10952499.23249  22801787.7814   22801789.9694
  24760717.012    -7392249.73649  -5750268.14549  24760716.3034   24760719.6694
  23023701.114   -12990568.64049  -9934517.84949  23023699.5844   23023703.7314
 98  2  3  2 44 30.0020000  0  8  4 24  9  5  8 30  6 10
  23714407.300    -9202377.95449  -7149603.95149  23714407.4674   23714409.3614
  21145331.540   -21291221.33449 -16316668.74349  21145331.1724   21145334.3194
  24124344.672    -6584069.10549  -4596149.72449  24124344.7844   24124347.3964
  21006804.674   -23180934.68749 -16704782.07449  21006804.2124   21006806.6584
  22763772.187   -11241812.09449  -8743062.72449  22763771.9394   22763774.4894
  22788408.572   -14389859.10049 -11007284.79149  22788408.4634   22788410.7674
  24749849.848    -7449356.83149  -5794767.12949  24749849.2164   24749852.3764
  23011154.314   -13056502.28849  -9985894.70749  23011153.6604   23011156.7764
 98  2  3  2 45  0.0020000  0  8  4 24  9  5  8 30  6 10
  23734377.529    -9097433.80749  -7067829.28949  23734378.4124   23734380.1374
  21154243.198   -21244390.04549 -16280176.82749  21154243.1324   21154246.1824
  24143472.371    -6483552.34049  -4517824.98249  24143472.0224   24143476.4894
  21006492.907   -23182573.08049 -16706058.74249  21006492.5184   21006494.9014
  22775045.244   -11182571.88749  -8696901.52949  22775044.5554   22775047.3864
  22775088.384   -14459857.44749 -11061828.94349  22775088.6544   22775090.4904
  24738985.741    -7506447.87249  -5839253.61049  24738985.9664   24738988.8274
  22998673.505   -13122089.44849 -10037001.57549  22998672.5804   22998676.2734
 98  2  3  2 45 30.0020000  0  8  4 24  9  5  8 30  6 10
  23754367.954    -8992383.18249  -6985971.66149  23754368.6934   23754371.1734
  21163225.809   -21197186.04549 -16243394.48449  21163225.8144   21163228.5944
  24162618.093    -6382940.95749  -4439426.50349  24162618.1784   24162620.7824
  21006267.220   -23183759.07349 -16706982.88849  21006266.6844   21006268.9554
  22786411.027   -11122844.29649  -8650360.55749  22786410.7664   22786413.4764
  22761818.174   -14529592.83649 -11116168.19349  22761818.6714   22761820.5914
  24728115.739    -7563569.78649  -5883764.15649  24728115.6124   24728117.8264
  22986251.886   -13187365.54449 -10087866.04249  22986251.0994   22986254.7294
 98  2  3  2 46  0.0020000  0  8  4 24  9  5  8 30  6 10
  23774394.624    -8887142.31749  -6903965.78649  23774395.5784   23774396.8374
  21172295.007   -21149527.17349 -16206257.69649  21172295.0154   21172297.9464
  24181797.640    -6282151.71549  -4360889.44449  24181797.7004   24181800.7704
  21006144.194   -23184405.39649 -16707486.51549  21006143.7094   21006146.1994
  22797885.565   -11062545.10349  -8603374.17949  22797885.6824   22797887.9154
  22748615.786   -14598971.89349 -11170229.78349  22748616.2914   22748618.2974
  24717261.737    -7620607.07349  -5928208.74349  24717261.1164   24717264.3144
  22973909.825   -13252223.35249 -10138404.57349  22973909.1244   22973912.1424
 98  2  3  2 46 30.0020000  0  8  4 24  9  5  8 30  6 10
  23794445.172    -8781776.14349  -6821862.26649  23794445.6384   23794447.7394
  21181440.333   -21101468.18149 -16168809.12349  21181440.2144   21181443.1814
  24201000.541    -6181239.30249  -4282256.39449  24201000.5464   24201002.6704
  21006116.066   -23184553.05849 -16707601.57549  21006115.5294   21006118.0184
  22809456.625   -11001738.77749  -8555992.62549  22809456.5324   22809458.8024
  22735470.876   -14668048.59249 -11224055.76649  22735471.2914   22735473.2484
  24706414.114    -7677611.16249  -5972627.46949  24706414.4754   24706416.6384
  22961638.436   -13316709.88749 -10188653.80749  22961637.9294   22961640.8684
 98  2  3  2 47  0.0020000  0  8  4 24  9  5  8 30  6 10
  23814527.267    -8676244.02649  -6739629.45249  23814527.0864   23814529.2754
  21190670.011   -21052966.02749 -16131015.23249  21190669.9244   21190672.6874
  24220232.847    -6080173.04249  -4203503.47249  24220232.6524   24220235.2504
  21006188.303   -23184173.29749 -16707305.65949  21006187.9294   21006190.1614
  22821128.965   -10940400.37449  -8508196.47149  22821128.5014   22821131.0534
  22722390.238   -14736787.85349 -11277618.81749  22722390.4164   22722392.8414
  24695579.241    -7734548.93649  -6016994.52649  24695579.4964   24695581.8224
  22949441.463   -13380805.42249 -10238598.36049  22949441.0534   22949443.8594
 98  2  3  2 47 30.0020000  0  8  4 24  9  5  8 30  6 10
  23834638.714    -8570557.56849  -6657276.36149  23834638.9034   23834640.6884
  21199979.132   -21004046.07349 -16092895.77949  21199978.8404   21199981.8304
  24239492.056    -5978965.25649  -4124640.26149  24239491.4694   24239494.4274
  21006360.660   -23183267.75549 -16706600.04149  21006360.2194   21006362.4904
  22832897.375   -10878556.99849  -8460006.83749  22832896.7054   22832899.6094
  22709368.832   -14805215.78449 -11330939.26649  22709368.9014   22709371.1494
  24684755.452    -7791428.26249  -6061316.02049  24684755.2504   24684758.2804
  22937318.481   -13444512.02649 -10288239.84849  22937317.1464   22937320.5654
 98  2  3  2 48  0.0020000  0  8  4 24  9  5  8 30  6 10
  23854780.092    -8464714.15849  -6574800.97949  23854780.1294   23854781.8124
  21209366.502   -20954715.07149 -16054456.03449  21209366.3614   21209369.2824
  24258776.072    -5877627.01049  -4045675.40049  24258775.3794   24258779.1104
  21006634.131   -23181830.70249 -16705480.25849  21006633.6604   21006635.9694
  22844758.962   -10816223.70349  -8411435.43549  22844758.1434   22844761.1624
  22696407.687   -14873326.73849 -11384012.72049  22696408.1844   22696409.9124
  24673941.994    -7848252.74149  -6105594.78849  24673942.4254   24673944.4434
  22925269.764   -13507828.26349 -10337577.14949  22925269.2364   22925272.5824
 98  2  3  2 48 30.0020000  0  8  4 24  9  5  8 30  6 10
  23874956.400    -8358687.03849  -6492182.44549  23874956.2524   23874957.6894
  21218834.859   -20904958.41549 -16015684.61049  21218834.7064   21218837.8214
  24278088.877    -5776137.83249  -3966592.93649  24278089.1194   24278091.4664
  21007014.601   -23179831.44549 -16703922.39549  21007014.0974   21007016.4484
  22856720.199   -10753367.04949  -8362456.23749  22856719.7124   22856722.4564
  22683512.546   -14941091.09849 -11436816.10749  22683512.8514   22683514.6944
  24663140.366    -7905015.77449  -6149825.68349  24663140.3934   24663143.4414
  22913300.354   -13570727.83449 -10386589.78449  22913299.3334   22913302.5654
 98  2  3  2 49  0.0020000  0  8  4 24  9  5  8 30  6 10
  23895163.053    -8252500.44149  -6409439.65149  23895164.0924   23895165.8854
  21228378.563   -20854805.93349 -15976604.75349  21228378.5094   21228381.5114
  24297426.295    -5674519.17349  -3887409.56949  24297426.2724   24297429.4614
  21007497.816   -23177292.20149 -16701943.76349  21007497.3624   21007499.6804
  22868778.528   -10690000.03349  -8313079.35049  22868777.9044   22868780.8084
  22670678.190   -15008536.20149 -11489370.72849  22670678.3764   22670680.1914
  24652347.324    -7961733.33649  -6194021.14649  24652347.4454   24652349.9234
  22901408.018   -13633222.32049 -10435286.77049  22901407.4064   22901410.2864
 98  2  3  2 49 30.0020000  0  8  4 24  9  5  8 30  6 10
  23915400.246    -8146153.12849  -6326571.60849  23915399.8134   23915402.8184
  21237996.263   -20804264.56549 -15937221.86349  21237996.1814   21237999.4384
  24316788.865    -5572768.28249  -3808123.17449  24316788.1884   24316791.8214
  21008086.036   -23174201.03849 -16699535.06249  21008085.5554   21008087.9434
  22880935.339   -10626115.71649  -8263299.37049  22880935.0584   22880937.1494
  22657905.941   -15075654.68849 -11541670.83849  22657905.7184   22657907.9924
  24641566.274    -8018387.94649  -6238167.54349  24641565.9494   24641569.1694
  22889593.979   -13695305.50449 -10483663.26049  22889593.3344   22889596.1904
 98  2  3  2 50  0.0020000  0  8  4 24  9  5  8 30  6 10
  23935669.911    -8039635.21749  -6243570.63949  23935670.2804   23935672.0804
  21247690.879   -20753318.97949 -15897523.99949  21247690.6604   21247693.6894
  24336178.720    -5470873.87849  -3728724.94349  24336178.5544   24336181.5974
  21008778.398   -23170562.71849 -16696700.00849  21008777.9564   21008780.3304
  22893193.605   -10561698.01149  -8213103.75849  22893193.1524   22893195.6154
  22645200.153   -15142423.85249 -11593698.74849  22645200.1844   22645202.4044
  24630799.099    -8074969.72149  -6282257.19749  24630798.9334   24630801.3154
  22877858.716   -13756974.65949 -10531717.12949  22877857.9594   22877861.0904
 98  2  3  2 50 30.0020000  0  8  4 24  9  5  8 30  6 10
  23955963.636    -7932991.03249  -6160471.27449  23955964.1614   23955965.6904
  21257457.709   -20701993.71849 -15857530.28649  21257457.6284   21257460.6644
  24355589.196    -5368870.72449  -3649241.97649  24355589.3964   24355592.0204
  21009567.850   -23166414.25849 -16693467.44249  21009567.3994   21009569.7544
  22905549.845   -10496765.98149  -8162507.37949  22905549.4584   22905552.5124
  22632552.648   -15208887.02949 -11645488.23049  22632552.8704   22632554.9074
  24620037.835    -8131520.71449  -6326322.86849  24620037.5834   24620041.0674
  22866195.384   -13818265.94249 -10579476.54749  22866194.5334   22866197.2644
 98  2  3  2 51  0.0020000  0  8  4 24  9  5  8 30  6 10
  23976289.496    -7826177.57549  -6077240.00449  23976289.0404   23976291.7034
  21267308.746   -20650226.09349 -15817191.86949  21267308.3294   21267311.5314
  24375028.819    -5266715.02249  -3569640.14149  24375028.7494   24375031.9594
  21010463.538   -23161707.49449 -16689799.83049  21010462.9994   21010465.3734
  22918010.182   -10431286.45049  -8111484.37249  22918009.6724   22918012.4614
  22619973.192   -15274992.37049 -11696998.87549  22619972.8894   22619975.2024
  24609291.868    -8187991.10049  -6370325.73149  24609291.6424   24609294.4674
  22854610.608   -13879144.25949 -10626914.17449  22854609.4434   22854612.8904
 98  2  3  2 51 30.0020000  0  8  4 24  9  5  8 30  6 10
  23996642.532    -7719221.62449  -5993897.70249  23996642.5204   23996644.8034
  21277241.705   -20598027.95349 -15776517.99049  21277241.3524   21277244.4514
  24394492.550    -5164432.39549  -3489939.40149  24394492.5044   24394495.1364
  21011462.864   -23156455.80649 -16685707.60949  21011462.3574   21011464.7354
  22930568.485   -10365291.94249  -8060060.09449  22930567.9184   22930570.8334
  22607462.486   -15340736.35049 -11748227.93949  22607462.4294   22607464.4944
  24598555.659    -8244410.21349  -6414288.63849  24598555.6544   24598558.6124
  22843099.249   -13939636.90949 -10674051.29349  22843098.0124   22843101.8034
 98  2  3  2 52  0.0020000  0  8  4 24  9  5  8 30  6 10
  24017019.005    -7612142.26449  -5910459.25249  24017019.2944   24017021.2664
  21287258.990   -20545386.87449 -15735498.96649  21287258.7974   21287261.8774
  24413978.986    -5062030.27949  -3410145.54749  24413978.9844   24413982.0224
  21012567.115   -23150653.01649 -16681185.95649  21012566.5834   21012569.0434
  22943223.281   -10298790.53349  -8008240.81549  22943223.2374   22943225.7164
  22595021.692   -15406113.08849 -11799170.84849  22595021.7024   22595023.6704
  24587828.171    -8300783.40649  -6458215.77649  24587828.0914   24587831.5514
  22831663.241   -13999733.44249 -10720879.74649  22831662.6094   22831665.4594
 98  2  3  2 52 30.0020000  0  8  4 24  9  5  8 30  6 10
  24037420.147    -7504933.60649  -5826920.04149  24037420.4404   24037422.3254
  21297362.930   -20492290.31349 -15694125.02349  21297362.7034   21297365.7024
  24433488.718    -4959506.19349  -3330256.66049  24433488.5784   24433492.0834
  21013779.988   -23144279.25449 -16676219.39549  21013779.5434   21013781.7924
  22955974.152   -10231783.94249  -7956027.90049  22955973.5904   22955976.3984
  22582654.168   -15471104.58349 -11849813.56649  22582654.5444   22582655.9954
  24577112.747    -8357093.18749  -6502093.50649  24577112.8494   24577115.8574
  22820304.386   -14059424.46349 -10767392.21349  22820303.5334   22820306.6964
 98  2  3  2 53  0.0020000  0  8  4 24  9  5  8 30  6 10
  24057846.666    -7397591.54749  -5743276.87849  24057847.0394   24057848.7994
  21307550.172   -20438756.09849 -15652410.04749  21307550.2204   21307553.0494
  24453021.483    -4856861.03249  -3250273.42449  24453021.6454   24453024.4484
  21015101.517   -23137334.83949 -16670808.16449  21015101.1784   21015103.3314
  22968817.729   -10164290.63249  -7903435.71849  22968817.6584   22968819.6944
  22570361.898   -15535700.95149 -11900148.38749  22570362.2734   22570364.0454
  24566412.518    -8413323.44849  -6545909.25449  24566411.4274   24566414.9954
  22809023.548   -14118705.62349 -10813585.30749  22809022.4024   22809025.6444
 98  2  3  2 53 30.0020000  0  8  4 24  9  5  8 30  6 10
  24078295.140    -7290134.16949  -5659543.84349  24078295.6134   24078297.0944
  21317814.120   -20384818.72349 -15610380.91749  21317814.0344   21317816.9354
  24472573.318    -4754115.60149  -3170212.05049  24472573.3304   24472576.3754
  21016528.451   -23129836.42449 -16664965.24549  21016527.8904   21016530.3784
  22981752.348   -10096318.80949  -7850470.66849  22981751.4254   22981754.8904
  22558138.402   -15599935.67049 -11950201.40349  22558138.5964   22558140.6384
  24555724.016    -8469491.68249  -6589676.67649  24555723.4664   24555726.4694
  22797821.782   -14177571.19449 -10859454.56449  22797821.0174   22797823.8964
 98  2  3  2 54  0.0020000  0  8  4 24  9  5  8 30  6 10
  24098771.670    -7182529.05749  -5575695.71549  24098771.6184   24098774.0594
  21328157.605   -20330463.38549 -15568026.10949  21328157.5044   21328160.3564
  24492148.925    -4651245.15249  -3090053.26849  24492149.1784   24492152.3934
  21018063.382   -23121770.24249 -16658679.91749  21018062.8884   21018065.1844
  22994784.036   -10027836.95849  -7797108.19649  22994783.4334   22994786.2794
  22545984.802   -15663803.22549 -11999968.32349  22545984.8894   22545987.1004
  24545054.142    -8525562.21149  -6633367.97149  24545054.2734   24545056.6104
  22786705.419   -14235987.97249 -10904974.12149  22786704.5334   22786707.6384
 98  2  3  2 54 30.0020000  0  8  4 24  9  5  8 30  6 10
  24119276.109    -7074777.30449  -5491733.30649  24119276.8524   24119278.4014
  21338575.037   -20275719.48449 -15525368.51949  21338574.7524   21338577.8894
  24511747.081    -4548256.46249  -3009802.34749  24511746.7914   24511749.7274
  21019702.099   -23113158.59549 -16651969.54549  21019701.6734   21019703.9234
  23007910.866    -9958854.87749  -7743355.92949  23007910.3554   23007913.1624
  22533898.188   -15727318.87749 -12049461.03049  22533898.1874   22533900.2014
  24534400.882    -8581545.49949  -6676991.28049  24534401.2374   24534403.3804
  22775671.193   -14293973.14149 -10950157.35249  22775670.5214   22775673.7254
 98  2  3  2 55  0.0020000  0  8  4 24  9  5  8 30  6 10
  24139810.623    -6966867.58849  -5407647.81449  24139810.8974   24139812.8894
  21349068.565   -20220575.61049 -15482399.26349  21349068.1484   21349071.3374
  24531370.064    -4445137.04949  -2929449.55649  24531369.7064   24531372.6934
  21021449.454   -23103976.17249 -16644814.41149  21021448.8944   21021451.3464
  23021136.375    -9889354.42449  -7689199.74449  23021135.9994   23021139.1114
  22521879.777   -15790475.96449 -12098674.33249  22521880.2274   22521882.2994
  24523764.315    -8637440.25249  -6720545.59949  24523764.1814   24523766.7654
  22764723.668   -14351502.94049 -10994985.74949  22764722.5514   22764726.0994
 98  2  3  2 55 30.0020000  0  8  4 24  9  5  8 30  6 10
  24160369.825    -6858828.12349  -5323461.22349  24160370.0344   24160372.6834
  21359635.549   -20165045.59249 -15439129.12249  21359635.4124   21359638.3584
  24551014.865    -4341902.39149  -2849006.97649  24551014.8364   24551017.9224
  21023302.997   -23094235.58649 -16637224.34749  21023302.3914   21023304.9034
  23034456.919    -9819354.57549  -7634654.41849  23034456.3184   23034458.9344
  22509926.624   -15853290.39649 -12147620.63649  22509926.4824   22509928.9364
  24513138.820    -8693277.26249  -6764054.94149  24513138.8474   24513141.7264
  22753859.424   -14408594.70249 -11039472.82749  22753858.6114   22753861.7464
 98  2  3  2 56  0.0020000  0  8  4 24  9  5  8 30  6 10
  24180946.794    -6750695.52649  -5239202.04649  24180947.0994   24180949.6774
  21370271.310   -20109154.26349 -15395577.43949  21370271.2094   21370274.0084
  24570677.037    -4238577.37949  -2768493.98449  24570677.4444   24570679.9974
  21025256.901   -23083967.60449 -16629223.32349  21025256.4084   21025258.8484
  23047864.248    -9748898.83849  -7579753.84949  23047863.8164   23047866.6874
  22498038.484   -15915763.00049 -12196300.58049  22498038.6924   22498040.8324
  24502519.382    -8749082.92849  -6807539.85149  24502519.0894   24502521.8704
  22743071.583   -14465285.29849 -11083647.30349  22743070.7304   22743073.8074
 98  2  3  2 56 30.0020000  0  8  4 24  9  5  8 30  6 10
  24201549.285    -6642428.81549  -5154838.38449  24201550.1554   24201551.2964
  21380985.168   -20052852.47249 -15351705.90249  21380984.8024   21380987.9544
  24590364.092    -4135121.26349  -2687878.82049  24590363.7054   24590366.6454
  21027322.119   -23073114.85149 -16620766.63149  21027321.5584   21027323.9844
  23061364.758    -9677953.25049  -7524471.58349  23061363.8904   23061367.0104
  22486226.401   -15977836.09149 -12244669.21449  22486226.7794   22486228.6714
  24491912.055    -8804824.18749  -6850974.56249  24491911.5024   24491915.1184
  22732368.343   -14521530.89049 -11127475.00849  22732367.2404   22732370.6434
 98  2  3  2 57  0.0020000  0  8  4 24  9  5  8 30  6 10
  24222179.862    -6534014.46349  -5070359.66249  24222179.4444   24222182.5654
  21391781.280   -19996118.44049 -15307497.56149  21391781.3484   21391784.2544
  24610075.832    -4031535.09249  -2607162.33749  24610076.0194   24610078.5344
  21029500.424   -23061667.54849 -16611846.65849  21029500.0004   21029502.4754
  23074958.922    -9606515.39749  -7468805.73549  23074958.7584   23074961.3124
  22474492.769   -16039496.53249 -12292716.30349  22474492.9924   22474494.7784
  24481317.878    -8860496.72049  -6894355.72449  24481317.6164   24481320.4374
  22721753.538   -14577312.10249 -11170940.87149  22721752.7284   22721756.2144
 98  2  3  2 57 30.0020000  0  8  4 24  9  5  8 30  6 10
  24242844.536    -6425420.87349  -4985741.29149  24242845.0384   24242847.2004
  21402664.539   -19938926.76549 -15262932.62549  21402664.4444   21402667.4164
  24629817.425    -3927791.76549  -2526323.39149  24629817.6824   24629820.6384
  21031794.081   -23049614.39649 -16602454.59449  21031793.6224   21031795.9594
  23088653.193    -9534551.61549  -7412730.07149  23088653.0084   23088656.2994
  22462845.683   -16100702.19849 -12340409.02349  22462846.0554   22462847.7924
  24470746.205    -8916051.43649  -6937645.07649  24470746.3354   24470748.5344
  22711234.397   -14632590.37849 -11214014.83849  22711233.9104   22711236.6744
 98  2  3  2 58  0.0020000  0  8  4 24  9  5  8 30  6 10
  24263546.008    -6316634.33949  -4900972.56449  24263546.3064   24263548.7634
  21413635.858   -19881272.02549 -15218006.84549  21413635.7384   21413638.8274
  24649586.680    -3823903.33949  -2445371.37349  24649586.9264   24649589.8114
  21034201.506   -23036963.10449 -16592596.43949  21034201.0464   21034203.5084
  23102447.473    -9462062.28249  -7356244.88249  23102447.0894   23102450.0524
  22451286.649   -16161445.33149 -12387741.32249  22451286.6884   22451288.7274
  24460198.513    -8971480.00849  -6980836.13949  24460198.4374   24460200.9264
  22700811.878   -14687361.05749 -11256693.27349  22700811.3854   22700814.2644
 98  2  3  2 58 30.0020000  0  8  4 24  9  5  8 30  6 10
  24284280.752    -6207672.45649  -4816067.20249  24284281.4224   24284283.1354
  21424690.485   -19823179.73349 -15172740.12349  21424690.4054   21424693.4614
  24669376.822    -3719905.55549  -2364334.15049  24669376.7964   24669379.9424
  21036720.451   -23023725.98749 -16582281.80949  21036720.1124   21036722.4404
  23116336.860    -9389073.09449  -7299370.20749  23116336.8634   23116339.3504
  22439808.895   -16221761.24449 -12434740.73149  22439809.2534   22439811.2524
  24449669.819    -9026808.49549  -7023949.21449  24449670.1164   24449672.3084
  22690482.927   -14741639.91849 -11298988.47849  22690482.1564   22690485.2944
 98  2  3  2 59  0.0020000  0  8  4 24  9  5  8 30  6 10
  24305048.130    -6098538.82349  -4731028.01549  24305048.6754   24305050.1834
  21435826.580   -19764659.15949 -15127139.67149  21435826.4664   21435829.1104
  24689186.237    -3615806.74049  -2283218.19949  24689185.7624   24689189.5134
  21039351.069   -23009901.95349 -16571509.83749  21039350.6114   21039352.9804
  23130320.315    -9315589.67549  -7242110.40649  23130319.2434   23130322.4984
  22428413.508   -16281644.54649 -12481403.04049  22428413.4824   22428415.0854
  24439163.043    -9082021.71549  -7066972.47549  24439163.0494   24439165.8804
  22680249.193   -14795418.44649 -11340893.80749  22680248.4414   22680251.6934
 98  2  3  2 59 30.0020000  0  8  4 24  9  5  8 30  6 10
  24325845.961    -5989245.54449  -4645864.42649  24325846.3874   24325848.6554
  21447040.634   -19705728.70949 -15081219.83049  21447040.4434   21447043.3074
  24709015.216    -3511604.85849  -2202021.94549  24709015.1154   24709018.5124
  21042096.573   -22995474.10449 -16560267.35949  21042096.1704   21042098.4704
  23144397.255    -9241614.94849  -7184467.77049  23144396.4184   23144399.1794
  22417101.101   -16341091.70949 -12527725.49249  22417101.5344   22417103.0534
  24428678.384    -9137118.49249  -7109904.98949  24428678.2284   24428680.4014
  22670108.038   -14848710.48049 -11382420.05449  22670107.2414   22670110.2424
 98  2  3  3  0  0.0020000  0  8  4 24  9  5  8 30  6 10
  24346670.906    -5879810.12649  -4560590.08249  24346671.4704   24346674.1034
  21458330.410   -19646400.50149 -15034990.05649  21458330.2674   21458333.1364
  24728860.963    -3407314.78549  -2120756.96249  24728860.5664   24728863.8924
  21044958.142   -22980436.51649 -16548549.76549  21044957.7494   21044959.9864
  23158563.386    -9167171.40749  -7126459.82649  23158562.7814   23158565.4784
  22405868.305   -16400120.40849 -12573721.87849  22405868.3404   22405870.4644
  24418209.865    -9192130.71549  -7152771.61849  24418209.8054   24418212.9534
  22660056.562   -14901530.84849 -11423578.76449  22660055.7704   22660059.0424
 98  2  3  3  0 30.0020000  0  8  4 24  9  5  8 30  6 10
  24367511.329    -5770292.99949  -4475252.06049  24367511.3034   24367514.1494
  21469686.439   -19586724.23149 -14988489.06049  21469686.1064   21469689.2104
  24748714.721    -3302982.70649  -2039459.25449  24748713.9624   24748718.2654
  21047928.954   -22964824.86349 -16536384.84149  21047928.3624   21047930.8834
  23172810.341    -9092302.96949  -7068120.79149  23172809.9674   23172812.8474
  22394706.400   -16458776.98549 -12619428.28849  22394706.4374   22394708.1834
  24407747.895    -9247108.95249  -7195611.78749  24407748.4874   24407750.5644
  22650086.160   -14953925.54849 -11464405.78649  22650085.3624   22650088.7044
 98  2  3  3  1  0.0020000  0  8  4 24  9  5  8 30  6 10
  24388376.802    -5660644.48149  -4389811.67749  24388377.1884   24388379.6054
  21481118.350   -19526649.04349 -14941677.22649  21481118.3914   21481121.1534
  24768587.595    -3198550.14149  -1958083.24449  24768587.5344   24768590.3264
  21051017.641   -22948593.71249 -16523737.19749  21051017.3044   21051019.5864
  23187149.631    -9016949.67249  -7009403.94849  23187149.3414   23187151.7024
  22383627.301   -16516997.96549 -12664795.28249  22383627.6074   22383629.4274
  24397302.156    -9302001.44349  -7238385.12349  24397301.2604   24397305.0844
  22640207.191   -15005839.97849 -11504858.57849  22640206.6314   22640209.7104
 98  2  3  3  1 30.0020000  0  8  4 24  9  5  8 30  6 10
  24409261.178    -5550896.37949  -4304293.67549  24409261.4204   24409262.8644
  21492620.800   -19466203.36949 -14894576.69849  21492620.4684   21492623.3864
  24788475.550    -3094038.38049  -1876645.52149  24788475.7054   24788478.8524
  21054216.447   -22931783.98849 -16510638.70949  21054216.0304   21054218.4694
  23201577.312    -8941131.14849  -6950324.59549  23201576.5534   23201579.8414
  22372625.856   -16574811.11949 -12709844.49149  22372626.0034   22372627.9884
  24386863.077    -9356859.08849  -7281131.31449  24386863.1764   24386865.4404
  22630416.793   -15057288.93149 -11544948.66249  22630415.6194   22630419.3354
 98  2  3  3  2  0.0020000  0  8  4 24  9  5  8 30  6 10
  24430172.185    -5441008.57749  -4218666.80649  24430172.8134   24430174.1304
  21504202.898   -19405338.84149 -14847149.79249  21504202.8304   21504205.7474
  24808386.537    -2989406.05849  -1795113.84349  24808386.2124   24808389.4184
  21057529.929   -22914371.52849 -16497070.55949  21057529.4864   21057531.8864
  23216101.145    -8864808.06849  -6890852.06749  23216100.7784   23216103.6514
  22361711.111   -16632168.69749 -12754538.70149  22361711.1894   22361713.1664
  24376439.778    -9411633.63049  -7323812.74949  24376438.8234   24376442.5094
  22620725.563   -15108216.62249 -11584632.56249  22620724.8284   22620727.8754
 98  2  3  3  2 30.0020000  0  8  4 24  9  5  8 30  6 10
  24451102.551    -5331018.52149  -4132960.27449  24451102.7344   24451105.1044
  21515856.672   -19344097.92049 -14799429.59349  21515856.6324   21515859.2864
  24828315.178    -2884680.18349  -1713509.28049  24828315.1254   24828318.4154
  21060948.963   -22896404.43149 -16483070.22749  21060948.5294   21060950.9364
  23230714.833    -8788012.67949  -6831011.51349  23230714.3114   23230717.0654
  22350875.956   -16689107.61749 -12798906.68949  22350876.4204   22350877.8404
  24366028.323    -9466346.15849  -7366445.86149  24366027.5704   24366031.4064
  22611127.053   -15158657.11849 -11623936.83849  22611126.2534   22611129.3384
 98  2  3  3  3  0.0020000  0  8  4 24  9  5  8 30  6 10
  24472050.437    -5220936.68649  -4047182.21749  24472051.5114   24472052.7544
  21527578.836   -19282497.56649 -14751429.31349  21527578.6974   21527581.5314
  24848260.647    -2779866.14949  -1631836.01249  24848260.0784   24848263.6534
  21064471.375   -22877894.01449 -16468646.52749  21064470.9404   21064473.3484
  23245416.367    -8710755.69349  -6770811.27249  23245416.2234   23245418.1744
  22340118.848   -16745636.58149 -12842955.22949  22340119.2974   22340120.8314
  24355629.218    -9520993.30549  -7409028.03049  24355629.3294   24355631.4924
  22601622.712   -15208602.80349 -11662855.54549  22601621.7534   22601624.9444
 98  2  3  3  3 30.0020000  0  8  4 24  9  5  8 30  6 10
  24493012.394    -5110780.57049  -3961346.29149  24493013.0304   24493013.8554
  21539367.178   -19220549.48849 -14703158.07749  21539366.7474   21539369.8514
  24868219.049    -2674984.02249  -1550109.68949  24868219.8104   24868222.2224
  21068097.347   -22858839.32149 -16453798.71649  21068096.8404   21068099.2924
  23260202.668    -8633053.31849  -6710263.98049  23260202.1674   23260204.9784
  22329437.433   -16801767.50249 -12886693.60149  22329437.6624   22329439.3914
  24345244.058    -9575567.65649  -7451553.47349  24345244.1284   24345247.1294
  22592210.216   -15258065.76549 -11701398.09249  22592209.5294   22592212.4844
 98  2  3  3  4  0.0020000  0  8  4 24  9  5  8 30  6 10
  24514001.257    -5000483.03949  -3875400.15749  24514001.4404   24514002.9544
  21551235.995   -19158178.32449 -14654557.16949  21551235.9504   21551238.8674
  24888202.081    -2569972.63749  -1468282.64049  24888202.2064   24888204.3694
  21071843.633   -22839152.28049 -16438458.17149  21071843.2264   21071845.5674
  23275084.382    -8554849.12949  -6649325.66149  23275084.0754   23275086.4794
  22318846.196   -16857424.70749 -12930062.84849  22318846.4444   22318848.3444
  24334890.428    -9629976.43549  -7493949.90149  24334890.9464   24334893.1574
  22582900.794   -15306987.01649 -11739518.52749  22582899.9844   22582903.0944
 98  2  3  3  4 30.0020000  0  8  4 24  9  5  8 30  6 10
  24535013.475    -4890063.57049  -3789359.01549  24535014.3434   24535015.0944
  21563181.876   -19095402.53249 -14605640.96649  21563181.8104   21563184.5414
  24908201.835    -2464873.43949  -1386387.16149  24908201.8114   24908204.3494
  21075708.460   -22818842.59549 -16422632.44649  21075708.1814   21075710.4544
  23290056.474    -8476170.40649  -6588017.57749  23290056.0104   23290059.0694
  22308341.781   -16912625.71949 -12973076.61849  22308341.8964   22308343.6384
  24324563.132    -9684246.53249  -7536238.26449  24324562.8564   24324565.7824
  22573692.698   -15355375.69349 -11777223.98249  22573692.0684   22573695.2784
 98  2  3  3  5  0.0020000  0  8  4 24  9  5  8 30  6 10
  24556040.520    -4779565.85549  -3703256.89749  24556040.0174   24556042.7274
  21575197.485   -19032260.00049 -14556438.99349  21575197.3424   21575200.2194
  24928205.777    -2359751.86649  -1304474.25549  24928205.4324   24928207.9274
  21079685.009   -22797945.79549 -16406349.23149  21079684.6584   21079687.0104
  23305107.540    -8397076.93549  -6526386.30849  23305107.3604   23305109.3944
  22297918.813   -16967398.56049 -13015756.75149  22297918.7724   22297920.9354
  24314253.608    -9738423.17549  -7578453.80549  24314253.5334   24314256.2264
  22564578.582   -15403270.65749 -11814544.72349  22564577.6884   22564580.7984
 98  2  3  3  5 30.0020000  0  8  4 24  9  5  8 30  6 10
  24577082.019    -4668991.83849  -3617095.34849  24577081.9704   24577084.4854
  21587284.030   -18968744.74049 -14506946.57849  21587283.8944   21587286.8724
  24948213.090    -2254612.59549  -1222547.56249  24948212.8624   24948215.4534
  21083773.142   -22776462.52349 -16389609.02149  21083772.7184   21083775.0944
  23320235.007    -8317581.39249  -6464441.73649  23320234.6474   23320237.1034
  22287578.911   -17021735.08549 -13058096.88949  22287579.1104   22287581.2804
  24303957.328    -9792530.53349  -7620615.36549  24303957.0714   24303959.5954
  22555555.989   -15450684.84749 -11851490.82949  22555555.0144   22555558.3324
 98  2  3  3  6  0.0020000  0  8  4 24  9  5  8 30  6 10
  24598139.482    -4558334.58449  -3530868.89149  24598138.8234   24598140.5174
  21599444.068   -18904843.31349 -14457153.25849  21599444.0164   21599446.9034
  24968226.503    -2149441.31049  -1140595.92049  24968227.0664   24968230.2514
  21087970.634   -22754404.46249 -16372420.92749  21087970.1424   21087972.5004
  23335439.724    -8237679.80949  -6402180.77249  23335439.5214   23335442.2654
  22277322.436   -17075633.33949 -13100095.52549  22277322.8504   22277324.7114
  24293670.667    -9846586.94849  -7662737.21749  24293670.5324   24293673.0344
  22546627.817   -15497602.59349 -11888050.11249  22546626.7754   22546630.2544
 98  2  3  3  6 30.0020000  0  8  4 24  9  5  8 30  6 10
  24619215.857    -4447577.30849  -3444564.53849  24619216.0614   24619217.7054
  21611677.543   -18840555.95349 -14407059.20549  21611677.4674   21611680.3834
  24988249.008    -2044222.38449  -1058607.16549  24988248.2564   24988252.4694
  21092278.385   -22731767.01649 -16354781.35649  21092277.8904   21092280.4304
  23350725.461    -8157352.71949  -6339588.23849  23350724.5604   23350727.6124
  22267150.612   -17129086.61149 -13141747.41549  22267150.7724   22267152.6294
  24283394.543    -9900588.13549  -7704816.04849  24283394.7264   24283397.0964
  22537797.604   -15544005.43449 -11924208.15549  22537796.8084   22537800.2174
 98  2  3  3  7  0.0020000  0  8  4 24  9  5  8 30  6 10
  24640306.735    -4336744.30649  -3358201.16349  24640306.4914   24640309.1124
  21623977.385   -18775919.87249 -14356693.43149  21623977.3224   21623980.0804
  25008279.103    -1938963.14449   -976586.99549  25008279.3384   25008281.6514
  21096689.835   -22708584.88249 -16336717.36449  21096689.4564   21096691.8384
  23366088.004    -8076622.21549  -6276681.37249  23366087.3644   23366090.0834
  22257058.910   -17182118.76749 -13183071.17749  22257059.0094   22257061.0384
  24273125.436    -9954552.68049  -7746866.33249  24273125.6654   24273128.1034
  22529057.991   -15589932.55549 -11959995.50449  22529056.9584   22529060.1734
 98  2  3  3  7 30.0020000  0  8  4 24  9  5  8 30  6 10
  24661415.563    -4225816.48749  -3271763.89149  24661416.1374   24661417.1264
  21636345.433   -18710925.37749 -14306048.36349  21636345.3204   21636347.9904
  25028323.146    -1833631.07049   -894510.08349  25028323.3124   25028326.1844
  21101208.064   -22684841.45949 -16318215.99349  21101207.5384   21101209.9084
  23381532.656    -7995460.03149  -6213438.12149  23381531.8624   23381534.9544
  22247048.446   -17234724.01249 -13224062.27249  22247048.8794   22247050.2504
  24262867.608   -10008458.17549  -7788870.58849  24262867.2774   24262870.2624
  22520411.528   -15635369.96749 -11995401.26449  22520410.9744   22520413.8014
 98  2  3  3  8  0.0020000  0  8  4 24  9  5  8 30  6 10
  24682549.882    -4114755.15049  -3185222.59349  24682549.3474   24682551.5684
  21648784.350   -18645558.20149 -14255112.90049  21648784.1294   21648787.0344
  25048384.515    -1728208.07549   -812362.30749  25048384.3444   25048387.2784
  21105838.452   -22660508.69849 -16299255.40549  21105838.0424   21105840.4014
  23397066.192    -7913830.96149  -6149831.07549  23397065.8784   23397068.8444
  22237122.245   -17286886.50649 -13264708.36549  22237122.2714   22237124.2354
  24252630.868   -10062252.64249  -7830788.34149  24252630.2034   24252633.2604
  22511864.712   -15680283.84649 -12030399.08949  22511864.0414   22511866.9844
 98  2  3  3  8 30.0020000  0  8  4 24  9  5  8 30  6 10
  24703705.984    -4003578.91349  -3098591.76949  24703706.4504   24703708.6494
  21661286.583   -18579858.62449 -14203918.42349  21661286.5834   21661289.2764
  25068455.840    -1622732.82349   -730173.81049  25068456.2894   25068458.2994
  21110580.883   -22635587.03649 -16279835.92849  21110580.3994   21110582.8674
  23412683.211    -7831763.13549  -6085882.11949  23412682.8474   23412686.0124
  22227278.931   -17338613.52149 -13305015.12449  22227279.2454   22227281.0544
  24242415.267   -10115935.67049  -7872619.25949  24242415.4354   24242417.8804
  22503413.066   -15724697.51349 -12065007.12949  22503412.2924   22503415.2654
 98  2  3  3  9  0.0020000  0  8  4 24  9  5  8 30  6 10
  24724875.491    -3892332.95649  -3011906.60149  24724874.9754   24724877.0174
  21673846.628   -18513855.24149 -14152487.20949  21673846.4784   21673849.2464
  25088528.857    -1517248.77049   -647978.46249  25088528.5934   25088531.1004
  21115429.495   -22610107.37549 -16259981.64749  21115429.1234   21115431.5184
  23428373.426    -7749310.70249  -6021633.48049  23428372.7554   23428375.6914
  22217512.622   -17389935.92549 -13345006.60149  22217512.7864   22217514.6944
  24232212.307   -10169552.99549  -7914398.96849  24232212.2694   24232214.3624
  22495049.321   -15768649.41449 -12099255.34849  22495048.6224   22495051.6754
 98  2  3  3  9 30.0020000  0  8  4 24  9  5  8 30  6 10
  24746060.943    -3781002.34149  -2925155.48149  24746060.6494   24746062.0004
  21686469.499   -18447521.58849 -14100798.64749  21686469.1504   21686472.1544
  25108603.969    -1411753.15749   -565774.09049  25108604.3454   25108607.1414
  21120391.713   -22584030.73449 -16239662.19049  21120391.1974   21120393.6794
  23444140.661    -7666453.49049  -5957069.42949  23444140.0404   23444143.1154
  22207826.829   -17440835.20849 -13384668.37949  22207827.0314   22207828.9914
  24222022.676   -10223099.91849  -7956123.80949  24222022.4734   24222025.2134
  22486781.264   -15812098.27549 -12133111.59249  22486780.3764   22486783.2724
 98  2  3  3 10  0.0020000  0  8  4 24  9  5  8 30  6 10
  24767257.361    -3669614.46449  -2838359.71949  24767257.8344   24767259.4734
  21699152.385   -18380872.50549 -14048864.30249  21699152.1704   21699155.0814
  25128675.719    -1306275.53149   -483583.73949  25128675.7204   25128678.6404
  21125466.412   -22557362.93549 -16218882.09549  21125466.0844   21125468.3754
  23459980.203    -7583216.27649  -5892209.27949  23459979.6344   23459982.0424
  22198222.829   -17491304.49949 -13423995.10049  22198223.2404   22198225.0044
  24211841.932   -10276599.59849  -7997811.85049  24211842.1804   24211844.9024
  22478610.057   -15855038.45549 -12166571.47149  22478609.2034   22478612.0764
 98  2  3  3 10 30.0020000  0  8  4 24  9  5  8 30  6 10
  24788454.183    -3558224.94649  -2751562.71949  24788454.5704   24788455.3224
  21711889.342   -18313939.12249 -13996708.41649  21711889.0024   21711891.9514
  25148738.417    -1200845.47249   -401430.44949  25148738.2514   25148741.5294
  21130647.197   -22530137.78349 -16197667.69349  21130646.7684   21130649.3054
  23475882.565    -7499648.83149  -5827091.79949  23475883.0844   23475885.7064
  22188697.483   -17541360.52149 -13462999.78949  22188697.7544   22188699.7324
  24201660.421   -10330103.78249  -8039503.39449  24201660.3894   24201663.4004
  22470529.084   -15897504.01249 -12199661.50349  22470528.0574   22470531.1394
 98  2  3  3 11  0.0020000  0  8  4 24  9  5  8 30  6 10
  24809652.754    -3446825.79849  -2664758.16949  24809653.7944   24809654.4274
  21724684.117   -18246702.21849 -13944316.02049  21724684.1744   21724687.0524
  25168795.782    -1095443.61349   -319299.14249  25168796.0454   25168798.1254
  21135934.768   -22502351.34449 -16176015.92449  21135934.2974   21135936.7274
  23491850.273    -7415737.87849  -5761706.65149  23491850.0314   23491852.4574
  22179252.253   -17590995.69949 -13501676.54849  22179252.5834   22179254.1334
  24191476.832   -10383619.11949  -8081203.62349  24191477.0394   24191479.5354
  22462541.330   -15939479.89649 -12232369.95849  22462540.6874   22462543.6464
 98  2  3  3 11 30.0020000  0  8  4 24  9  5  8 30  6 10
  24830850.934    -3335428.63249  -2577955.18449  24830850.6804   24830852.7454
  21737531.807   -18179187.30249 -13891706.99049  21737531.7204   21737534.6634
  25188845.444     -990082.07649   -237199.25149  25188844.6364   25188848.0584
  21141325.534   -22474022.87249 -16153941.79449  21141325.1354   21141327.4974
  23507884.691    -7331476.34549  -5696048.33249  23507883.8014   23507887.9244
  22169885.085   -17640220.50549 -13540033.53649  22169885.3584   22169887.1034
  24181291.712   -10437142.45149  -8122910.09649  24181291.5004   24181293.8554
  22454646.584   -15980966.86149 -12264697.45449  22454645.9524   22454648.4974
 98  2  3  3 12  0.0020000  0  8  4 24  9  5  8 30  6 10
  24852052.162    -3224015.01649  -2491139.39149  24852052.3324   24852053.3634
  21750432.960   -18111391.27549 -13838878.91849  21750432.7494   21750435.4454
  25208892.433     -884734.45349   -155110.20949  25208891.9374   25208895.7164
  21146818.689   -22445156.20149 -16131448.29149  21146818.1724   21146820.5494
  23523986.208    -7246862.17849  -5630115.22049  23523985.5044   23523988.2324
  22160600.644   -17689010.37049 -13578051.61049  22160600.8454   22160602.4494
  24171111.273   -10490640.99549  -8164597.24749  24171111.5684   24171113.2994
  22446845.284   -16021962.98049 -12296642.47149  22446844.5434   22446847.4064
 98  2  3  3 12 30.0020000  0  8  4 24  9  5  8 30  6 10
  24873260.793    -3112563.02649  -2404293.67849  24873261.1204   24873262.6044
  21763388.153   -18043311.25549 -13785829.54849  21763387.7704   21763390.9354
  25228938.228     -779393.32149    -73026.23149  25228938.1004   25228941.3074
  21152412.181   -22415762.21749 -16108543.89049  21152411.7904   21152414.1064
  23540154.925    -7161894.97149  -5563907.01649  23540154.4204   23540157.6294
  22151397.810   -17737371.73749 -13615735.78849  22151397.8464   22151399.7274
  24160935.123   -10544116.92549  -8206266.78049  24160934.6334   24160937.8064
  22439134.838   -16062481.52249 -12328215.34549  22439133.8514   22439137.1634
 98  2  3  3 13  0.0020000  0  8  4 24  9  5  8 30  6 10
  24894477.575    -3001067.33749  -2317413.92249  24894477.6424   24894479.4764
  21776397.194   -17974948.07649 -13732559.53749  21776397.1444   21776399.9194
  25248980.945     -674068.47449      9045.07049  25248980.9644   25248983.9024
  21158103.716   -22385853.02749 -16085238.03149  21158103.2604   21158105.5674
  23556392.637    -7076565.46249  -5497416.49249  23556392.3194   23556394.5174
  22142274.438   -17785315.37849 -13653094.46849  22142274.5324   22142276.2084
  24150765.177   -10597560.41949  -8247911.03149  24150765.1934   24150768.1354
  22431516.915   -16102513.86649 -12359409.37249  22431515.9454   22431518.8754
 98  2  3  3 13 30.0030000  0  8  4 24  9  5  8 30  6 10
  24915698.765    -2889548.77149  -2230516.36249  24915699.8904   24915700.8664
  21789457.277   -17906317.11149 -13679080.86049  21789457.0034   21789459.7734
  25269015.364     -568786.82149     91082.70849  25269014.1164   25269018.6754
  21163886.885   -22355462.10849 -16061556.79949  21163886.3764   21163888.7774
  23572693.136    -6990905.65749  -5430668.60349  23572692.9344   23572695.1264
  22133226.895   -17832860.29049 -13690142.44849  22133226.8864   22133228.9964
  24140600.232   -10650977.61449  -8289534.79949  24140599.9204   24140603.0544
  22423987.770   -16142079.72849 -12390239.89649  22423986.8374   22423989.9974
 98  2  3  3 14  0.0030000  0  8  4 24  9  5  8 30  6 10
  24936929.408    -2777981.35449  -2143580.70449  24936928.7634   24936931.3874
  21802574.286   -17837386.62849 -13625368.79549  21802574.1224   21802576.9574
  25289044.877     -463530.66549    173100.47149  25289045.0484   25289047.8154
  21169767.401   -22324559.77549 -16037477.05249  21169766.8954   21169769.2364
  23589056.631    -6904914.64249  -5363662.63149  23589056.2364   23589058.6344
  22124261.346   -17879974.25049 -13726854.62349  22124261.5624   22124263.4284
  24130445.761   -10704339.76449  -8331115.66949  24130445.2304   24130448.4144
  22416550.898   -16181160.52049 -12420692.44749  22416550.0954   22416553.1414
 98  2  3  3 14 30.0030000  0  8  4 24  9  5  8 30  6 10
  24958162.552    -2666399.76549  -2056634.01049  24958163.1534   24958164.1974
  21815746.894   -17768164.25449 -13571429.28349  21815746.7634   21815749.5804
  25309063.848     -358330.11149    255074.90849  25309064.0504   25309067.1014
  21175741.666   -22293164.86849 -16013013.49149  21175741.0404   21175743.5764
  23605480.617    -6818605.90849  -5296409.08249  23605480.0364   23605482.8594
  22115368.296   -17926707.53649 -13763270.17049  22115368.6094   22115370.3564
  24120293.304   -10757690.94349  -8372687.99849  24120292.9694   24120295.4534
  22409201.510   -16219781.77949 -12450786.92949  22409200.5334   22409203.7184
 98  2  3  3 15  0.0030000  0  8  4 24  9  5  8 30  6 10
  24979389.031    -2554853.97349  -1969715.22549  24979389.8684   24979391.1174
  21828969.678   -17698677.87349 -13517284.04749  21828969.5294   21828972.4334
  25329067.516     -253210.42649    336986.33249  25329067.1924   25329070.2224
  21181805.661   -22261298.44949 -15988182.51949  21181805.1214   21181807.4854
  23621960.052    -6732005.96149  -5228928.61249  23621959.4484   23621962.7114
  22106542.630   -17973086.98849 -13799410.00349  22106542.6894   22106544.6154
  24110141.114   -10811041.10949  -8414259.52549  24110140.7074   24110143.5924
  22401936.613   -16257959.06849 -12480535.45849  22401935.7534   22401938.9054
 98  2  3  3 15 30.0030000  0  8  4 24  9  5  8 30  6 10
  25000616.985    -2443300.05649  -1882790.09649  25000617.1234   25000619.2144
  21842248.486   -17628897.11549 -13462909.43049  21842248.0564   21842251.2544
  25349066.710     -148114.75049    418879.03949  25349066.1074   25349069.4694
  21187971.669   -22228895.82849 -15962933.72449  21187971.1334   21187973.5754
  23638501.568    -6645079.68549  -5161193.85549  23638500.8264   23638503.8994
  22097795.974   -18019051.11149 -13835226.20249  22097796.4544   22097798.0694
  24099997.626   -10864345.21149  -8455795.16449  24099996.9294   24099999.9614
  22394765.091   -16295645.69649 -12509901.64849  22394764.2974   22394767.2614
 98  2  3  3 16  0.0030000  0  8  4 24  9  5  8 30  6 10
  25021835.819    -2331794.31549  -1795902.51149  25021836.7934   25021837.8684
  21855571.206   -17558885.81049 -13408355.16449  21855571.1934   21855574.2294
  25369053.328      -43084.11049    500721.07049  25369052.6104   25369056.0294
  21194232.025   -22195997.35549 -15937298.55449  21194231.6394   21194233.9224
  23655095.811    -6557876.48549  -5093243.32049  23655095.4184   23655098.3604
  22089118.890   -18064649.53149 -13870757.43449  22089118.9914   22089121.0304
  24089849.834   -10917671.47649  -8497348.07349  24089849.8244   24089852.2444
  22387676.762   -16332894.97149 -12538927.03949  22387675.8844   22387679.0844
 98  2  3  3 16 30.0030000  0  8  4 24  9  5  8 30  6 10
  25043047.629    -2220325.61549  -1709043.77849  25043048.5484   25043049.5694
  21868942.599   -17488618.63349 -13353601.52049  21868942.5964   21868945.4024
  25389030.853       61898.99249    582526.05649  25389029.8504   25389034.1404
  21200592.252   -22162574.21449 -15911254.54949  21200591.8864   21200594.0904
  23671746.272    -6470377.88249  -5025062.60549  23671746.0414   23671748.4684
  22080520.749   -18109833.07849 -13905965.39049  22080520.9434   22080522.7784
  24079703.271   -10970991.88549  -8538896.41849  24079703.6484   24079705.9714
  22380679.183   -16369667.41649 -12567580.87949  22380678.2794   22380681.2494
 98  2  3  3 17  0.0030000  0  8  4 24  9  5  8 30  6 10
  25064248.051    -2108916.51949  -1622231.49449  25064247.5034   25064249.4314
  21882353.080   -17418146.03849 -13298687.80449  21882352.8824   21882355.6604
  25408990.414      166787.32749    664257.19649  25408989.3434   25408993.4884
  21207046.843   -22128655.20249 -15884824.14949  21207046.3874   21207048.6914
  23688443.630    -6382632.55849  -4956689.63549  23688443.8824   23688446.3454
  22072002.160   -18154598.57149 -13940847.58849  22072002.4914   22072004.1434
  24069553.123   -11024331.59549  -8580459.80949  24069553.1554   24069556.1614
  22373769.269   -16405979.13049 -12595875.70549  22373768.6024   22373771.6764
 98  2  3  3 17 30.0030000  0  8  4 24  9  5  8 30  6 10
  25085442.306    -1997540.10249  -1535444.67649  25085443.2194   25085443.8434
  21895804.681   -17347457.45049 -13243605.78449  21895804.4504   21895807.2474
  25428930.399      271572.44849    745907.90949  25428929.9184   25428933.3564
  21213598.120   -22094227.94049 -15857997.71149  21213597.6924   21213599.9514
  23705188.642    -6294636.92349  -4888121.62249  23705188.1304   23705191.0324
  22063567.503   -18198922.86349 -13975386.00049  22063567.6204   22063569.3114
  24059397.350   -11077700.27749  -8622045.78149  24059397.5064   24059399.6164
  22366950.649   -16441811.22749 -12623796.80849  22366949.8534   22366952.8804
 98  2  3  3 18  0.0030000  0  8  4 24  9  5  8 30  6 10
  25106636.749    -1886162.89749  -1448657.24649  25106636.0284   25106637.8044
  21909306.077   -17276507.26149 -13188319.92249  21909305.9334   21909308.7504
  25448851.677      376259.68249    827482.35449  25448851.3674   25448854.6554
  21220250.353   -22059270.30849 -15830758.00149  21220250.0574   21220252.3804
  23721986.300    -6206364.73449  -4819338.10349  23721986.5504   23721988.7034
  22055220.593   -18242786.17449 -14009565.20549  22055220.9184   22055222.6664
  24049239.965   -11131077.62349  -8663638.49949  24049239.7584   24049242.1344
  22360228.229   -16477137.67349 -12651323.90249  22360227.4574   22360230.7424
 98  2  3  3 18 30.0030000  0  8  4 24  9  5  8 30  6 10
  25127833.045    -1774776.02349  -1361862.28249  25127833.3334   25127835.4614
  21922858.111   -17205290.86549 -13132826.62649  21922857.7514   21922860.6564
  25468750.079      480827.30649    908963.59349  25468750.5714   25468752.8494
  21227005.346   -22023772.72749 -15803097.55349  21227004.7404   21227007.2524
  23738839.642    -6117800.01549  -4750326.63449  23738839.4734   23738842.0554
  22046963.048   -18286179.85849 -14043378.46149  22046963.1954   22046965.0644
  24039083.460   -11184450.41249  -8705227.66849  24039083.0294   24039085.7914
  22353605.543   -16511940.02449 -12678442.59949  22353604.8314   22353607.7744
 98  2  3  3 19  0.0030000  0  8  4 24  9  5  8 30  6 10
  25149033.560    -1663366.86049  -1275049.94849  25149033.2474   25149035.3484
  21936460.384   -17133810.40249 -13077127.56649  21936460.1754   21936463.0624
  25488626.971      585281.12549    990356.16249  25488627.4404   25488630.9574
  21233862.584   -21987737.54549 -15775018.19349  21233861.9834   21233864.5834
  23755752.922    -6028920.49749  -4681069.88449  23755752.9244   23755755.8324
  22038791.331   -18329122.48149 -14076840.24249  22038791.4524   22038793.2864
  24028928.710   -11237813.69249  -8746809.41849  24028927.9794   24028931.4294
  22347082.694   -16546218.00749 -12705152.70549  22347081.8574   22347084.9914
 98  2  3  3 19 30.0030000  0  8  4 24  9  5  8 30  6 10
  25170231.950    -1551968.57349  -1188246.09449  25170232.3814   25170233.5144
  21950107.471   -17062094.50249 -13021245.04149  21950107.2674   21950110.1974
  25508479.946      689608.97449   1071650.57949  25508479.4574   25508483.0734
  21240819.235   -21951180.17949 -15746531.94049  21240818.6374   21240821.1524
  23772723.610    -5939739.21849  -4611577.98549  23772723.0364   23772725.6084
  22030698.828   -18371648.89849 -14109977.70849  22030698.9744   22030700.8254
  24018774.311   -11291175.19949  -8788389.79149  24018774.3984   24018776.3864
  22340651.806   -16580012.56749 -12731486.11049  22340651.0094   22340654.1094
 98  2  3  3 20  0.0030000  0  8  4 24  9  5  8 30  6 10
  25191431.113    -1440566.39149  -1101439.18849  25191430.8254   25191433.7544
  21963804.751   -16990114.93849 -12965157.07049  21963804.5454   21963807.2804
  25528316.065      793847.61049   1152875.48149  25528316.3944   25528319.4854
  21247881.544   -21914067.31549 -15717612.83149  21247880.9984   21247883.3004
  23789757.053    -5850227.59549  -4541828.67349  23789756.5544   23789759.2844
  22022690.066   -18413735.24849 -14142772.26449  22022690.2594   22022692.0284
  24008630.376   -11344482.20149  -8829927.69349  24008629.7814   24008632.4354
  22334316.918   -16613302.64149 -12757426.42049  22334316.1254   22334319.1204
 98  2  3  3 20 30.0030000  0  8  4 24  9  5  8 30  6 10
  25212626.949    -1329181.32949  -1014645.64449  25212626.2124   25212627.6324
  21977547.373   -16917896.92249 -12908883.29349  21977547.3014   21977550.0254
  25548135.838      898001.10649   1234034.02849  25548135.3444   25548139.5444
  21255046.482   -21876415.38949 -15688273.67549  21255046.1884   21255048.5974
  23806849.744    -5760405.02049  -4471837.08149  23806849.4914   23806852.3474
  22014765.803   -18455377.49249 -14175220.76949  22014766.1754   22014768.1124
  23998497.953   -11397728.66249  -8871418.42649  23998497.5464   23998499.8514
  22328075.982   -16646098.98649 -12782982.00149  22328075.2254   22328078.2474
 98  2  3  3 21  0.0030000  0  8  4 24  9  5  8 30  6 10
  25233820.778    -1217807.57849   -927860.90749  25233821.0294   25233821.8534
  21991336.221   -16845435.90249 -12852420.15949  21991335.9854   21991339.1214
  25567946.015     1002104.70349   1315153.71149  25567946.1994   25567948.9534
  21262314.478   -21838222.04449 -15658512.62849  21262314.0264   21262316.4864
  23823997.408    -5670293.25249  -4401620.12549  23823996.6904   23823999.2814
  22006928.029   -18496565.35449 -14207315.20449  22006928.1914   22006930.2354
  23988378.535   -11450906.32649  -8912855.55049  23988378.3214   23988381.0884
  22321931.469   -16678388.55049 -12808142.69449  22321930.7994   22321933.7534
 98  2  3  3 21 30.0030000  0  8  4 24  9  5  8 30  6 10
  25255013.251    -1106440.19449   -841081.13549  25255014.0784   25255014.4004
  22005173.311   -16772721.62749 -12795759.68649  22005173.1764   22005176.0364
  25587750.110     1106175.75149   1396248.01049  25587749.4704   25587753.8884
  21269686.439   -21799482.08449 -15628325.65249  21269686.0734   21269688.4014
  23841196.350    -5579911.95149  -4331193.15649  23841195.7544   23841198.6784
  21999179.992   -18537281.43249 -14239042.01749  21999180.2944   21999182.0624
  23978272.717   -11504012.91749  -8954237.29949  23978272.2284   23978274.6324
  22315887.911   -16710147.61449 -12832890.00749  22315887.2534   22315890.2654
 98  2  3  3 22  0.0030000  0  8  4 24  9  5  8 30  6 10
  25276204.377     -995080.55249   -754307.35849  25276204.1584   25276206.9424
  22019059.546   -16699748.92549 -12738897.84049  22019059.4124   22019062.3854
  25607546.049     1210203.60049   1477308.67149  25607546.1754   25607549.2544
  21277158.987   -21760213.61349 -15597726.84549  21277158.4904   21277160.8714
  23858442.092    -5489285.22449  -4260574.93249  23858441.5854   23858444.1544
  21991521.570   -18577526.63849 -14270401.91349  21991521.8264   21991523.6224
  23968175.445   -11557074.27149  -8995583.78849  23968175.2484   23968177.4334
  22309948.006   -16741361.97949 -12857212.87449  22309947.2854   22309950.1044
 98  2  3  3 22 30.0030000  0  8  4 24  9  5  8 30  6 10
  25297398.104     -883706.26049   -667522.21249  25297398.1064   25297399.8454
  22032998.299   -16626500.44049 -12681821.09949  22032998.0234   22033000.6904
  25627338.848     1314215.79249   1558357.11049  25627339.4024   25627341.9454
  21284736.278   -21720394.56049 -15566699.01949  21284735.8344   21284738.2354
  23875739.296    -5398387.88649  -4189745.84449  23875738.4704   23875741.7674
  21983957.855   -18617274.06749 -14301373.93949  21983958.2124   21983959.8894
  23958088.343   -11610082.58349  -9036888.94349  23958088.1914   23958090.3054
  22304118.272   -16771997.31949 -12881084.55749  22304117.4014   22304120.4914
 98  2  3  3 23  0.0030000  0  8  4 24  9  5  8 30  6 10
  25318590.308     -772340.01049   -580743.35249  25318590.4054   25318592.2624
  22046985.617   -16552996.48449 -12624545.28149  22046985.2904   22046988.2424
  25647121.350     1418173.31349   1639362.95549  25647121.0884   25647124.1814
  21292415.682   -21680038.89149 -15535253.03949  21292415.1384   21292417.5754
  23893084.067    -5307240.50349  -4118721.91549  23893083.2634   23893087.0584
  21976481.648   -18656561.99949 -14331987.90149  21976481.7484   21976483.8574
  23948002.994   -11663080.86449  -9078186.28549  23948002.4834   23948005.7664
  22298395.736   -16802069.40149 -12904517.33149  22298394.8724   22298397.8504
 98  2  3  3 23 30.0030000  0  8  4 24  9  5  8 30  6 10
  25339798.841     -660889.20549   -493898.56349  25339799.1624   25339800.3744
  22061037.529   -16479153.30549 -12567005.14949  22061037.0724   22061040.0344
  25666904.985     1522137.13349   1720373.70449  25666904.2724   25666907.5924
  21300215.050   -21639052.99149 -15503315.98649  21300214.5084   21300217.1144
  23910498.252    -5215728.51049  -4047413.88449  23910497.5474   23910500.2494
  21969110.560   -18695297.38249 -14362171.32149  21969110.9014   21969112.5524
  23937936.128   -11715982.52349  -9119408.34649  23937936.3224   23937938.7504
  22292793.380   -16831509.97049 -12927458.03349  22292792.5914   22292795.3194
 98  2  3  3 24  0.0030000  0  8  4 24  9  5  8 30  6 10
  25361018.321     -549379.64049   -407007.97449  25361018.0234   25361020.9674
  22075149.038   -16404996.54549 -12509220.65949  22075148.9624   22075151.5934
  25686682.098     1626067.02149   1801358.01949  25686681.8804   25686685.5784
  21308131.016   -21597454.17949 -15470901.32749  21308130.5584   21308132.8714
  23927982.085    -5123850.61349  -3975820.72949  23927981.0834   23927984.2524
  21961842.142   -18733493.19849 -14391934.29349  21961842.4934   21961844.2964
  23927884.366   -11768804.59449  -9160568.38449  23927884.4604   23927887.2634
  22287305.669   -16860348.08749 -12949929.28249  22287304.7704   22287307.4764
 98  2  3  3 24 30.0030000  0  8  4 24  9  5  8 30  6 10
  25382247.253     -437820.22649   -320078.59049  25382247.8554   25382249.8684
  22089317.835   -16330539.00449 -12451201.79949  22089317.6044   22089320.3584
  25706449.580     1729945.39349   1882302.18549  25706449.7754   25706453.0584
  21316162.567   -21555248.25349 -15438013.59849  21316162.1484   21316164.4774
  23945535.201    -5031608.25049  -3903943.57749  23945534.8914   23945537.8144
  21954675.332   -18771155.17649 -14421281.28549  21954675.4444   21954677.2294
  23917848.610   -11821542.99649  -9201663.23149  23917848.5484   23917851.1454
  22281929.660   -16888599.26449 -12971943.17549  22281928.7124   22281931.6254
 98  2  3  3 25  0.0030000  0  8  4 24  9  5  8 30  6 10
  25403487.378     -326202.81049   -233104.00349  25403488.6614   25403490.6434
  22103542.857   -16255786.18749 -12392952.85549  22103542.5764   22103545.3764
  25726204.541     1833758.74749   1963195.70149  25726204.2694   25726209.0904
  21324307.247   -21512447.78749 -15404662.59149  21324306.8804   21324309.3044
  23963156.408    -4939007.99849  -3831787.55249  23963155.7624   23963159.3714
  21947609.551   -18808286.03849 -14450214.42849  21947609.8764   21947611.5634
  23907829.465   -11874193.33449  -9242689.46149  23907828.9144   23907832.4424
  22276663.664   -16916272.15049 -12993506.45549  22276663.0974   22276665.8014
 98  2  3  3 25 30.0030000  0  8  4 24  9  5  8 30  6 10
  25424745.593     -214490.23649   -146055.23149  25424745.9854   25424748.6224
  22117833.590   -16180687.58049 -12334434.46149  22117833.4134   22117836.1174
  25745958.279     1937565.52849   2044084.08949  25745958.4944   25745961.8984
  21332572.320   -21469014.59849 -15370818.55249  21332571.9484   21332574.2514
  23980854.275    -4846005.01149  -3759317.70949  23980854.0704   23980856.9124
  21940656.599   -18844824.05649 -14478685.61049  21940656.9094   21940658.4644
  23897839.669   -11926689.94849  -9283595.89349  23897839.2904   23897842.2464
  22271516.392   -16943321.17749 -13014583.60749  22271515.8104   22271518.4114
 98  2  3  3 26  0.0030000  0  8  4 24  9  5  8 30  6 10
  25446006.931     -102760.42849    -58993.08649  25446007.0264   25446009.0804
  22132178.935   -16105302.27649 -12275692.66649  22132178.7214   22132181.4684
  25765702.282     2041320.52549   2124932.11349  25765701.6264   25765705.7344
  21340945.119   -21425015.32349 -15336533.40549  21340944.6714   21340947.0204
  23998611.478    -4752690.57549  -3686605.18549  23998611.1674   23998614.5594
  21933804.654   -18880831.21049 -14506743.13349  21933804.9434   21933807.0434
  23887868.291   -11979089.78349  -9324426.92149  23887867.9834   23887870.4314
  22266481.400   -16969780.23749 -13035201.04649  22266480.7064   22266483.5884
 98  2  3  3 26 30.0030000  0  8  4 24  9  5  8 30  6 10
  25467278.230        9021.61249     28109.80949  25467278.4404   25467279.4874
  22146583.735   -16029604.33649 -12216707.26149  22146583.5994   22146586.4254
  25785446.890     2145078.98949   2205782.85349  25785446.0174   25785450.3954
  21349433.486   -21380408.57449 -15301774.90449  21349432.9654   21349435.3264
  24016431.892    -4659043.62349  -3613633.54649  24016431.5804   24016434.1924
  21927060.271   -18916273.14849 -14534360.22649  21927060.6924   21927062.1424
  23877922.572   -12031354.85249  -9365152.93249  23877922.6084   23877925.3194
  22261566.806   -16995606.53249 -13055325.42049  22261565.6994   22261568.7324
 98  2  3  3 27  0.0030000  0  8  4 24  9  5  8 30  6 10
  25488556.016      120836.25149    115238.09449  25488556.3904   25488557.3114
  22161044.255   -15953613.78349 -12157493.84249  22161044.1784   22161047.3104
  25805191.712     2248838.69749   2286634.56149  25805192.3874   25805194.3494
  21358034.101   -21335212.05149 -15266556.84049  21358033.6514   21358036.1124
  24034312.906    -4565077.96449  -3540413.57349  24034312.4024   24034315.4794
  21920421.282   -18951161.30249 -14561545.80249  21920421.5184   21920423.2144
  23867999.394   -12083501.85649  -9405786.94849  23867999.4784   23868001.9964
  22256771.901   -17020803.68349 -13074959.55649  22256771.2984   22256773.9824
 98  2  3  3 27 30.0030000  0  8  4 24  9  5  8 30  6 10
  25509831.026      232637.32949    202355.83149  25509830.5324   25509831.8734
  22175552.002   -15877375.17149 -12098087.13549  22175551.8854   22175554.7094
  25824929.434     2352561.23249   2367457.29649  25824929.8534   25824932.5714
  21366741.356   -21289455.11049 -15230902.08849  21366740.9434   21366743.3584
  24052245.764    -4470840.29749  -3466981.63449  24052245.0274   24052248.2074
  21913882.773   -18985521.42449 -14588319.92349  21913883.0444   21913884.8114
  23858091.682   -12135567.23049  -9446357.35749  23858091.8474   23858094.2734
  22252090.875   -17045402.74049 -13094127.64349  22252090.0694   22252092.8094
 98  2  3  3 28  0.0030000  0  8  4 24  9  5  8 30  6 10
  25531108.109      344449.70749    289482.30149  25531107.7324   25531110.8674
  22190106.408   -15800891.13049 -12038489.18149  22190106.2694   22190109.3944
  25844658.417     2456237.10049   2448243.67549  25844657.9364   25844660.7104
  21375556.267   -21243132.46249 -15194806.53049  21375555.8314   21375558.1034
  24070231.279    -4376326.12049  -3393334.24349  24070230.9864   24070233.3584
  21907446.017   -19019346.75849 -14614677.32749  21907446.3214   21907448.1134
  23848198.940   -12187554.16749  -9486866.64749  23848199.4154   23848202.0954
  22247524.963   -17069396.65949 -13112824.19349  22247524.0504   22247527.1534
 98  2  3  3 28 30.0030000  0  8  4 24  9  5  8 30  6 10
  25552388.742      456279.56949    376622.46649  25552388.9794   25552391.5164
  22204707.214   -15724163.47249 -11978701.39449  22204707.1214   22204709.9004
  25864373.994     2559843.24349   2528975.73049  25864373.5474   25864378.1414
  21384478.679   -21196244.85949 -15158270.73949  21384478.3444   21384480.6944
  24088269.765    -4281533.25849  -3319469.69149  24088269.7384   24088272.5284
  21901110.013   -19052642.64649 -14640622.17249  21901110.1774   21901112.0844
  23838319.193   -12239472.85349  -9527322.75049  23838319.8154   23838321.3094
  22243068.096   -17092817.58049 -13131074.25049  22243067.4254   22243070.1564
 98  2  3  3 29  0.0030000  0  8  4 24  9  5  8 30  6 10
  25573669.503      568109.75349    463762.89249  25573669.5674   25573671.3584
  22219352.506   -15647201.87249 -11918731.32149  22219352.3124   22219355.1674
  25884067.967     2663335.93849   2609619.35349  25884067.6334   25884071.8094
  21393504.306   -21148814.79949 -15121312.25949  21393503.7464   21393506.2974
  24106355.755    -4186491.06749  -3245410.84749  24106354.9584   24106358.1064
  21894871.277   -19085427.50049 -14666168.81149  21894871.4664   21894873.0024
  23828449.463   -12291338.83149  -9567737.78049  23828449.2384   23828451.3364
  22238713.878   -17115699.16549 -13148904.04749  22238713.0294   22238715.8654
 98  2  3  3 29 30.0030000  0  7  4 24  5  8 30  6 10
  25594940.666      679891.08149    550865.20149  25594940.5314   25594942.3214
  22234035.474   -15570042.28649 -11858606.96449  22234035.1584   22234037.9844
  21402627.238   -21100873.45949 -15083955.37049  21402626.8204   21402629.2634
  24124480.531    -4091244.90449  -3171193.06249  24124479.5104   24124483.7584
  21888722.021   -19117742.07049 -14691348.98949  21888722.1534   21888724.0344
  23818581.720   -12343193.95549  -9608144.35449  23818581.1494   23818583.9204
  22234453.544   -17138087.29049 -13166349.32349  22234452.5594   22234455.7444
 98  2  3  3 30  0.0030000  0  7  4 24  5  8 30  6 10
  25616202.875      791624.18249    637929.95849  25616203.5814   25616204.2814
  22248759.744   -15492665.71549 -11798313.53949  22248759.6144   22248762.4374
  21411848.624   -21052414.88949 -15046195.45649  21411848.2564   21411850.6954
  24142643.996    -3995795.32849  -3096816.78249  24142643.9054   24142646.4754
  21882660.027   -19149598.14849 -14716171.91349  21882660.3494   21882662.0874
  23808716.991   -12395033.15749  -9648538.52949  23808716.1794   23808719.6244
  22230289.741   -17159968.13349 -13183399.32849  22230289.0114   22230291.9364
 98  2  3  3 30 30.0030000  0  7  4 24  5  8 30  6 10
  25637457.468      903317.85149    724963.98249  25637457.6674   25637458.5564
  22263528.983   -15415052.76549 -11737835.91249  22263528.7704   22263531.7074
  21421172.969   -21003415.08649 -15008013.79649  21421172.3714   21421174.7054
  24160848.342    -3900130.87249  -3022273.06549  24160847.9634   24160850.6474
  21876689.166   -19180975.46749 -14740621.77049  21876689.4134   21876691.1524
  23798860.152   -12446830.84149  -9688900.35149  23798859.8124   23798862.9764
  22226228.264   -17181311.50149 -13200030.50649  22226227.2434   22226230.2814
 98  2  3  3 31  0.0030000  0  7  4 24  5  8 30  6 10
  25658708.655     1014992.99349    811983.61449  25658708.6064   25658711.2244
  22278346.901   -15337183.95849 -11677158.92049  22278346.7314   22278349.6574
  21430603.886   -20953855.18349 -14969395.69649  21430603.3324   21430605.9464
  24179098.724    -3804224.64149  -2947540.94549  24179098.1894   24179100.6124
  21870814.913   -19211844.72549 -14764675.73749  21870814.9204   21870816.9964
  23789017.267   -12498555.40949  -9729205.19449  23789016.8764   23789019.7604
  22222278.987   -17202064.97049 -13216202.03449  22222278.2574   22222281.1814
 98  2  3  3 31 30.0030000  0  7  4 24  5  8 30  6 10
  25679948.804     1126610.74749    898958.47749  25679948.4824   25679951.0144
  22293204.987   -15259104.34049 -11616317.66649  22293205.0154   22293207.9314
  21440133.431   -20903777.12349 -14930373.84349  21440133.0454   21440135.4944
  24197387.525    -3708116.01349  -2872651.11749  24197386.9984   24197389.4834
  21865030.362   -19242242.66349 -14788362.44849  21865030.6644   21865032.2524
  23779178.180   -12550260.01049  -9769494.48849  23779177.9884   23779180.3074
  22218438.091   -17222248.77849 -13231929.67049  22218437.3464   22218440.2224
 98  2  3  3 32  0.0030000  0  8  4 24  5  8 17 30  6 10
  25701188.029     1238223.83649    985929.68249  25701189.5274   25701189.9484
  22308106.651   -15180795.62949 -11555297.88949  22308106.5894   22308109.7764
  21449766.564   -20853154.84749 -14890927.91849  21449766.2464   21449768.6044
  24215719.689    -3611779.74149  -2797583.90549  24215718.6474   24215722.3354
  26003139.104    -2766164.23549  -1936524.36049  26003138.8724   26003141.8254
  21859344.156   -19272123.78549 -14811646.43749  21859344.4714   21859346.2214
  23769348.825   -12601913.63749  -9809744.05049  23769348.8124   23769350.9804
  22214712.452   -17241827.32249 -13247185.66949  22214711.7354   22214714.7514
 98  2  3  3 32 30.0030000  0  8  4 24  5  8 17 30  6 10
  25722420.559     1349801.91149   1072873.65649  25722421.1284   25722421.6674
  22323042.149   -15102309.01149 -11494139.48049  22323041.8004   22323044.8474
  21459496.993   -20802021.23649 -14851083.54849  21459496.4604   21459498.9844
  24234090.130    -3515242.58749  -2722360.15649  24234089.4194   24234092.7444
  25988137.583    -2844997.55549  -1997952.86549  25988137.3474   25988139.6614
  21853754.561   -19301497.17249 -14834534.78949  21853754.7504   21853756.5944
  23759523.267   -12653547.64349  -9849978.32149  23759523.6544   23759525.2724
  22211094.980   -17260837.37249 -13261998.68249  22211094.2894   22211096.9824
 98  2  3  3 33  0.0030000  0  8  4 24  5  8 17 30  6 10
  25743645.809     1461341.21349   1159787.41849  25743645.2654   25743648.4714
  22338012.183   -15023640.94249 -11432839.69249  22338011.9964   22338015.0564
  21469326.318   -20750367.67949 -14810834.03649  21469325.8454   21469328.2314
  24252500.888    -3418493.94749  -2646971.62049  24252500.9634   24252503.6474
  25973159.115    -2923710.63549  -2059287.70249  25973157.8274   25973161.7214
  21848261.823   -19330361.76449 -14857026.68549  21848262.1034   21848263.7274
  23749702.021   -12705158.57649  -9890194.62449  23749702.1834   23749704.1644
  22207586.331   -17279275.47849 -13276366.03349  22207585.6684   22207588.3794
 98  2  3  3 33 30.0030000  0  8  4 24  5  8 17 30  6 10
  25764859.044     1572817.20449   1246651.78749  25764858.8794   25764860.7794
  22353012.463   -14944813.91849 -11371416.03849  22353012.4714   22353015.6474
  21479251.800   -20698208.83549 -14770190.78849  21479251.4944   21479253.7864
  24270946.054    -3321563.54349  -2571441.43649  24270945.5444   24270948.1364
  25958200.266    -3002319.86549  -2120541.57849  25958199.5624   25958203.9894
  21842863.945   -19358727.89149 -14879130.16049  21842864.3704   21842866.0734
  23739881.348   -12756766.44749  -9930408.53549  23739880.8624   23739883.9844
  22204180.549   -17297173.04749 -13290312.18149  22204179.7264   22204182.7644
 98  2  3  3 34  0.0030000  0  8  4 24  5  8 17 30  6 10
  25786056.461     1684211.12649   1333452.22249  25786057.2644   25786059.1694
  22368040.092   -14865843.27949 -11309880.47449  22368039.8684   22368042.8014
  21489270.134   -20645562.18149 -14729167.42749  21489269.6284   21489272.2844
  24289422.946    -3224466.83249  -2495781.68149  24289422.2634   24289424.9474
  25943257.149    -3080845.99249  -2181730.73549  25943256.7074   25943260.1484
  21837560.731   -19386596.55649 -14900846.00349  21837560.9214   21837562.5594
  23730062.184   -12808366.47549  -9970616.33349  23730061.8804   23730063.9474
  22200874.195   -17314547.88349 -13303851.00649  22200873.5554   22200876.2884
 98  2  3  3 34 30.0030000  0  8  4 24  5  8 17 30  6 10
  25807233.156     1795495.12149   1420167.02149  25807232.9544   25807235.0244
  22383099.388   -14786706.02249 -11248215.07949  22383099.3734   22383102.0934
  21499380.195   -20592433.60349 -14687768.54449  21499379.7994   21499382.2774
  24307931.216    -3127205.07549  -2419993.31149  24307931.1194   24307933.8184
  25928328.475    -3159296.67049  -2242861.05649  25928328.0324   25928331.7704
  21832350.021   -19413979.07149 -14922183.02949  21832350.3784   21832352.0864
  23720245.496   -12859953.13649 -10010813.72549  23720245.0864   23720247.9224
  22197668.089   -17331396.05849 -13316979.44749  22197667.2454   22197670.1714
 98  2  3  3 35  0.0030000  0  8  4 24  5  8 17 30  6 10
  25828394.570     1906699.69449   1506819.92949  25828395.3344   25828395.5494
  22398199.642   -14707353.74749 -11186382.13649  22398199.5294   22398202.5514
  21509588.329   -20538789.70549 -14645968.11149  21509587.7924   21509590.2674
  24326475.194    -3029755.46049  -2344058.55649  24326475.0824   24326477.6054
  25913424.854    -3237615.80049  -2303888.87149  25913423.5504   25913427.7204
  21827237.933   -19440843.37549 -14943116.25349  21827238.0184   21827239.9184
  23710438.876   -12911487.36549 -10050970.25349  23710438.2454   23710441.5064
  22194567.961   -17347687.36849 -13329673.96549  22194567.0014   22194570.0814
 98  2  3  3 35 30.0030000  0  8  4 24  5  8 17 30  6 10
  25849537.177     2017804.58649   1593395.17949  25849538.4674   25849539.5024
  22413335.638   -14627813.67449 -11124402.86049  22413335.3914   22413338.5134
  21519885.970   -20484675.25049 -14603801.01049  21519885.4834   21519887.8704
  24345047.584    -2932157.04749  -2268007.85149  24345047.4344   24345050.3114
  25898541.656    -3315826.92849  -2364832.54449  25898540.6534   25898544.1444
  21822221.370   -19467205.53349 -14963658.19649  21822221.4104   21822223.4274
  23700636.726   -12962997.92949 -10091108.34349  23700637.1304   23700639.1034
  22191567.515   -17363454.81949 -13341960.28449  22191566.7084   22191569.7574
 98  2  3  3 36  0.0030000  0  7 24  5  8 17 30  6 10
  22428509.297   -14548075.54749 -11062269.25549  22428509.1164   22428512.1054
  21530275.989   -20430075.39649 -14561255.67749  21530275.6004   21530277.9544
  24363653.652    -2834382.07249  -2191819.56449  24363653.8134   24363656.8154
  25883681.500    -3393917.31149  -2425682.12149  25883680.5414   25883684.4054
  21817301.222   -19493060.96749 -14983805.28949  21817301.3074   21817303.0904
  23690842.066   -13014469.15049 -10131215.78149  23690842.4314   23690844.2944
  22188670.079   -17378680.72149 -13353824.61549  22188669.3944   22188672.1024
 98  2  3  3 36 30.0030000  0  7 24  5  8 17 30  6 10
  22443724.990   -14468116.40049 -10999963.42349  22443724.8734   22443727.7214
  21540766.166   -20374949.10449 -14518300.12549  21540765.6684   21540768.0234
  24382300.270    -2736393.25749  -2115464.64649  24382299.7954   24382302.9034
  25868850.525    -3471854.21749  -2486412.10649  25868849.7484   25868853.3914
  21812480.080   -19518396.24749 -15003547.06549  21812480.1644   21812482.0354
  23681059.867   -13065874.95249 -10171272.23549  23681059.6644   23681062.8224
  22185882.054   -17393331.98649 -13365241.18149  22185881.3244   22185884.2004
 98  2  3  3 37  0.0030000  0  7 24  5  8 17 30  6 10
  22458974.321   -14387980.68149 -10937520.00549  22458974.1164   22458976.9334
  21551356.193   -20319298.15249 -14474935.75249  21551355.6574   21551358.0514
  24400984.164    -2638209.13249  -2038957.53549  24400982.8314   24400986.9074
  25854049.667    -3549632.65449  -2547018.61149  25854049.1444   25854053.0724
  21807757.194   -19543215.10449 -15022886.43349  21807757.3244   21807759.2584
  23671285.913   -13117237.61449 -10211295.07849  23671286.0404   23671288.2224
  22183200.515   -17407423.42049 -13376221.50649  22183199.7104   22183202.4664
 98  2  3  3 37 30.0030000  0  7 24  5  8 17 30  6 10
  22474257.769   -14307665.73949 -10874936.93549  22474257.3854   22474260.3694
  21562049.347   -20263105.22949 -14431149.06949  21562048.6544   21562051.4094
  24419710.262    -2539802.66949  -1962277.18449  24419709.3074   24419712.1844
  25839280.492    -3627245.13249  -2607495.77749  25839279.8094   25839283.8324
  21803133.926   -19567510.55849 -15041817.96249  21803134.0744   21803135.7834
  23661521.693   -13168548.86749 -10251277.86949  23661521.1104   23661523.9904
  22180631.301   -17420924.61349 -13386741.91349  22180630.5494   22180633.4144
 98  2  3  3 38  0.0030000  0  7 24  5  8 17 30  6 10
  22489576.201   -14227166.68149 -10812210.39749  22489576.0304   22489578.9884
  21572851.159   -20206341.28049 -14386917.42749  21572850.7164   21572853.2974
  24438479.513    -2441169.21749  -1885419.95549  24438478.9534   24438482.0764
  25824545.239    -3704678.51949  -2667833.39749  25824543.9004   25824548.4534
  21798612.553   -19591270.41049 -15060332.13649  21798612.6644   21798614.5044
  23651768.929   -13219799.86449 -10291213.70249  23651768.7414   23651771.2664
  22178179.097   -17433811.20149 -13396783.40349  22178178.1574   22178181.2464
 98  2  3  3 38 30.0030000  0  7 24  5  8 17 30  6 10
  22504921.886   -14146524.56149 -10749372.38149  22504921.6574   22504924.7414
  21583750.750   -20149063.30549 -14342285.24649  21583750.1814   21583752.7394
  24457277.953    -2342382.74849  -1808443.49449  24457277.4694   24457280.4134
  25809836.262    -3781974.81149  -2728064.21849  25809835.1834   25809839.1364
  21794185.279   -19614535.94849 -15078461.12649  21794185.6594   21794187.5614
  23642017.786   -13271042.52249 -10331143.02749  23642017.3024   23642019.4864
  22175835.694   -17446125.74249 -13406379.14349  22175835.0094   22175837.6724
 98  2  3  3 39  0.0030000  0  7 24  5  8 17 30  6 10
  22520308.843   -14065665.64449 -10686365.43249  22520308.5654   22520311.6074
  21594758.354   -20091217.99949 -14297210.98749  21594757.8404   21594760.2674
  24476114.888    -2243394.18849  -1731309.56149  24476115.0484   24476117.8324
  25795165.298    -3859071.06949  -2788139.15549  25795164.9594   25795167.9694
  21789868.139   -19637222.97549 -15096139.33149  21789868.3184   21789870.1314
  23632280.417   -13322212.50349 -10371015.72549  23632280.2534   23632283.4004
  22173614.598   -17457797.66649 -13415474.14049  22173613.6974   22173616.5464
 98  2  3  3 39 30.0030000  0  7 24  5  8 17 30  6 10
  22535728.524   -13984634.81649 -10623224.53049  22535728.0304   22535731.0354
  21605862.064   -20032867.63749 -14251743.18149  21605861.5834   21605864.1054
  24494980.130    -2144256.58849  -1654059.50149  24494979.6084   24494982.4084
  25780519.482    -3936035.10349  -2848111.07649  25780518.8384   25780522.6374
  21785651.084   -19659383.81849 -15113407.52449  21785651.2274   21785653.1344
  23622548.453   -13373354.49549 -10410866.61449  23622548.7504   23622550.8384
  22171505.164   -17468882.57849 -13424111.72949  22171504.2074   22171507.3084
 98  2  3  3 40  0.0030000  0  7 24  5  8 17 30  6 10
  22551191.265   -13903377.57949 -10559907.20849  22551191.1454   22551194.0054
  21617071.774   -19973960.43349 -14205841.47049  21617071.4534   21617073.8864
  24513880.393    -2044934.92049  -1576665.99749  24513879.4844   24513883.0724
  25765909.096    -4012813.51849  -2907938.36849  25765908.6934   25765911.7764
  21781547.363   -19680949.16649 -15130211.69649  21781547.5184   21781549.4454
  23612833.828   -13424405.12149 -10450646.31449  23612833.9454   23612836.3804
  22169515.035   -17479340.67949 -13432260.89349  22169514.2754   22169517.3594
 98  2  3  3 40 30.0030000  0  7 24  5  8 17 30  6 10
  22566701.362   -13821871.45249 -10496395.94449  22566701.5984   22566704.2424
  21628387.477   -19914496.03449 -14159505.58449  21628387.0594   21628389.5864
  24532818.903    -1945412.37149  -1499115.96749  24532818.5734   24532821.1884
  25751336.520    -4089392.77649  -2967610.46249  25751335.9914   25751339.6624
  21777558.654   -19701909.86149 -15146544.71349  21777558.9304   21777560.6384
  23603140.587   -13475343.80249 -10490338.78849  23603140.2764   23603143.3674
  22167645.139   -17489166.99749 -13439917.75949  22167644.5594   22167647.4754
 98  2  3  3 41  0.0030000  0  7 24  5  8 17 30  6 10
  22582258.192   -13740119.79749 -10432693.35849  22582258.1284   22582260.9524
  21639810.548   -19854467.46649 -14112730.08149  21639810.2314   21639812.6204
  24551800.582    -1845663.04349  -1421389.23949  24551800.2624   24551802.7674
  25736801.562    -4165774.05649  -3027128.29449  25736800.9734   25736804.4294
  21773685.913   -19722261.14349 -15162402.85749  21773686.0014   21773687.8544
  23593471.155   -13526156.86249 -10529933.36449  23593471.1304   23593473.6564
  22165898.073   -17498347.73149 -13447071.57249  22165897.2494   22165900.0504
 98  2  3  3 41 30.0030000  0  7 24  5  8 17 30  6 10
  22597848.155   -13658193.98049 -10368855.06149  22597847.9654   22597850.5374
  21651327.308   -19793946.56249 -14065570.94349  21651326.8784   21651329.2254
  24570814.286    -1745745.02749  -1343531.03949  24570814.2394   24570816.3474
  25722292.761    -4242018.14049  -3086539.22049  25722291.8884   25722295.7654
  21769913.766   -19742084.00849 -15177849.24949  21769913.9524   21769915.5914
  23583813.748   -13576906.74849 -10569478.72449  23583813.7064   23583816.0314
  22164260.532   -17506952.96149 -13453776.94349  22164259.8124   22164262.4174
 98  2  3  3 42  0.0030000  0  7 24  5  8 17 30  6 10
  22613473.239   -13576083.89149 -10304873.17049  22613472.9684   22613475.8104
  21662938.556   -19732929.05849 -14018024.84049  21662937.8404   21662940.4604
  24589860.626    -1645655.81949  -1265539.46449  24589860.4744   24589863.3284
  25707812.752    -4318110.61149  -3145832.02449  25707812.0624   25707816.0444
  21766241.098   -19761384.15049 -15192888.31849  21766241.3454   21766243.1884
  23574170.275   -13627583.49649 -10608967.08149  23574170.1024   23574172.3114
  22162736.060   -17514964.18149 -13460019.44249  22162735.2484   22162738.2124
